﻿<?xml version="1.0" encoding="utf-8"?><gpx creator="Garmin Desktop App" version="1.1" xsi:schemaLocation="http://www.topografix.com/GPX/1/1 http://www.topografix.com/GPX/1/1/gpx.xsd http://www.garmin.com/xmlschemas/WaypointExtension/v1 http://www8.garmin.com/xmlschemas/WaypointExtensionv1.xsd http://www.garmin.com/xmlschemas/TrackPointExtension/v1 http://www.garmin.com/xmlschemas/TrackPointExtensionv1.xsd http://www.garmin.com/xmlschemas/GpxExtensions/v3 http://www8.garmin.com/xmlschemas/GpxExtensionsv3.xsd http://www.garmin.com/xmlschemas/ActivityExtension/v1 http://www8.garmin.com/xmlschemas/ActivityExtensionv1.xsd http://www.garmin.com/xmlschemas/AdventuresExtensions/v1 http://www8.garmin.com/xmlschemas/AdventuresExtensionv1.xsd http://www.garmin.com/xmlschemas/PressureExtension/v1 http://www.garmin.com/xmlschemas/PressureExtensionv1.xsd" xmlns="http://www.topografix.com/GPX/1/1" xmlns:xsi="http://www.w3.org/2001/XMLSchema-instance" xmlns:wptx1="http://www.garmin.com/xmlschemas/WaypointExtension/v1" xmlns:gpxtrx="http://www.garmin.com/xmlschemas/GpxExtensions/v3" xmlns:gpxtpx="http://www.garmin.com/xmlschemas/TrackPointExtension/v1" xmlns:gpxx="http://www.garmin.com/xmlschemas/GpxExtensions/v3" xmlns:trp="http://www.garmin.com/xmlschemas/TripExtensions/v1" xmlns:adv="http://www.garmin.com/xmlschemas/AdventuresExtensions/v1" xmlns:prs="http://www.garmin.com/xmlschemas/PressureExtension/v1">

  <metadata>
    <link href="http://www.garmin.com">
      <text>Garmin International</text>
    </link>
    <time>2012-10-19T15:30:24Z</time>
    <bounds maxlat="46.077793389558792" maxlon="9.316326370462775" minlat="46.01104854606092" minlon="9.284147070720792" />
  </metadata>

  <trk>
    <name>varenna dervio2012-10-18</name>
    <extensions>
      <gpxx:TrackExtension>
        <gpxx:DisplayColor>Yellow</gpxx:DisplayColor>
      </gpxx:TrackExtension>
    </extensions>
    <trkseg>
      <trkpt lat="46.015550885349512" lon="9.286293257027865">
        <ele>229.41</ele>
        <time>2012-10-18T07:11:58Z</time>
      </trkpt>
      <trkpt lat="46.015544515103102" lon="9.286281606182456">
        <ele>228.93000000000001</ele>
        <time>2012-10-18T07:12:18Z</time>
      </trkpt>
      <trkpt lat="46.015553819015622" lon="9.286293257027865">
        <ele>228.44999999999999</ele>
        <time>2012-10-18T07:12:38Z</time>
      </trkpt>
      <trkpt lat="46.015556501224637" lon="9.286304488778114">
        <ele>229.88999999999999</ele>
        <time>2012-10-18T07:13:01Z</time>
      </trkpt>
      <trkpt lat="46.015518195927143" lon="9.286246821284294">
        <ele>228.93000000000001</ele>
        <time>2012-10-18T07:13:16Z</time>
      </trkpt>
      <trkpt lat="46.015526410192251" lon="9.286229051649571">
        <ele>228.93000000000001</ele>
        <time>2012-10-18T07:13:33Z</time>
      </trkpt>
      <trkpt lat="46.015521548688412" lon="9.286231314763427">
        <ele>228.93000000000001</ele>
        <time>2012-10-18T07:13:36Z</time>
      </trkpt>
      <trkpt lat="46.015439322218299" lon="9.286293759942055">
        <ele>229.88999999999999</ele>
        <time>2012-10-18T07:13:48Z</time>
      </trkpt>
      <trkpt lat="46.01542616263032" lon="9.286297280341387">
        <ele>229.88999999999999</ele>
        <time>2012-10-18T07:13:50Z</time>
      </trkpt>
      <trkpt lat="46.015404872596264" lon="9.286300968378782">
        <ele>229.41</ele>
        <time>2012-10-18T07:13:52Z</time>
      </trkpt>
      <trkpt lat="46.015363968908787" lon="9.28625151515007">
        <ele>229.88999999999999</ele>
        <time>2012-10-18T07:13:57Z</time>
      </trkpt>
      <trkpt lat="46.015331447124481" lon="9.286198625341058">
        <ele>229.41</ele>
        <time>2012-10-18T07:14:01Z</time>
      </trkpt>
      <trkpt lat="46.015316527336836" lon="9.286162834614515">
        <ele>229.88999999999999</ele>
        <time>2012-10-18T07:14:04Z</time>
      </trkpt>
      <trkpt lat="46.015334883704782" lon="9.285988323390484">
        <ele>228.93000000000001</ele>
        <time>2012-10-18T07:14:19Z</time>
      </trkpt>
      <trkpt lat="46.015356341376901" lon="9.285965356975794">
        <ele>228.93000000000001</ele>
        <time>2012-10-18T07:14:22Z</time>
      </trkpt>
      <trkpt lat="46.015450805425644" lon="9.285928728058934">
        <ele>227.97</ele>
        <time>2012-10-18T07:14:36Z</time>
      </trkpt>
      <trkpt lat="46.015500007197261" lon="9.28590408526361">
        <ele>228.44999999999999</ele>
        <time>2012-10-18T07:14:48Z</time>
      </trkpt>
      <trkpt lat="46.015503527596593" lon="9.285878604277968">
        <ele>227.97</ele>
        <time>2012-10-18T07:14:56Z</time>
      </trkpt>
      <trkpt lat="46.015557339414954" lon="9.285805430263281">
        <ele>227.49000000000001</ele>
        <time>2012-10-18T07:15:02Z</time>
      </trkpt>
      <trkpt lat="46.015489613637328" lon="9.285628655925393">
        <ele>227.00999999999999</ele>
        <time>2012-10-18T07:15:17Z</time>
      </trkpt>
      <trkpt lat="46.015470838174224" lon="9.285621447488666">
        <ele>226.53</ele>
        <time>2012-10-18T07:15:19Z</time>
      </trkpt>
      <trkpt lat="46.015234719961882" lon="9.285709708929062">
        <ele>224.61000000000001</ele>
        <time>2012-10-18T07:15:37Z</time>
      </trkpt>
      <trkpt lat="46.01511200889945" lon="9.285693867132068">
        <ele>223.63999999999999</ele>
        <time>2012-10-18T07:15:51Z</time>
      </trkpt>
      <trkpt lat="46.015100525692105" lon="9.285683976486325">
        <ele>224.12</ele>
        <time>2012-10-18T07:15:54Z</time>
      </trkpt>
      <trkpt lat="46.015121564269066" lon="9.285632846876979">
        <ele>223.16</ele>
        <time>2012-10-18T07:16:02Z</time>
      </trkpt>
      <trkpt lat="46.015057191252708" lon="9.285646509379149">
        <ele>220.75999999999999</ele>
        <time>2012-10-18T07:16:07Z</time>
      </trkpt>
      <trkpt lat="46.01500597782433" lon="9.285622034221888">
        <ele>220.28</ele>
        <time>2012-10-18T07:16:11Z</time>
      </trkpt>
      <trkpt lat="46.014915872365236" lon="9.285500915721059">
        <ele>219.31999999999999</ele>
        <time>2012-10-18T07:16:20Z</time>
      </trkpt>
      <trkpt lat="46.01475041359663" lon="9.285435536876321">
        <ele>218.36000000000001</ele>
        <time>2012-10-18T07:16:36Z</time>
      </trkpt>
      <trkpt lat="46.014734655618668" lon="9.285426316782832">
        <ele>219.31999999999999</ele>
        <time>2012-10-18T07:16:37Z</time>
      </trkpt>
      <trkpt lat="46.014724932610989" lon="9.285376109182835">
        <ele>217.88</ele>
        <time>2012-10-18T07:16:39Z</time>
      </trkpt>
      <trkpt lat="46.014822078868747" lon="9.285034714266658">
        <ele>217.40000000000001</ele>
        <time>2012-10-18T07:16:56Z</time>
      </trkpt>
      <trkpt lat="46.014799699187279" lon="9.284815778955817">
        <ele>216.91</ele>
        <time>2012-10-18T07:17:11Z</time>
      </trkpt>
      <trkpt lat="46.014802800491452" lon="9.284591060131788">
        <ele>215.94999999999999</ele>
        <time>2012-10-18T07:17:25Z</time>
      </trkpt>
      <trkpt lat="46.014800872653723" lon="9.284494668245316">
        <ele>216.43000000000001</ele>
        <time>2012-10-18T07:17:31Z</time>
      </trkpt>
      <trkpt lat="46.014648992568254" lon="9.284447897225618">
        <ele>217.40000000000001</ele>
        <time>2012-10-18T07:17:47Z</time>
      </trkpt>
      <trkpt lat="46.014522593468428" lon="9.284394755959511">
        <ele>216.91</ele>
        <time>2012-10-18T07:18:01Z</time>
      </trkpt>
      <trkpt lat="46.014456460252404" lon="9.284341866150498">
        <ele>217.40000000000001</ele>
        <time>2012-10-18T07:18:11Z</time>
      </trkpt>
      <trkpt lat="46.014307094737887" lon="9.284266764298081">
        <ele>218.84</ele>
        <time>2012-10-18T07:18:25Z</time>
      </trkpt>
      <trkpt lat="46.01422855630517" lon="9.284212784841657">
        <ele>218.36000000000001</ele>
        <time>2012-10-18T07:18:32Z</time>
      </trkpt>
      <trkpt lat="46.014090171083808" lon="9.284168109297752">
        <ele>219.80000000000001</ele>
        <time>2012-10-18T07:18:44Z</time>
      </trkpt>
      <trkpt lat="46.014024708420038" lon="9.284155704081059">
        <ele>220.28</ele>
        <time>2012-10-18T07:18:50Z</time>
      </trkpt>
      <trkpt lat="46.014012135565281" lon="9.284151261672378">
        <ele>219.80000000000001</ele>
        <time>2012-10-18T07:18:51Z</time>
      </trkpt>
      <trkpt lat="46.013990342617035" lon="9.284147070720792">
        <ele>220.28</ele>
        <time>2012-10-18T07:18:53Z</time>
      </trkpt>
      <trkpt lat="46.013940051198006" lon="9.284180011600256">
        <ele>221.72</ele>
        <time>2012-10-18T07:19:07Z</time>
      </trkpt>
      <trkpt lat="46.013950780034065" lon="9.284332813695073">
        <ele>224.61000000000001</ele>
        <time>2012-10-18T07:19:25Z</time>
      </trkpt>
      <trkpt lat="46.013833768665791" lon="9.284414201974869">
        <ele>226.05000000000001</ele>
        <time>2012-10-18T07:19:38Z</time>
      </trkpt>
      <trkpt lat="46.013745926320553" lon="9.284369107335806">
        <ele>227.97</ele>
        <time>2012-10-18T07:19:48Z</time>
      </trkpt>
      <trkpt lat="46.013659005984664" lon="9.28430775180459">
        <ele>229.88999999999999</ele>
        <time>2012-10-18T07:20:01Z</time>
      </trkpt>
      <trkpt lat="46.013640901073813" lon="9.284300711005926">
        <ele>230.37</ele>
        <time>2012-10-18T07:20:03Z</time>
      </trkpt>
      <trkpt lat="46.013554064556956" lon="9.284267518669367">
        <ele>230.84999999999999</ele>
        <time>2012-10-18T07:20:18Z</time>
      </trkpt>
      <trkpt lat="46.013612318783998" lon="9.284375226125121">
        <ele>234.69999999999999</ele>
        <time>2012-10-18T07:20:34Z</time>
      </trkpt>
      <trkpt lat="46.013618437573314" lon="9.284496763721108">
        <ele>236.62</ele>
        <time>2012-10-18T07:20:48Z</time>
      </trkpt>
      <trkpt lat="46.013610307127237" lon="9.284561723470688">
        <ele>239.02000000000001</ele>
        <time>2012-10-18T07:20:57Z</time>
      </trkpt>
      <trkpt lat="46.013612989336252" lon="9.284695331007242">
        <ele>240.94999999999999</ele>
        <time>2012-10-18T07:21:11Z</time>
      </trkpt>
      <trkpt lat="46.013593710958958" lon="9.284837152808905">
        <ele>243.34999999999999</ele>
        <time>2012-10-18T07:21:26Z</time>
      </trkpt>
      <trkpt lat="46.013581892475486" lon="9.28495466709137">
        <ele>245.27000000000001</ele>
        <time>2012-10-18T07:21:39Z</time>
      </trkpt>
      <trkpt lat="46.01356060244143" lon="9.285114509984851">
        <ele>248.16</ele>
        <time>2012-10-18T07:21:55Z</time>
      </trkpt>
      <trkpt lat="46.013541491702199" lon="9.285212326794863">
        <ele>249.59999999999999</ele>
        <time>2012-10-18T07:22:06Z</time>
      </trkpt>
      <trkpt lat="46.013519614934921" lon="9.285309389233589">
        <ele>252</ele>
        <time>2012-10-18T07:22:18Z</time>
      </trkpt>
      <trkpt lat="46.013532690703869" lon="9.285422125831246">
        <ele>253.93000000000001</ele>
        <time>2012-10-18T07:22:31Z</time>
      </trkpt>
      <trkpt lat="46.013512406498194" lon="9.285565707832575">
        <ele>256.81</ele>
        <time>2012-10-18T07:22:47Z</time>
      </trkpt>
      <trkpt lat="46.013530930504203" lon="9.285700153559446">
        <ele>259.20999999999998</ele>
        <time>2012-10-18T07:23:02Z</time>
      </trkpt>
      <trkpt lat="46.013539731502533" lon="9.285740135237575">
        <ele>260.17000000000002</ele>
        <time>2012-10-18T07:23:05Z</time>
      </trkpt>
      <trkpt lat="46.013540988788009" lon="9.285837868228555">
        <ele>262.57999999999998</ele>
        <time>2012-10-18T07:23:19Z</time>
      </trkpt>
      <trkpt lat="46.013536797836423" lon="9.28593291901052">
        <ele>264.5</ele>
        <time>2012-10-18T07:23:31Z</time>
      </trkpt>
      <trkpt lat="46.013534786179662" lon="9.28594515658915">
        <ele>264.98000000000002</ele>
        <time>2012-10-18T07:23:32Z</time>
      </trkpt>
      <trkpt lat="46.013529254123569" lon="9.286068538203836">
        <ele>266.89999999999998</ele>
        <time>2012-10-18T07:23:46Z</time>
      </trkpt>
      <trkpt lat="46.013532355427742" lon="9.286176664754748">
        <ele>268.82999999999998</ele>
        <time>2012-10-18T07:23:58Z</time>
      </trkpt>
      <trkpt lat="46.013503521680832" lon="9.286319324746728">
        <ele>271.70999999999998</ele>
        <time>2012-10-18T07:24:13Z</time>
      </trkpt>
      <trkpt lat="46.013436214998364" lon="9.286453099921346">
        <ele>275.06999999999999</ele>
        <time>2012-10-18T07:24:30Z</time>
      </trkpt>
      <trkpt lat="46.013377206400037" lon="9.286571117118001">
        <ele>277</ele>
        <time>2012-10-18T07:24:43Z</time>
      </trkpt>
      <trkpt lat="46.013365052640438" lon="9.286639848724008">
        <ele>278.44</ele>
        <time>2012-10-18T07:24:50Z</time>
      </trkpt>
      <trkpt lat="46.013346696272492" lon="9.286751076579094">
        <ele>279.88</ele>
        <time>2012-10-18T07:24:59Z</time>
      </trkpt>
      <trkpt lat="46.013321885839105" lon="9.286888958886266">
        <ele>280.83999999999997</ele>
        <time>2012-10-18T07:25:11Z</time>
      </trkpt>
      <trkpt lat="46.013294057920575" lon="9.287023656070232">
        <ele>282.27999999999997</ele>
        <time>2012-10-18T07:25:24Z</time>
      </trkpt>
      <trkpt lat="46.013286514207721" lon="9.287059279158711">
        <ele>282.76999999999998</ele>
        <time>2012-10-18T07:25:27Z</time>
      </trkpt>
      <trkpt lat="46.013238653540611" lon="9.287199676036835">
        <ele>283.73000000000002</ele>
        <time>2012-10-18T07:25:38Z</time>
      </trkpt>
      <trkpt lat="46.013230858370662" lon="9.287214344367385">
        <ele>283.73000000000002</ele>
        <time>2012-10-18T07:25:39Z</time>
      </trkpt>
      <trkpt lat="46.013217866420746" lon="9.287237394601107">
        <ele>283.73000000000002</ele>
        <time>2012-10-18T07:25:41Z</time>
      </trkpt>
      <trkpt lat="46.013159276917577" lon="9.287386341020465">
        <ele>286.13</ele>
        <time>2012-10-18T07:25:56Z</time>
      </trkpt>
      <trkpt lat="46.013081157580018" lon="9.28756051696837">
        <ele>288.05000000000001</ele>
        <time>2012-10-18T07:26:12Z</time>
      </trkpt>
      <trkpt lat="46.012968001887202" lon="9.287684233859181">
        <ele>290.94</ele>
        <time>2012-10-18T07:26:29Z</time>
      </trkpt>
      <trkpt lat="46.012880578637123" lon="9.287803256884217">
        <ele>293.81999999999999</ele>
        <time>2012-10-18T07:26:46Z</time>
      </trkpt>
      <trkpt lat="46.012789970263839" lon="9.287932002916932">
        <ele>296.69999999999999</ele>
        <time>2012-10-18T07:27:04Z</time>
      </trkpt>
      <trkpt lat="46.012723250314593" lon="9.288034094497562">
        <ele>299.58999999999997</ele>
        <time>2012-10-18T07:27:19Z</time>
      </trkpt>
      <trkpt lat="46.012672372162342" lon="9.288171473890543">
        <ele>301.99000000000001</ele>
        <time>2012-10-18T07:27:34Z</time>
      </trkpt>
      <trkpt lat="46.012597773224115" lon="9.288273565471172">
        <ele>305.36000000000001</ele>
        <time>2012-10-18T07:27:51Z</time>
      </trkpt>
      <trkpt lat="46.012506242841482" lon="9.288356797769666">
        <ele>308.24000000000001</ele>
        <time>2012-10-18T07:28:05Z</time>
      </trkpt>
      <trkpt lat="46.012463746592402" lon="9.288401640951634">
        <ele>310.63999999999999</ele>
        <time>2012-10-18T07:28:21Z</time>
      </trkpt>
      <trkpt lat="46.01245142519474" lon="9.288462661206722">
        <ele>312.08999999999997</ele>
        <time>2012-10-18T07:28:46Z</time>
      </trkpt>
      <trkpt lat="46.012402223423123" lon="9.288547821342945">
        <ele>315.44999999999999</ele>
        <time>2012-10-18T07:29:01Z</time>
      </trkpt>
      <trkpt lat="46.012284541502595" lon="9.288642117753625">
        <ele>318.81</ele>
        <time>2012-10-18T07:29:18Z</time>
      </trkpt>
      <trkpt lat="46.012211367487907" lon="9.288792153820396">
        <ele>321.69999999999999</ele>
        <time>2012-10-18T07:29:37Z</time>
      </trkpt>
      <trkpt lat="46.012134086340666" lon="9.288904722779989">
        <ele>324.10000000000002</ele>
        <time>2012-10-18T07:29:54Z</time>
      </trkpt>
      <trkpt lat="46.012055212631822" lon="9.288975466042757">
        <ele>326.01999999999998</ele>
        <time>2012-10-18T07:30:08Z</time>
      </trkpt>
      <trkpt lat="46.011948091909289" lon="9.289010670036078">
        <ele>328.91000000000003</ele>
        <time>2012-10-18T07:30:22Z</time>
      </trkpt>
      <trkpt lat="46.011867290362716" lon="9.289012094959617">
        <ele>330.35000000000002</ele>
        <time>2012-10-18T07:30:33Z</time>
      </trkpt>
      <trkpt lat="46.011773077771068" lon="9.288973202928901">
        <ele>333.23000000000002</ele>
        <time>2012-10-18T07:30:48Z</time>
      </trkpt>
      <trkpt lat="46.01174826733768" lon="9.288963060826063">
        <ele>334.19999999999999</ele>
        <time>2012-10-18T07:30:52Z</time>
      </trkpt>
      <trkpt lat="46.011643493548036" lon="9.288953253999353">
        <ele>336.12</ele>
        <time>2012-10-18T07:31:04Z</time>
      </trkpt>
      <trkpt lat="46.011613067239523" lon="9.288945375010371">
        <ele>336.60000000000002</ele>
        <time>2012-10-18T07:31:08Z</time>
      </trkpt>
      <trkpt lat="46.011534361168742" lon="9.288929784670472">
        <ele>339</ele>
        <time>2012-10-18T07:31:22Z</time>
      </trkpt>
      <trkpt lat="46.011451045051217" lon="9.288945375010371">
        <ele>341.88999999999999</ele>
        <time>2012-10-18T07:31:36Z</time>
      </trkpt>
      <trkpt lat="46.011332860216498" lon="9.288964821025729">
        <ele>345.25</ele>
        <time>2012-10-18T07:31:51Z</time>
      </trkpt>
      <trkpt lat="46.011308133602142" lon="9.288971023634076">
        <ele>346.20999999999998</ele>
        <time>2012-10-18T07:31:57Z</time>
      </trkpt>
      <trkpt lat="46.011279132217169" lon="9.288943698629737">
        <ele>347.17000000000002</ele>
        <time>2012-10-18T07:32:10Z</time>
      </trkpt>
      <trkpt lat="46.011298326775432" lon="9.288921654224396">
        <ele>346.20999999999998</ele>
        <time>2012-10-18T07:32:22Z</time>
      </trkpt>
      <trkpt lat="46.011306373402476" lon="9.288921821862459">
        <ele>346.20999999999998</ele>
        <time>2012-10-18T07:32:46Z</time>
      </trkpt>
      <trkpt lat="46.011304445564747" lon="9.288933807983995">
        <ele>345.73000000000002</ele>
        <time>2012-10-18T07:33:09Z</time>
      </trkpt>
      <trkpt lat="46.011322382837534" lon="9.288935232907534">
        <ele>345.73000000000002</ele>
        <time>2012-10-18T07:33:26Z</time>
      </trkpt>
      <trkpt lat="46.011335542425513" lon="9.288937244564295">
        <ele>346.69</ele>
        <time>2012-10-18T07:33:36Z</time>
      </trkpt>
      <trkpt lat="46.011333866044879" lon="9.288956187665463">
        <ele>346.69</ele>
        <time>2012-10-18T07:33:39Z</time>
      </trkpt>
      <trkpt lat="46.011241497471929" lon="9.289090214297175">
        <ele>349.10000000000002</ele>
        <time>2012-10-18T07:33:53Z</time>
      </trkpt>
      <trkpt lat="46.011184751987457" lon="9.289164561778307">
        <ele>350.54000000000002</ele>
        <time>2012-10-18T07:34:08Z</time>
      </trkpt>
      <trkpt lat="46.011192044243217" lon="9.28918031975627">
        <ele>351.01999999999998</ele>
        <time>2012-10-18T07:34:29Z</time>
      </trkpt>
      <trkpt lat="46.011194139719009" lon="9.289152156561613">
        <ele>350.54000000000002</ele>
        <time>2012-10-18T07:34:48Z</time>
      </trkpt>
      <trkpt lat="46.01120688021183" lon="9.289172440767288">
        <ele>350.54000000000002</ele>
        <time>2012-10-18T07:35:07Z</time>
      </trkpt>
      <trkpt lat="46.011196151375771" lon="9.289190042763948">
        <ele>351.01999999999998</ele>
        <time>2012-10-18T07:35:20Z</time>
      </trkpt>
      <trkpt lat="46.011213418096304" lon="9.289257684722543">
        <ele>349.57999999999998</ele>
        <time>2012-10-18T07:35:33Z</time>
      </trkpt>
      <trkpt lat="46.011211909353733" lon="9.289407888427377">
        <ele>347.17000000000002</ele>
        <time>2012-10-18T07:35:45Z</time>
      </trkpt>
      <trkpt lat="46.011198665946722" lon="9.289509141817689">
        <ele>344.76999999999998</ele>
        <time>2012-10-18T07:35:58Z</time>
      </trkpt>
      <trkpt lat="46.011153319850564" lon="9.289598241448402">
        <ele>342.85000000000002</ele>
        <time>2012-10-18T07:36:11Z</time>
      </trkpt>
      <trkpt lat="46.011121887713671" lon="9.289733441546559">
        <ele>339.95999999999998</ele>
        <time>2012-10-18T07:36:24Z</time>
      </trkpt>
      <trkpt lat="46.011132197454572" lon="9.289788259193301">
        <ele>338.51999999999998</ele>
        <time>2012-10-18T07:36:30Z</time>
      </trkpt>
      <trkpt lat="46.011095400899649" lon="9.289903258904815">
        <ele>335.63999999999999</ele>
        <time>2012-10-18T07:36:42Z</time>
      </trkpt>
      <trkpt lat="46.011078469455242" lon="9.289983892813325">
        <ele>333.70999999999998</ele>
        <time>2012-10-18T07:36:52Z</time>
      </trkpt>
      <trkpt lat="46.011074027046561" lon="9.290004344657064">
        <ele>332.75</ele>
        <time>2012-10-18T07:36:54Z</time>
      </trkpt>
      <trkpt lat="46.011100430041552" lon="9.290118925273418">
        <ele>330.35000000000002</ele>
        <time>2012-10-18T07:37:03Z</time>
      </trkpt>
      <trkpt lat="46.01104854606092" lon="9.290314558893442">
        <ele>327.47000000000003</ele>
        <time>2012-10-18T07:37:18Z</time>
      </trkpt>
      <trkpt lat="46.011114260181785" lon="9.290487477555871">
        <ele>326.99000000000001</ele>
        <time>2012-10-18T07:37:32Z</time>
      </trkpt>
      <trkpt lat="46.011114427819848" lon="9.290510695427656">
        <ele>326.01999999999998</ele>
        <time>2012-10-18T07:37:34Z</time>
      </trkpt>
      <trkpt lat="46.011125575751066" lon="9.290555370971561">
        <ele>324.57999999999998</ele>
        <time>2012-10-18T07:37:39Z</time>
      </trkpt>
      <trkpt lat="46.011227499693632" lon="9.290703060105443">
        <ele>322.18000000000001</ele>
        <time>2012-10-18T07:37:54Z</time>
      </trkpt>
      <trkpt lat="46.011264966800809" lon="9.290788052603602">
        <ele>320.25999999999999</ele>
        <time>2012-10-18T07:38:01Z</time>
      </trkpt>
      <trkpt lat="46.011309893801808" lon="9.290859801694751">
        <ele>317.85000000000002</ele>
        <time>2012-10-18T07:38:08Z</time>
      </trkpt>
      <trkpt lat="46.011312995105982" lon="9.290845049545169">
        <ele>316.88999999999999</ele>
        <time>2012-10-18T07:38:25Z</time>
      </trkpt>
      <trkpt lat="46.011355742812157" lon="9.290891904383898">
        <ele>316.88999999999999</ele>
        <time>2012-10-18T07:38:56Z</time>
      </trkpt>
      <trkpt lat="46.011391533538699" lon="9.291032552719116">
        <ele>314.00999999999999</ele>
        <time>2012-10-18T07:39:02Z</time>
      </trkpt>
      <trkpt lat="46.01140234619379" lon="9.291190467774868">
        <ele>310.63999999999999</ele>
        <time>2012-10-18T07:39:12Z</time>
      </trkpt>
      <trkpt lat="46.011404022574425" lon="9.291407642886043">
        <ele>308.72000000000003</ele>
        <time>2012-10-18T07:39:25Z</time>
      </trkpt>
      <trkpt lat="46.011411063373089" lon="9.291549967601895">
        <ele>306.31999999999999</ele>
        <time>2012-10-18T07:39:36Z</time>
      </trkpt>
      <trkpt lat="46.011423887684941" lon="9.291650969535112">
        <ele>303.43000000000001</ele>
        <time>2012-10-18T07:39:47Z</time>
      </trkpt>
      <trkpt lat="46.011479962617159" lon="9.29176714271307">
        <ele>300.55000000000001</ele>
        <time>2012-10-18T07:40:03Z</time>
      </trkpt>
      <trkpt lat="46.01148784160614" lon="9.291776111349464">
        <ele>300.55000000000001</ele>
        <time>2012-10-18T07:40:04Z</time>
      </trkpt>
      <trkpt lat="46.011594040319324" lon="9.291937714442611">
        <ele>297.18000000000001</ele>
        <time>2012-10-18T07:40:18Z</time>
      </trkpt>
      <trkpt lat="46.011646678671241" lon="9.292104430496693">
        <ele>294.77999999999997</ele>
        <time>2012-10-18T07:40:31Z</time>
      </trkpt>
      <trkpt lat="46.011668220162392" lon="9.292254047468305">
        <ele>292.86000000000001</ele>
        <time>2012-10-18T07:40:43Z</time>
      </trkpt>
      <trkpt lat="46.011670315638185" lon="9.292269553989172">
        <ele>292.38</ele>
        <time>2012-10-18T07:40:44Z</time>
      </trkpt>
      <trkpt lat="46.011679787188768" lon="9.292399389669299">
        <ele>291.42000000000002</ele>
        <time>2012-10-18T07:40:52Z</time>
      </trkpt>
      <trkpt lat="46.011676853522658" lon="9.292442305013537">
        <ele>290.94</ele>
        <time>2012-10-18T07:40:55Z</time>
      </trkpt>
      <trkpt lat="46.011599656194448" lon="9.292552778497338">
        <ele>289.49000000000001</ele>
        <time>2012-10-18T07:41:09Z</time>
      </trkpt>
      <trkpt lat="46.011629244312644" lon="9.292595023289323">
        <ele>289.49000000000001</ele>
        <time>2012-10-18T07:41:27Z</time>
      </trkpt>
      <trkpt lat="46.011606194078922" lon="9.292629053816199">
        <ele>289.49000000000001</ele>
        <time>2012-10-18T07:41:37Z</time>
      </trkpt>
      <trkpt lat="46.011620024219155" lon="9.292647494003177">
        <ele>289.00999999999999</ele>
        <time>2012-10-18T07:41:52Z</time>
      </trkpt>
      <trkpt lat="46.01164030842483" lon="9.29265939630568">
        <ele>289.00999999999999</ele>
        <time>2012-10-18T07:42:13Z</time>
      </trkpt>
      <trkpt lat="46.011670064181089" lon="9.292671047151089">
        <ele>289.00999999999999</ele>
        <time>2012-10-18T07:42:31Z</time>
      </trkpt>
      <trkpt lat="46.011639637872577" lon="9.292710609734058">
        <ele>289.00999999999999</ele>
        <time>2012-10-18T07:42:48Z</time>
      </trkpt>
      <trkpt lat="46.011651707813144" lon="9.292727624997497">
        <ele>288.52999999999997</ele>
        <time>2012-10-18T07:42:53Z</time>
      </trkpt>
      <trkpt lat="46.011820351704955" lon="9.292662749066949">
        <ele>288.05000000000001</ele>
        <time>2012-10-18T07:43:09Z</time>
      </trkpt>
      <trkpt lat="46.011829655617476" lon="9.292638609185815">
        <ele>288.05000000000001</ele>
        <time>2012-10-18T07:43:11Z</time>
      </trkpt>
      <trkpt lat="46.011910038068891" lon="9.292428893968463">
        <ele>290.45999999999998</ele>
        <time>2012-10-18T07:43:26Z</time>
      </trkpt>
      <trkpt lat="46.011990420520306" lon="9.292392684146762">
        <ele>293.33999999999997</ele>
        <time>2012-10-18T07:43:38Z</time>
      </trkpt>
      <trkpt lat="46.012055044993758" lon="9.292365275323391">
        <ele>296.69999999999999</ele>
        <time>2012-10-18T07:43:51Z</time>
      </trkpt>
      <trkpt lat="46.012115310877562" lon="9.292323868721724">
        <ele>300.06999999999999</ele>
        <time>2012-10-18T07:44:03Z</time>
      </trkpt>
      <trkpt lat="46.012156633660197" lon="9.292268296703696">
        <ele>302.94999999999999</ele>
        <time>2012-10-18T07:44:16Z</time>
      </trkpt>
      <trkpt lat="46.01219292730093" lon="9.292156482115388">
        <ele>306.31999999999999</ele>
        <time>2012-10-18T07:44:31Z</time>
      </trkpt>
      <trkpt lat="46.012221677228808" lon="9.292139885947108">
        <ele>307.27999999999997</ele>
        <time>2012-10-18T07:44:35Z</time>
      </trkpt>
      <trkpt lat="46.012252438813448" lon="9.292180370539427">
        <ele>307.27999999999997</ele>
        <time>2012-10-18T07:44:38Z</time>
      </trkpt>
      <trkpt lat="46.012281607836485" lon="9.292329484596849">
        <ele>307.75999999999999</ele>
        <time>2012-10-18T07:44:47Z</time>
      </trkpt>
      <trkpt lat="46.012353608384728" lon="9.292316073551774">
        <ele>307.75999999999999</ele>
        <time>2012-10-18T07:44:53Z</time>
      </trkpt>
      <trkpt lat="46.012458046898246" lon="9.292111722752452">
        <ele>307.75999999999999</ele>
        <time>2012-10-18T07:45:10Z</time>
      </trkpt>
      <trkpt lat="46.012492664158344" lon="9.292053552344441">
        <ele>307.75999999999999</ele>
        <time>2012-10-18T07:45:25Z</time>
      </trkpt>
      <trkpt lat="46.012569107115269" lon="9.292013738304377">
        <ele>309.68000000000001</ele>
        <time>2012-10-18T07:45:39Z</time>
      </trkpt>
      <trkpt lat="46.012559132650495" lon="9.291990101337433">
        <ele>309.68000000000001</ele>
        <time>2012-10-18T07:45:54Z</time>
      </trkpt>
      <trkpt lat="46.012582769617438" lon="9.292013486847282">
        <ele>310.16000000000003</ele>
        <time>2012-10-18T07:46:16Z</time>
      </trkpt>
      <trkpt lat="46.012667426839471" lon="9.29199630394578">
        <ele>313.52999999999997</ele>
        <time>2012-10-18T07:46:29Z</time>
      </trkpt>
      <trkpt lat="46.012764740735292" lon="9.291941234841943">
        <ele>316.88999999999999</ele>
        <time>2012-10-18T07:46:43Z</time>
      </trkpt>
      <trkpt lat="46.01282718591392" lon="9.291832353919745">
        <ele>320.25999999999999</ele>
        <time>2012-10-18T07:47:00Z</time>
      </trkpt>
      <trkpt lat="46.012922907248139" lon="9.291760353371501">
        <ele>323.62</ele>
        <time>2012-10-18T07:47:17Z</time>
      </trkpt>
      <trkpt lat="46.012997925281525" lon="9.291716013103724">
        <ele>326.5</ele>
        <time>2012-10-18T07:47:33Z</time>
      </trkpt>
      <trkpt lat="46.013047797605395" lon="9.291674103587866">
        <ele>329.38999999999999</ele>
        <time>2012-10-18T07:47:50Z</time>
      </trkpt>
      <trkpt lat="46.013111667707562" lon="9.291585339233279">
        <ele>329.87</ele>
        <time>2012-10-18T07:48:14Z</time>
      </trkpt>
      <trkpt lat="46.013092305511236" lon="9.291581902652979">
        <ele>330.35000000000002</ele>
        <time>2012-10-18T07:48:34Z</time>
      </trkpt>
      <trkpt lat="46.013027429580688" lon="9.291691035032272">
        <ele>330.35000000000002</ele>
        <time>2012-10-18T07:48:55Z</time>
      </trkpt>
      <trkpt lat="46.01302214898169" lon="9.291745852679014">
        <ele>331.31</ele>
        <time>2012-10-18T07:49:16Z</time>
      </trkpt>
      <trkpt lat="46.013063807040453" lon="9.291702769696713">
        <ele>330.82999999999998</ele>
        <time>2012-10-18T07:49:32Z</time>
      </trkpt>
      <trkpt lat="46.013080822303891" lon="9.291731603443623">
        <ele>330.35000000000002</ele>
        <time>2012-10-18T07:49:50Z</time>
      </trkpt>
      <trkpt lat="46.013141255825758" lon="9.291702937334776">
        <ele>331.31</ele>
        <time>2012-10-18T07:50:06Z</time>
      </trkpt>
      <trkpt lat="46.013263966888189" lon="9.291741494089365">
        <ele>333.70999999999998</ele>
        <time>2012-10-18T07:50:18Z</time>
      </trkpt>
      <trkpt lat="46.013348707929254" lon="9.291830593720079">
        <ele>334.19999999999999</ele>
        <time>2012-10-18T07:50:27Z</time>
      </trkpt>
      <trkpt lat="46.013511316850781" lon="9.291969146579504">
        <ele>333.70999999999998</ele>
        <time>2012-10-18T07:50:46Z</time>
      </trkpt>
      <trkpt lat="46.013551130890846" lon="9.292023964226246">
        <ele>334.19999999999999</ele>
        <time>2012-10-18T07:51:03Z</time>
      </trkpt>
      <trkpt lat="46.013663532212377" lon="9.292162684723735">
        <ele>333.70999999999998</ele>
        <time>2012-10-18T07:51:17Z</time>
      </trkpt>
      <trkpt lat="46.013780795037746" lon="9.292340883985162">
        <ele>332.75</ele>
        <time>2012-10-18T07:51:33Z</time>
      </trkpt>
      <trkpt lat="46.013888251036406" lon="9.292417578399181">
        <ele>331.31</ele>
        <time>2012-10-18T07:51:47Z</time>
      </trkpt>
      <trkpt lat="46.013942901045084" lon="9.292286401614547">
        <ele>331.31</ele>
        <time>2012-10-18T07:52:00Z</time>
      </trkpt>
      <trkpt lat="46.013968046754599" lon="9.292224710807204">
        <ele>331.31</ele>
        <time>2012-10-18T07:52:15Z</time>
      </trkpt>
      <trkpt lat="46.01399696432054" lon="9.291977360844612">
        <ele>330.35000000000002</ele>
        <time>2012-10-18T07:52:29Z</time>
      </trkpt>
      <trkpt lat="46.014000233262777" lon="9.291937965899706">
        <ele>330.82999999999998</ele>
        <time>2012-10-18T07:52:31Z</time>
      </trkpt>
      <trkpt lat="46.014045998454094" lon="9.291714001446962">
        <ele>329.38999999999999</ele>
        <time>2012-10-18T07:52:49Z</time>
      </trkpt>
      <trkpt lat="46.014040801674128" lon="9.291698327288032">
        <ele>329.38999999999999</ele>
        <time>2012-10-18T07:52:52Z</time>
      </trkpt>
      <trkpt lat="46.014068964868784" lon="9.29152281023562">
        <ele>330.35000000000002</ele>
        <time>2012-10-18T07:53:06Z</time>
      </trkpt>
      <trkpt lat="46.014083633199334" lon="9.291283506900072">
        <ele>331.31</ele>
        <time>2012-10-18T07:53:24Z</time>
      </trkpt>
      <trkpt lat="46.014136020094156" lon="9.291092231869698">
        <ele>333.70999999999998</ele>
        <time>2012-10-18T07:53:43Z</time>
      </trkpt>
      <trkpt lat="46.014172062277794" lon="9.291035905480385">
        <ele>334.68000000000001</ele>
        <time>2012-10-18T07:53:49Z</time>
      </trkpt>
      <trkpt lat="46.014246242120862" lon="9.290883271023631">
        <ele>335.63999999999999</ele>
        <time>2012-10-18T07:54:09Z</time>
      </trkpt>
      <trkpt lat="46.014293013140559" lon="9.290775647386909">
        <ele>335.63999999999999</ele>
        <time>2012-10-18T07:54:26Z</time>
      </trkpt>
      <trkpt lat="46.014413880184293" lon="9.290657881647348">
        <ele>336.60000000000002</ele>
        <time>2012-10-18T07:54:41Z</time>
      </trkpt>
      <trkpt lat="46.01457741111517" lon="9.290569955483079">
        <ele>338.51999999999998</ele>
        <time>2012-10-18T07:54:57Z</time>
      </trkpt>
      <trkpt lat="46.014679837971926" lon="9.290463253855705">
        <ele>339.48000000000002</ele>
        <time>2012-10-18T07:55:10Z</time>
      </trkpt>
      <trkpt lat="46.014739517122507" lon="9.290321096777916">
        <ele>340.44</ele>
        <time>2012-10-18T07:55:30Z</time>
      </trkpt>
      <trkpt lat="46.014730632305145" lon="9.290308523923159">
        <ele>340.44</ele>
        <time>2012-10-18T07:55:35Z</time>
      </trkpt>
      <trkpt lat="46.01482710801065" lon="9.290218586102128">
        <ele>341.41000000000003</ele>
        <time>2012-10-18T07:55:43Z</time>
      </trkpt>
      <trkpt lat="46.014991058036685" lon="9.290151363238692">
        <ele>343.32999999999998</ele>
        <time>2012-10-18T07:55:59Z</time>
      </trkpt>
      <trkpt lat="46.015185182914138" lon="9.290128145366907">
        <ele>344.29000000000002</ele>
        <time>2012-10-18T07:56:17Z</time>
      </trkpt>
      <trkpt lat="46.015253495424986" lon="9.29020986892283">
        <ele>343.81</ele>
        <time>2012-10-18T07:56:24Z</time>
      </trkpt>
      <trkpt lat="46.015313928946853" lon="9.290437689051032">
        <ele>343.81</ele>
        <time>2012-10-18T07:56:41Z</time>
      </trkpt>
      <trkpt lat="46.015298422425985" lon="9.290623683482409">
        <ele>346.20999999999998</ele>
        <time>2012-10-18T07:56:58Z</time>
      </trkpt>
      <trkpt lat="46.01526053622365" lon="9.290798278525472">
        <ele>347.17000000000002</ele>
        <time>2012-10-18T07:57:13Z</time>
      </trkpt>
      <trkpt lat="46.015267912298441" lon="9.290825603529811">
        <ele>348.13</ele>
        <time>2012-10-18T07:57:17Z</time>
      </trkpt>
      <trkpt lat="46.015400430187583" lon="9.290877990424633">
        <ele>348.62</ele>
        <time>2012-10-18T07:57:31Z</time>
      </trkpt>
      <trkpt lat="46.015510652214289" lon="9.290905566886067">
        <ele>348.62</ele>
        <time>2012-10-18T07:57:49Z</time>
      </trkpt>
      <trkpt lat="46.015560440719128" lon="9.290918055921793">
        <ele>349.10000000000002</ele>
        <time>2012-10-18T07:58:02Z</time>
      </trkpt>
      <trkpt lat="46.015562871471047" lon="9.290922665968537">
        <ele>349.10000000000002</ele>
        <time>2012-10-18T07:58:25Z</time>
      </trkpt>
      <trkpt lat="46.01559086702764" lon="9.290946973487735">
        <ele>349.57999999999998</ele>
        <time>2012-10-18T07:58:48Z</time>
      </trkpt>
      <trkpt lat="46.01565632969141" lon="9.290991649031639">
        <ele>351.5</ele>
        <time>2012-10-18T07:59:07Z</time>
      </trkpt>
      <trkpt lat="46.015692204236984" lon="9.290969436988235">
        <ele>352.94</ele>
        <time>2012-10-18T07:59:15Z</time>
      </trkpt>
      <trkpt lat="46.015874342992902" lon="9.29064086638391">
        <ele>356.31</ele>
        <time>2012-10-18T07:59:38Z</time>
      </trkpt>
      <trkpt lat="46.016185227781534" lon="9.290589988231659">
        <ele>356.31</ele>
        <time>2012-10-18T07:59:57Z</time>
      </trkpt>
      <trkpt lat="46.016176678240299" lon="9.290592921897769">
        <ele>356.79000000000002</ele>
        <time>2012-10-18T08:00:29Z</time>
      </trkpt>
      <trkpt lat="46.016195369884372" lon="9.290645476430655">
        <ele>356.79000000000002</ele>
        <time>2012-10-18T08:00:55Z</time>
      </trkpt>
      <trkpt lat="46.016240129247308" lon="9.290617229416966">
        <ele>357.26999999999998</ele>
        <time>2012-10-18T08:01:14Z</time>
      </trkpt>
      <trkpt lat="46.016342472285032" lon="9.290626365691423">
        <ele>357.75</ele>
        <time>2012-10-18T08:01:30Z</time>
      </trkpt>
      <trkpt lat="46.0163838788867" lon="9.290562411770225">
        <ele>358.23000000000002</ele>
        <time>2012-10-18T08:01:44Z</time>
      </trkpt>
      <trkpt lat="46.016483791172504" lon="9.290474317967892">
        <ele>359.67000000000002</ele>
        <time>2012-10-18T08:01:58Z</time>
      </trkpt>
      <trkpt lat="46.016516815871" lon="9.290438862517476">
        <ele>361.11000000000001</ele>
        <time>2012-10-18T08:02:05Z</time>
      </trkpt>
      <trkpt lat="46.016611782833934" lon="9.290300896391273">
        <ele>361.11000000000001</ele>
        <time>2012-10-18T08:02:24Z</time>
      </trkpt>
      <trkpt lat="46.016716724261642" lon="9.290233170613647">
        <ele>364</ele>
        <time>2012-10-18T08:02:43Z</time>
      </trkpt>
      <trkpt lat="46.016831221058965" lon="9.290165780112147">
        <ele>366.88</ele>
        <time>2012-10-18T08:03:00Z</time>
      </trkpt>
      <trkpt lat="46.01695703342557" lon="9.290129402652383">
        <ele>369.27999999999997</ele>
        <time>2012-10-18T08:03:18Z</time>
      </trkpt>
      <trkpt lat="46.017048731446266" lon="9.290170976892114">
        <ele>370.73000000000002</ele>
        <time>2012-10-18T08:03:35Z</time>
      </trkpt>
      <trkpt lat="46.017197845503688" lon="9.290215903893113">
        <ele>373.61000000000001</ele>
        <time>2012-10-18T08:03:54Z</time>
      </trkpt>
      <trkpt lat="46.017284262925386" lon="9.290200062096119">
        <ele>376.97000000000003</ele>
        <time>2012-10-18T08:04:14Z</time>
      </trkpt>
      <trkpt lat="46.017422899603844" lon="9.290320342406631">
        <ele>378.42000000000002</ele>
        <time>2012-10-18T08:04:32Z</time>
      </trkpt>
      <trkpt lat="46.017621466889977" lon="9.290368119254708">
        <ele>379.38</ele>
        <time>2012-10-18T08:04:54Z</time>
      </trkpt>
      <trkpt lat="46.017812993377447" lon="9.290304835885763">
        <ele>381.30000000000001</ele>
        <time>2012-10-18T08:05:15Z</time>
      </trkpt>
      <trkpt lat="46.018023882061243" lon="9.290358060970902">
        <ele>384.66000000000003</ele>
        <time>2012-10-18T08:05:34Z</time>
      </trkpt>
      <trkpt lat="46.018033856526017" lon="9.290357055142522">
        <ele>384.18000000000001</ele>
        <time>2012-10-18T08:05:53Z</time>
      </trkpt>
      <trkpt lat="46.018158495426178" lon="9.290382452309132">
        <ele>383.22000000000003</ele>
        <time>2012-10-18T08:06:10Z</time>
      </trkpt>
      <trkpt lat="46.018157489597797" lon="9.29037013091147">
        <ele>382.74000000000001</ele>
        <time>2012-10-18T08:06:12Z</time>
      </trkpt>
      <trkpt lat="46.01827978156507" lon="9.290357306599617">
        <ele>382.25999999999999</ele>
        <time>2012-10-18T08:06:28Z</time>
      </trkpt>
      <trkpt lat="46.018364103510976" lon="9.290341464802623">
        <ele>381.30000000000001</ele>
        <time>2012-10-18T08:06:38Z</time>
      </trkpt>
      <trkpt lat="46.01850894279778" lon="9.290270637720823">
        <ele>379.38</ele>
        <time>2012-10-18T08:06:54Z</time>
      </trkpt>
      <trkpt lat="46.018602065742016" lon="9.29022110067308">
        <ele>378.89999999999998</ele>
        <time>2012-10-18T08:07:09Z</time>
      </trkpt>
      <trkpt lat="46.018597790971398" lon="9.290204420685768">
        <ele>379.38</ele>
        <time>2012-10-18T08:07:25Z</time>
      </trkpt>
      <trkpt lat="46.018609022721648" lon="9.290197296068072">
        <ele>378.89999999999998</ele>
        <time>2012-10-18T08:07:26Z</time>
      </trkpt>
      <trkpt lat="46.018756711855531" lon="9.290073243901134">
        <ele>377.94</ele>
        <time>2012-10-18T08:07:41Z</time>
      </trkpt>
      <trkpt lat="46.01888176985085" lon="9.289923124015331">
        <ele>377.44999999999999</ele>
        <time>2012-10-18T08:07:57Z</time>
      </trkpt>
      <trkpt lat="46.018995679914951" lon="9.289770992472768">
        <ele>376.49000000000001</ele>
        <time>2012-10-18T08:08:14Z</time>
      </trkpt>
      <trkpt lat="46.019040271639824" lon="9.289733106270433">
        <ele>376.97000000000003</ele>
        <time>2012-10-18T08:08:19Z</time>
      </trkpt>
      <trkpt lat="46.01916566491127" lon="9.289658926427364">
        <ele>377.94</ele>
        <time>2012-10-18T08:08:34Z</time>
      </trkpt>
      <trkpt lat="46.019203718751669" lon="9.289600839838386">
        <ele>379.38</ele>
        <time>2012-10-18T08:08:46Z</time>
      </trkpt>
      <trkpt lat="46.019280245527625" lon="9.289560187608004">
        <ele>380.33999999999997</ele>
        <time>2012-10-18T08:09:00Z</time>
      </trkpt>
      <trkpt lat="46.019330620765686" lon="9.289491372182965">
        <ele>378.42000000000002</ele>
        <time>2012-10-18T08:09:10Z</time>
      </trkpt>
      <trkpt lat="46.019384432584047" lon="9.289506040513516">
        <ele>379.38</ele>
        <time>2012-10-18T08:09:23Z</time>
      </trkpt>
      <trkpt lat="46.01949448697269" lon="9.289469076320529">
        <ele>380.81999999999999</ele>
        <time>2012-10-18T08:09:37Z</time>
      </trkpt>
      <trkpt lat="46.019572606310248" lon="9.289428256452084">
        <ele>381.30000000000001</ele>
        <time>2012-10-18T08:09:45Z</time>
      </trkpt>
      <trkpt lat="46.019681319594383" lon="9.289359021931887">
        <ele>383.69999999999999</ele>
        <time>2012-10-18T08:09:59Z</time>
      </trkpt>
      <trkpt lat="46.019758516922593" lon="9.289292553439736">
        <ele>385.14999999999998</ele>
        <time>2012-10-18T08:10:13Z</time>
      </trkpt>
      <trkpt lat="46.019812077283859" lon="9.289273358881474">
        <ele>385.63</ele>
        <time>2012-10-18T08:10:20Z</time>
      </trkpt>
      <trkpt lat="46.019851723685861" lon="9.28930738940835">
        <ele>386.11000000000001</ele>
        <time>2012-10-18T08:10:25Z</time>
      </trkpt>
      <trkpt lat="46.019900757819414" lon="9.289574269205332">
        <ele>387.55000000000001</ele>
        <time>2012-10-18T08:10:41Z</time>
      </trkpt>
      <trkpt lat="46.019897824153304" lon="9.289589021354914">
        <ele>388.02999999999997</ele>
        <time>2012-10-18T08:10:42Z</time>
      </trkpt>
      <trkpt lat="46.019880976527929" lon="9.289697064086795">
        <ele>388.99000000000001</ele>
        <time>2012-10-18T08:10:49Z</time>
      </trkpt>
      <trkpt lat="46.019915258511901" lon="9.289776273071766">
        <ele>389.47000000000003</ele>
        <time>2012-10-18T08:10:56Z</time>
      </trkpt>
      <trkpt lat="46.019997149705887" lon="9.289657082408667">
        <ele>391.38999999999999</ele>
        <time>2012-10-18T08:11:10Z</time>
      </trkpt>
      <trkpt lat="46.019994802772999" lon="9.289627829566598">
        <ele>391.87</ele>
        <time>2012-10-18T08:11:12Z</time>
      </trkpt>
      <trkpt lat="46.020008213818073" lon="9.289604192599654">
        <ele>392.36000000000001</ele>
        <time>2012-10-18T08:11:14Z</time>
      </trkpt>
      <trkpt lat="46.020053559914231" lon="9.289440074935556">
        <ele>393.31999999999999</ele>
        <time>2012-10-18T08:11:27Z</time>
      </trkpt>
      <trkpt lat="46.02014634758234" lon="9.289249805733562">
        <ele>395.24000000000001</ele>
        <time>2012-10-18T08:11:42Z</time>
      </trkpt>
      <trkpt lat="46.020227735862136" lon="9.289061045274139">
        <ele>397.16000000000003</ele>
        <time>2012-10-18T08:11:59Z</time>
      </trkpt>
      <trkpt lat="46.020179120823741" lon="9.289060542359948">
        <ele>397.16000000000003</ele>
        <time>2012-10-18T08:12:13Z</time>
      </trkpt>
      <trkpt lat="46.020312895998359" lon="9.289025338366628">
        <ele>398.12</ele>
        <time>2012-10-18T08:12:27Z</time>
      </trkpt>
      <trkpt lat="46.02032907307148" lon="9.289030954241753">
        <ele>398.12</ele>
        <time>2012-10-18T08:12:29Z</time>
      </trkpt>
      <trkpt lat="46.020346507430077" lon="9.289035145193338">
        <ele>398.12</ele>
        <time>2012-10-18T08:12:31Z</time>
      </trkpt>
      <trkpt lat="46.020542057231069" lon="9.28904989734292">
        <ele>399.07999999999998</ele>
        <time>2012-10-18T08:12:49Z</time>
      </trkpt>
      <trkpt lat="46.020751101896167" lon="9.289109241217375">
        <ele>399.07999999999998</ele>
        <time>2012-10-18T08:13:05Z</time>
      </trkpt>
      <trkpt lat="46.020964169874787" lon="9.289160873740912">
        <ele>400.05000000000001</ele>
        <time>2012-10-18T08:13:22Z</time>
      </trkpt>
      <trkpt lat="46.021160474047065" lon="9.289196161553264">
        <ele>401.00999999999999</ele>
        <time>2012-10-18T08:13:39Z</time>
      </trkpt>
      <trkpt lat="46.021323837339878" lon="9.28922625258565">
        <ele>401.97000000000003</ele>
        <time>2012-10-18T08:13:54Z</time>
      </trkpt>
      <trkpt lat="46.021357784047723" lon="9.28922139108181">
        <ele>402.44999999999999</ele>
        <time>2012-10-18T08:13:58Z</time>
      </trkpt>
      <trkpt lat="46.021431293338537" lon="9.289241088554263">
        <ele>402.93000000000001</ele>
        <time>2012-10-18T08:14:06Z</time>
      </trkpt>
      <trkpt lat="46.021609744057059" lon="9.28927662782371">
        <ele>404.37</ele>
        <time>2012-10-18T08:14:23Z</time>
      </trkpt>
      <trkpt lat="46.021740920841694" lon="9.289289368316531">
        <ele>406.29000000000002</ele>
        <time>2012-10-18T08:14:38Z</time>
      </trkpt>
      <trkpt lat="46.021879306063056" lon="9.289331613108516">
        <ele>407.25999999999999</ele>
        <time>2012-10-18T08:14:46Z</time>
      </trkpt>
      <trkpt lat="46.022071670740843" lon="9.289381988346577">
        <ele>409.18000000000001</ele>
        <time>2012-10-18T08:15:04Z</time>
      </trkpt>
      <trkpt lat="46.022259257733822" lon="9.289409313350916">
        <ele>411.10000000000002</ele>
        <time>2012-10-18T08:15:25Z</time>
      </trkpt>
      <trkpt lat="46.022430332377553" lon="9.289458096027374">
        <ele>412.54000000000002</ele>
        <time>2012-10-18T08:15:42Z</time>
      </trkpt>
      <trkpt lat="46.022555306553841" lon="9.289485169574618">
        <ele>413.5</ele>
        <time>2012-10-18T08:15:54Z</time>
      </trkpt>
      <trkpt lat="46.022598473355174" lon="9.289498412981629">
        <ele>413.5</ele>
        <time>2012-10-18T08:15:58Z</time>
      </trkpt>
      <trkpt lat="46.022767284885049" lon="9.289543759077787">
        <ele>414.47000000000003</ele>
        <time>2012-10-18T08:16:13Z</time>
      </trkpt>
      <trkpt lat="46.022960068657994" lon="9.289515009149909">
        <ele>416.87</ele>
        <time>2012-10-18T08:16:31Z</time>
      </trkpt>
      <trkpt lat="46.023094011470675" lon="9.289552979171276">
        <ele>417.35000000000002</ele>
        <time>2012-10-18T08:16:41Z</time>
      </trkpt>
      <trkpt lat="46.023264667019248" lon="9.289651298895478">
        <ele>417.35000000000002</ele>
        <time>2012-10-18T08:16:58Z</time>
      </trkpt>
      <trkpt lat="46.023448314517736" lon="9.289710642769933">
        <ele>416.87</ele>
        <time>2012-10-18T08:17:16Z</time>
      </trkpt>
      <trkpt lat="46.023629112169147" lon="9.289759425446391">
        <ele>415.91000000000003</ele>
        <time>2012-10-18T08:17:33Z</time>
      </trkpt>
      <trkpt lat="46.023729275912046" lon="9.289758168160915">
        <ele>415.43000000000001</ele>
        <time>2012-10-18T08:17:49Z</time>
      </trkpt>
      <trkpt lat="46.023750985041261" lon="9.289799323305488">
        <ele>415.43000000000001</ele>
        <time>2012-10-18T08:18:08Z</time>
      </trkpt>
      <trkpt lat="46.023754589259624" lon="9.289778033271432">
        <ele>415.43000000000001</ele>
        <time>2012-10-18T08:18:36Z</time>
      </trkpt>
      <trkpt lat="46.023754170164466" lon="9.289800245314837">
        <ele>415.43000000000001</ele>
        <time>2012-10-18T08:19:03Z</time>
      </trkpt>
      <trkpt lat="46.023757020011544" lon="9.289807034656405">
        <ele>414.94999999999999</ele>
        <time>2012-10-18T08:19:24Z</time>
      </trkpt>
      <trkpt lat="46.023771185427904" lon="9.289799155667424">
        <ele>415.43000000000001</ele>
        <time>2012-10-18T08:19:37Z</time>
      </trkpt>
      <trkpt lat="46.02379834279418" lon="9.289815835654736">
        <ele>414.47000000000003</ele>
        <time>2012-10-18T08:19:49Z</time>
      </trkpt>
      <trkpt lat="46.023828098550439" lon="9.289901331067085">
        <ele>413.98000000000002</ele>
        <time>2012-10-18T08:20:03Z</time>
      </trkpt>
      <trkpt lat="46.023831199854612" lon="9.289938630536199">
        <ele>413.98000000000002</ele>
        <time>2012-10-18T08:20:06Z</time>
      </trkpt>
      <trkpt lat="46.023841090500355" lon="9.28997584618628">
        <ele>413.98000000000002</ele>
        <time>2012-10-18T08:20:09Z</time>
      </trkpt>
      <trkpt lat="46.023818291723728" lon="9.290116410702467">
        <ele>412.54000000000002</ele>
        <time>2012-10-18T08:20:23Z</time>
      </trkpt>
      <trkpt lat="46.023824829608202" lon="9.290086487308145">
        <ele>413.01999999999998</ele>
        <time>2012-10-18T08:20:32Z</time>
      </trkpt>
      <trkpt lat="46.023806976154447" lon="9.290113225579262">
        <ele>412.54000000000002</ele>
        <time>2012-10-18T08:20:51Z</time>
      </trkpt>
      <trkpt lat="46.02379834279418" lon="9.290148848667741">
        <ele>412.54000000000002</ele>
        <time>2012-10-18T08:20:54Z</time>
      </trkpt>
      <trkpt lat="46.023783590644598" lon="9.290177011862397">
        <ele>412.54000000000002</ele>
        <time>2012-10-18T08:20:56Z</time>
      </trkpt>
      <trkpt lat="46.023728018626571" lon="9.290454788133502">
        <ele>410.62</ele>
        <time>2012-10-18T08:21:14Z</time>
      </trkpt>
      <trkpt lat="46.023659287020564" lon="9.290722087025642">
        <ele>408.69999999999999</ele>
        <time>2012-10-18T08:21:33Z</time>
      </trkpt>
      <trkpt lat="46.023670602589846" lon="9.291080581024289">
        <ele>405.81</ele>
        <time>2012-10-18T08:21:54Z</time>
      </trkpt>
      <trkpt lat="46.02367864921689" lon="9.291177894920111">
        <ele>404.85000000000002</ele>
        <time>2012-10-18T08:22:00Z</time>
      </trkpt>
      <trkpt lat="46.023738076910377" lon="9.291413258761168">
        <ele>402.93000000000001</ele>
        <time>2012-10-18T08:22:12Z</time>
      </trkpt>
      <trkpt lat="46.023745201528072" lon="9.291447456926107">
        <ele>402.44999999999999</ele>
        <time>2012-10-18T08:22:14Z</time>
      </trkpt>
      <trkpt lat="46.023852741345763" lon="9.291707212105393">
        <ele>401.49000000000001</ele>
        <time>2012-10-18T08:22:30Z</time>
      </trkpt>
      <trkpt lat="46.023933542892337" lon="9.291992615908384">
        <ele>399.56999999999999</ele>
        <time>2012-10-18T08:22:47Z</time>
      </trkpt>
      <trkpt lat="46.023954246193171" lon="9.292087499052286">
        <ele>399.07999999999998</ele>
        <time>2012-10-18T08:22:53Z</time>
      </trkpt>
      <trkpt lat="46.024064887315035" lon="9.292287407442927">
        <ele>399.56999999999999</ele>
        <time>2012-10-18T08:23:08Z</time>
      </trkpt>
      <trkpt lat="46.024070922285318" lon="9.292286988347769">
        <ele>400.05000000000001</ele>
        <time>2012-10-18T08:23:09Z</time>
      </trkpt>
      <trkpt lat="46.02412766776979" lon="9.292343985289335">
        <ele>400.05000000000001</ele>
        <time>2012-10-18T08:23:24Z</time>
      </trkpt>
      <trkpt lat="46.024149293079972" lon="9.292339207604528">
        <ele>400.05000000000001</ele>
        <time>2012-10-18T08:23:45Z</time>
      </trkpt>
      <trkpt lat="46.024147281423211" lon="9.292340381070972">
        <ele>400.52999999999997</ele>
        <time>2012-10-18T08:24:01Z</time>
      </trkpt>
      <trkpt lat="46.024180389940739" lon="9.292490500956774">
        <ele>400.05000000000001</ele>
        <time>2012-10-18T08:24:16Z</time>
      </trkpt>
      <trkpt lat="46.024202601984143" lon="9.292645985260606">
        <ele>399.56999999999999</ele>
        <time>2012-10-18T08:24:28Z</time>
      </trkpt>
      <trkpt lat="46.024212324991822" lon="9.292745813727379">
        <ele>400.05000000000001</ele>
        <time>2012-10-18T08:24:36Z</time>
      </trkpt>
      <trkpt lat="46.024341573938727" lon="9.292962737381458">
        <ele>400.05000000000001</ele>
        <time>2012-10-18T08:24:51Z</time>
      </trkpt>
      <trkpt lat="46.024381890892982" lon="9.29305418394506">
        <ele>399.07999999999998</ele>
        <time>2012-10-18T08:25:03Z</time>
      </trkpt>
      <trkpt lat="46.024509966373444" lon="9.293196508660913">
        <ele>399.07999999999998</ele>
        <time>2012-10-18T08:25:17Z</time>
      </trkpt>
      <trkpt lat="46.024584146216512" lon="9.293250907212496">
        <ele>398.60000000000002</ele>
        <time>2012-10-18T08:25:26Z</time>
      </trkpt>
      <trkpt lat="46.024684477597475" lon="9.29328971542418">
        <ele>398.12</ele>
        <time>2012-10-18T08:25:38Z</time>
      </trkpt>
      <trkpt lat="46.024800818413496" lon="9.293334810063243">
        <ele>398.12</ele>
        <time>2012-10-18T08:25:54Z</time>
      </trkpt>
      <trkpt lat="46.024898467585444" lon="9.29345240816474">
        <ele>398.60000000000002</ele>
        <time>2012-10-18T08:26:05Z</time>
      </trkpt>
      <trkpt lat="46.025071637704968" lon="9.293574281036854">
        <ele>396.68000000000001</ele>
        <time>2012-10-18T08:26:20Z</time>
      </trkpt>
      <trkpt lat="46.025147074833512" lon="9.293650640174747">
        <ele>395.24000000000001</ele>
        <time>2012-10-18T08:26:31Z</time>
      </trkpt>
      <trkpt lat="46.025167694315314" lon="9.293658938258886">
        <ele>394.27999999999997</ele>
        <time>2012-10-18T08:26:34Z</time>
      </trkpt>
      <trkpt lat="46.025264086201787" lon="9.293706547468901">
        <ele>392.83999999999997</ele>
        <time>2012-10-18T08:26:44Z</time>
      </trkpt>
      <trkpt lat="46.025277748703957" lon="9.293720796704292">
        <ele>392.36000000000001</ele>
        <time>2012-10-18T08:26:46Z</time>
      </trkpt>
      <trkpt lat="46.025397274643183" lon="9.293792629614472">
        <ele>390.91000000000003</ele>
        <time>2012-10-18T08:27:00Z</time>
      </trkpt>
      <trkpt lat="46.025505736470222" lon="9.29385649971664">
        <ele>390.43000000000001</ele>
        <time>2012-10-18T08:27:11Z</time>
      </trkpt>
      <trkpt lat="46.025697849690914" lon="9.293985161930323">
        <ele>389.94999999999999</ele>
        <time>2012-10-18T08:27:29Z</time>
      </trkpt>
      <trkpt lat="46.025847299024463" lon="9.294086834415793">
        <ele>389.47000000000003</ele>
        <time>2012-10-18T08:27:44Z</time>
      </trkpt>
      <trkpt lat="46.025998676195741" lon="9.294191189110279">
        <ele>387.55000000000001</ele>
        <time>2012-10-18T08:27:57Z</time>
      </trkpt>
      <trkpt lat="46.026076124981046" lon="9.294299064204097">
        <ele>386.11000000000001</ele>
        <time>2012-10-18T08:28:12Z</time>
      </trkpt>
      <trkpt lat="46.026206212118268" lon="9.29438229650259">
        <ele>382.74000000000001</ele>
        <time>2012-10-18T08:28:27Z</time>
      </trkpt>
      <trkpt lat="46.026258850470185" lon="9.294450860470533">
        <ele>380.81999999999999</ele>
        <time>2012-10-18T08:28:35Z</time>
      </trkpt>
      <trkpt lat="46.026264717802405" lon="9.294504085555673">
        <ele>380.33999999999997</ele>
        <time>2012-10-18T08:28:39Z</time>
      </trkpt>
      <trkpt lat="46.026281649246812" lon="9.294582204893231">
        <ele>382.25999999999999</ele>
        <time>2012-10-18T08:28:50Z</time>
      </trkpt>
      <trkpt lat="46.026398660615087" lon="9.294474497437477">
        <ele>381.77999999999997</ele>
        <time>2012-10-18T08:29:05Z</time>
      </trkpt>
      <trkpt lat="46.026443084701896" lon="9.294393863528967">
        <ele>382.74000000000001</ele>
        <time>2012-10-18T08:29:16Z</time>
      </trkpt>
      <trkpt lat="46.026600077748299" lon="9.294417751953006">
        <ele>383.22000000000003</ele>
        <time>2012-10-18T08:29:30Z</time>
      </trkpt>
      <trkpt lat="46.026651039719582" lon="9.294402580708265">
        <ele>385.14999999999998</ele>
        <time>2012-10-18T08:29:42Z</time>
      </trkpt>
      <trkpt lat="46.026769811287522" lon="9.294390343129635">
        <ele>385.63</ele>
        <time>2012-10-18T08:29:55Z</time>
      </trkpt>
      <trkpt lat="46.026771236211061" lon="9.294377099722624">
        <ele>386.11000000000001</ele>
        <time>2012-10-18T08:30:11Z</time>
      </trkpt>
      <trkpt lat="46.026889504864812" lon="9.294240977615118">
        <ele>383.69999999999999</ele>
        <time>2012-10-18T08:30:27Z</time>
      </trkpt>
      <trkpt lat="46.027024788782001" lon="9.294027239084244">
        <ele>383.22000000000003</ele>
        <time>2012-10-18T08:30:45Z</time>
      </trkpt>
      <trkpt lat="46.027067117393017" lon="9.29396403953433">
        <ele>383.69999999999999</ele>
        <time>2012-10-18T08:30:51Z</time>
      </trkpt>
      <trkpt lat="46.027196701616049" lon="9.293823391199112">
        <ele>386.11000000000001</ele>
        <time>2012-10-18T08:31:09Z</time>
      </trkpt>
      <trkpt lat="46.027259984984994" lon="9.293730603531003">
        <ele>387.55000000000001</ele>
        <time>2012-10-18T08:31:23Z</time>
      </trkpt>
      <trkpt lat="46.027340367436409" lon="9.293615017086268">
        <ele>388.02999999999997</ele>
        <time>2012-10-18T08:31:38Z</time>
      </trkpt>
      <trkpt lat="46.027438687160611" lon="9.293413264676929">
        <ele>388.02999999999997</ele>
        <time>2012-10-18T08:31:55Z</time>
      </trkpt>
      <trkpt lat="46.027581933885813" lon="9.293354423716664">
        <ele>388.50999999999999</ele>
        <time>2012-10-18T08:32:14Z</time>
      </trkpt>
      <trkpt lat="46.027662232518196" lon="9.293467914685607">
        <ele>385.14999999999998</ele>
        <time>2012-10-18T08:32:27Z</time>
      </trkpt>
      <trkpt lat="46.027768012136221" lon="9.29349297657609">
        <ele>382.25999999999999</ele>
        <time>2012-10-18T08:32:45Z</time>
      </trkpt>
      <trkpt lat="46.027936907485127" lon="9.293589368462563">
        <ele>379.38</ele>
        <time>2012-10-18T08:33:02Z</time>
      </trkpt>
      <trkpt lat="46.028090883046389" lon="9.293556427583098">
        <ele>376.49000000000001</ele>
        <time>2012-10-18T08:33:23Z</time>
      </trkpt>
      <trkpt lat="46.028238739818335" lon="9.293522480875254">
        <ele>374.08999999999997</ele>
        <time>2012-10-18T08:33:37Z</time>
      </trkpt>
      <trkpt lat="46.02838022634387" lon="9.293509908020496">
        <ele>371.69</ele>
        <time>2012-10-18T08:33:51Z</time>
      </trkpt>
      <trkpt lat="46.028516432270408" lon="9.293464981019497">
        <ele>368.80000000000001</ele>
        <time>2012-10-18T08:34:07Z</time>
      </trkpt>
      <trkpt lat="46.028648866340518" lon="9.293511584401131">
        <ele>366.39999999999998</ele>
        <time>2012-10-18T08:34:21Z</time>
      </trkpt>
      <trkpt lat="46.028738468885422" lon="9.293566066771746">
        <ele>364.95999999999998</ele>
        <time>2012-10-18T08:34:30Z</time>
      </trkpt>
      <trkpt lat="46.028868304565549" lon="9.293695567175746">
        <ele>363.04000000000002</ele>
        <time>2012-10-18T08:34:44Z</time>
      </trkpt>
      <trkpt lat="46.028978610411286" lon="9.293822050094605">
        <ele>361.58999999999997</ele>
        <time>2012-10-18T08:34:57Z</time>
      </trkpt>
      <trkpt lat="46.029130406677723" lon="9.294002596288919">
        <ele>361.11000000000001</ele>
        <time>2012-10-18T08:35:11Z</time>
      </trkpt>
      <trkpt lat="46.029227385297418" lon="9.294093791395426">
        <ele>360.63</ele>
        <time>2012-10-18T08:35:23Z</time>
      </trkpt>
      <trkpt lat="46.029369374737144" lon="9.294113153591752">
        <ele>360.63</ele>
        <time>2012-10-18T08:35:37Z</time>
      </trkpt>
      <trkpt lat="46.029424862936139" lon="9.294151877984405">
        <ele>360.14999999999998</ele>
        <time>2012-10-18T08:35:51Z</time>
      </trkpt>
      <trkpt lat="46.029410697519779" lon="9.294159086421132">
        <ele>360.63</ele>
        <time>2012-10-18T08:36:03Z</time>
      </trkpt>
      <trkpt lat="46.02944984100759" lon="9.294126983731985">
        <ele>360.14999999999998</ele>
        <time>2012-10-18T08:36:27Z</time>
      </trkpt>
      <trkpt lat="46.029452187940478" lon="9.294139975681901">
        <ele>360.14999999999998</ele>
        <time>2012-10-18T08:36:36Z</time>
      </trkpt>
      <trkpt lat="46.02943860925734" lon="9.29428112693131">
        <ele>360.63</ele>
        <time>2012-10-18T08:36:59Z</time>
      </trkpt>
      <trkpt lat="46.029478088021278" lon="9.294289676472545">
        <ele>359.19</ele>
        <time>2012-10-18T08:37:16Z</time>
      </trkpt>
      <trkpt lat="46.029543215408921" lon="9.294217927381396">
        <ele>356.31</ele>
        <time>2012-10-18T08:37:31Z</time>
      </trkpt>
      <trkpt lat="46.029623514041305" lon="9.294146932661533">
        <ele>353.42000000000002</ele>
        <time>2012-10-18T08:37:43Z</time>
      </trkpt>
      <trkpt lat="46.02963357232511" lon="9.294143244624138">
        <ele>352.94</ele>
        <time>2012-10-18T08:37:44Z</time>
      </trkpt>
      <trkpt lat="46.029758965596557" lon="9.294141149148345">
        <ele>351.5</ele>
        <time>2012-10-18T08:37:57Z</time>
      </trkpt>
      <trkpt lat="46.029778914526105" lon="9.294163947924972">
        <ele>350.54000000000002</ele>
        <time>2012-10-18T08:38:06Z</time>
      </trkpt>
      <trkpt lat="46.029830630868673" lon="9.294182471930981">
        <ele>350.54000000000002</ele>
        <time>2012-10-18T08:38:29Z</time>
      </trkpt>
      <trkpt lat="46.029804479330778" lon="9.294182388111949">
        <ele>350.54000000000002</ele>
        <time>2012-10-18T08:38:45Z</time>
      </trkpt>
      <trkpt lat="46.029803557321429" lon="9.294194122776389">
        <ele>350.54000000000002</ele>
        <time>2012-10-18T08:38:57Z</time>
      </trkpt>
      <trkpt lat="46.029804311692715" lon="9.294187165796757">
        <ele>351.01999999999998</ele>
        <time>2012-10-18T08:39:16Z</time>
      </trkpt>
      <trkpt lat="46.029723845422268" lon="9.294189345091581">
        <ele>351.98000000000002</ele>
        <time>2012-10-18T08:39:30Z</time>
      </trkpt>
      <trkpt lat="46.029677242040634" lon="9.29421910084784">
        <ele>352.94</ele>
        <time>2012-10-18T08:39:41Z</time>
      </trkpt>
      <trkpt lat="46.029611025005579" lon="9.294252125546336">
        <ele>354.38</ele>
        <time>2012-10-18T08:39:55Z</time>
      </trkpt>
      <trkpt lat="46.029514716938138" lon="9.294293951243162">
        <ele>356.79000000000002</ele>
        <time>2012-10-18T08:40:10Z</time>
      </trkpt>
      <trkpt lat="46.029444392770529" lon="9.29428942501545">
        <ele>359.19</ele>
        <time>2012-10-18T08:40:25Z</time>
      </trkpt>
      <trkpt lat="46.029409356415272" lon="9.294312475249171">
        <ele>359.19</ele>
        <time>2012-10-18T08:40:29Z</time>
      </trkpt>
      <trkpt lat="46.029408937320113" lon="9.29450836032629">
        <ele>357.26999999999998</ele>
        <time>2012-10-18T08:40:48Z</time>
      </trkpt>
      <trkpt lat="46.02943466976285" lon="9.29452596232295">
        <ele>357.26999999999998</ele>
        <time>2012-10-18T08:40:52Z</time>
      </trkpt>
      <trkpt lat="46.029496276751161" lon="9.294547503814101">
        <ele>357.26999999999998</ele>
        <time>2012-10-18T08:40:58Z</time>
      </trkpt>
      <trkpt lat="46.029698364436626" lon="9.29466225206852">
        <ele>355.82999999999998</ele>
        <time>2012-10-18T08:41:15Z</time>
      </trkpt>
      <trkpt lat="46.029838426038623" lon="9.294827627018094">
        <ele>355.33999999999997</ele>
        <time>2012-10-18T08:41:30Z</time>
      </trkpt>
      <trkpt lat="46.02987639605999" lon="9.294946230947971">
        <ele>353.89999999999998</ele>
        <time>2012-10-18T08:41:41Z</time>
      </trkpt>
      <trkpt lat="46.029942026361823" lon="9.295070031657815">
        <ele>350.54000000000002</ele>
        <time>2012-10-18T08:41:55Z</time>
      </trkpt>
      <trkpt lat="46.030004303902388" lon="9.295162400230765">
        <ele>349.10000000000002</ele>
        <time>2012-10-18T08:42:09Z</time>
      </trkpt>
      <trkpt lat="46.030022408813238" lon="9.295194167643786">
        <ele>349.10000000000002</ele>
        <time>2012-10-18T08:42:13Z</time>
      </trkpt>
      <trkpt lat="46.030043447390199" lon="9.29521981626749">
        <ele>348.62</ele>
        <time>2012-10-18T08:42:16Z</time>
      </trkpt>
      <trkpt lat="46.030065743252635" lon="9.295243117958307">
        <ele>348.62</ele>
        <time>2012-10-18T08:42:19Z</time>
      </trkpt>
      <trkpt lat="46.030076555907726" lon="9.295318052172661">
        <ele>348.62</ele>
        <time>2012-10-18T08:42:28Z</time>
      </trkpt>
      <trkpt lat="46.030088039115071" lon="9.295332804322243">
        <ele>348.62</ele>
        <time>2012-10-18T08:42:30Z</time>
      </trkpt>
      <trkpt lat="46.030265400186181" lon="9.295436153188348">
        <ele>347.17000000000002</ele>
        <time>2012-10-18T08:42:47Z</time>
      </trkpt>
      <trkpt lat="46.030314434319735" lon="9.295468339696527">
        <ele>347.17000000000002</ele>
        <time>2012-10-18T08:42:54Z</time>
      </trkpt>
      <trkpt lat="46.030465643852949" lon="9.29556917399168">
        <ele>347.17000000000002</ele>
        <time>2012-10-18T08:43:09Z</time>
      </trkpt>
      <trkpt lat="46.030470756813884" lon="9.295582082122564">
        <ele>347.17000000000002</ele>
        <time>2012-10-18T08:43:10Z</time>
      </trkpt>
      <trkpt lat="46.030529765412211" lon="9.295734213665128">
        <ele>347.64999999999998</ele>
        <time>2012-10-18T08:43:22Z</time>
      </trkpt>
      <trkpt lat="46.030597155913711" lon="9.29582616314292">
        <ele>346.69</ele>
        <time>2012-10-18T08:43:33Z</time>
      </trkpt>
      <trkpt lat="46.030731601640582" lon="9.295838735997677">
        <ele>343.32999999999998</ele>
        <time>2012-10-18T08:43:51Z</time>
      </trkpt>
      <trkpt lat="46.030905777588487" lon="9.295932026579976">
        <ele>340.92000000000002</ele>
        <time>2012-10-18T08:44:09Z</time>
      </trkpt>
      <trkpt lat="46.031045503914356" lon="9.296076027676463">
        <ele>339.95999999999998</ele>
        <time>2012-10-18T08:44:26Z</time>
      </trkpt>
      <trkpt lat="46.03114633820951" lon="9.296042248606682">
        <ele>339</ele>
        <time>2012-10-18T08:44:37Z</time>
      </trkpt>
      <trkpt lat="46.031296458095312" lon="9.296005954965949">
        <ele>337.56</ele>
        <time>2012-10-18T08:44:50Z</time>
      </trkpt>
      <trkpt lat="46.031502317637205" lon="9.296094048768282">
        <ele>337.07999999999998</ele>
        <time>2012-10-18T08:45:04Z</time>
      </trkpt>
      <trkpt lat="46.03168923407793" lon="9.296270068734884">
        <ele>337.56</ele>
        <time>2012-10-18T08:45:22Z</time>
      </trkpt>
      <trkpt lat="46.031810268759727" lon="9.296418260782957">
        <ele>337.56</ele>
        <time>2012-10-18T08:45:37Z</time>
      </trkpt>
      <trkpt lat="46.03190422989428" lon="9.296527393162251">
        <ele>339.95999999999998</ele>
        <time>2012-10-18T08:45:52Z</time>
      </trkpt>
      <trkpt lat="46.031947312876582" lon="9.296643063426018">
        <ele>341.88999999999999</ele>
        <time>2012-10-18T08:46:04Z</time>
      </trkpt>
      <trkpt lat="46.031963741406798" lon="9.29666955024004">
        <ele>342.37</ele>
        <time>2012-10-18T08:46:07Z</time>
      </trkpt>
      <trkpt lat="46.032116124406457" lon="9.296859316527844">
        <ele>344.29000000000002</ele>
        <time>2012-10-18T08:46:27Z</time>
      </trkpt>
      <trkpt lat="46.032202960923314" lon="9.297055117785931">
        <ele>346.20999999999998</ele>
        <time>2012-10-18T08:46:43Z</time>
      </trkpt>
      <trkpt lat="46.032243277877569" lon="9.297101469710469">
        <ele>346.20999999999998</ele>
        <time>2012-10-18T08:46:47Z</time>
      </trkpt>
      <trkpt lat="46.032304046675563" lon="9.297277238219976">
        <ele>346.20999999999998</ele>
        <time>2012-10-18T08:47:00Z</time>
      </trkpt>
      <trkpt lat="46.032401779666543" lon="9.297513272613287">
        <ele>345.25</ele>
        <time>2012-10-18T08:47:17Z</time>
      </trkpt>
      <trkpt lat="46.032473109662533" lon="9.29770102724433">
        <ele>345.25</ele>
        <time>2012-10-18T08:47:30Z</time>
      </trkpt>
      <trkpt lat="46.032564304769039" lon="9.298001183196902">
        <ele>344.29000000000002</ele>
        <time>2012-10-18T08:47:49Z</time>
      </trkpt>
      <trkpt lat="46.032631108537316" lon="9.298194972798228">
        <ele>345.73000000000002</ele>
        <time>2012-10-18T08:48:04Z</time>
      </trkpt>
      <trkpt lat="46.032698666676879" lon="9.298203773796558">
        <ele>345.25</ele>
        <time>2012-10-18T08:48:17Z</time>
      </trkpt>
      <trkpt lat="46.03270604275167" lon="9.298202348873019">
        <ele>345.25</ele>
        <time>2012-10-18T08:48:18Z</time>
      </trkpt>
      <trkpt lat="46.032707216218114" lon="9.298294046893716">
        <ele>346.20999999999998</ele>
        <time>2012-10-18T08:48:30Z</time>
      </trkpt>
      <trkpt lat="46.032835962250829" lon="9.29837241768837">
        <ele>345.73000000000002</ele>
        <time>2012-10-18T08:48:42Z</time>
      </trkpt>
      <trkpt lat="46.032896731048822" lon="9.298374764621258">
        <ele>344.29000000000002</ele>
        <time>2012-10-18T08:48:47Z</time>
      </trkpt>
      <trkpt lat="46.033071409910917" lon="9.29843788035214">
        <ele>340.92000000000002</ele>
        <time>2012-10-18T08:49:03Z</time>
      </trkpt>
      <trkpt lat="46.033087335526943" lon="9.298448190093041">
        <ele>340.92000000000002</ele>
        <time>2012-10-18T08:49:05Z</time>
      </trkpt>
      <trkpt lat="46.033109547570348" lon="9.298497810959816">
        <ele>339.95999999999998</ele>
        <time>2012-10-18T08:49:09Z</time>
      </trkpt>
      <trkpt lat="46.033096136525273" lon="9.298729654401541">
        <ele>339.48000000000002</ele>
        <time>2012-10-18T08:49:23Z</time>
      </trkpt>
      <trkpt lat="46.033125976100564" lon="9.298866949975491">
        <ele>337.56</ele>
        <time>2012-10-18T08:49:37Z</time>
      </trkpt>
      <trkpt lat="46.033153720200062" lon="9.299046322703362">
        <ele>334.19999999999999</ele>
        <time>2012-10-18T08:49:50Z</time>
      </trkpt>
      <trkpt lat="46.033167717978358" lon="9.299072977155447">
        <ele>334.68000000000001</ele>
        <time>2012-10-18T08:49:53Z</time>
      </trkpt>
      <trkpt lat="46.033277437090874" lon="9.299175152555108">
        <ele>334.19999999999999</ele>
        <time>2012-10-18T08:50:06Z</time>
      </trkpt>
      <trkpt lat="46.033337870612741" lon="9.299212535843253">
        <ele>332.26999999999998</ele>
        <time>2012-10-18T08:50:13Z</time>
      </trkpt>
      <trkpt lat="46.033413056284189" lon="9.299283865839243">
        <ele>331.31</ele>
        <time>2012-10-18T08:50:18Z</time>
      </trkpt>
      <trkpt lat="46.033517494797707" lon="9.299432979896665">
        <ele>330.35000000000002</ele>
        <time>2012-10-18T08:50:31Z</time>
      </trkpt>
      <trkpt lat="46.03355479426682" lon="9.299484612420201">
        <ele>329.38999999999999</ele>
        <time>2012-10-18T08:50:39Z</time>
      </trkpt>
      <trkpt lat="46.033652778714895" lon="9.299646383151412">
        <ele>328.43000000000001</ele>
        <time>2012-10-18T08:50:55Z</time>
      </trkpt>
      <trkpt lat="46.033816728740931" lon="9.299610676243901">
        <ele>325.54000000000002</ele>
        <time>2012-10-18T08:51:12Z</time>
      </trkpt>
      <trkpt lat="46.033971877768636" lon="9.299713606014848">
        <ele>323.13999999999999</ele>
        <time>2012-10-18T08:51:28Z</time>
      </trkpt>
      <trkpt lat="46.034105233848095" lon="9.299872694537044">
        <ele>322.66000000000003</ele>
        <time>2012-10-18T08:51:44Z</time>
      </trkpt>
      <trkpt lat="46.034231381490827" lon="9.299974367022514">
        <ele>320.74000000000001</ele>
        <time>2012-10-18T08:51:59Z</time>
      </trkpt>
      <trkpt lat="46.034381333738565" lon="9.300008062273264">
        <ele>317.85000000000002</ele>
        <time>2012-10-18T08:52:14Z</time>
      </trkpt>
      <trkpt lat="46.034463895484805" lon="9.300109734758735">
        <ele>314.97000000000003</ele>
        <time>2012-10-18T08:52:29Z</time>
      </trkpt>
      <trkpt lat="46.034562718123198" lon="9.300191206857562">
        <ele>313.05000000000001</ele>
        <time>2012-10-18T08:52:43Z</time>
      </trkpt>
      <trkpt lat="46.03457554243505" lon="9.300202522426844">
        <ele>312.56999999999999</ele>
        <time>2012-10-18T08:52:45Z</time>
      </trkpt>
      <trkpt lat="46.034674448892474" lon="9.300278043374419">
        <ele>312.08999999999997</ele>
        <time>2012-10-18T08:52:59Z</time>
      </trkpt>
      <trkpt lat="46.034738989546895" lon="9.300348535180092">
        <ele>310.16000000000003</ele>
        <time>2012-10-18T08:53:13Z</time>
      </trkpt>
      <trkpt lat="46.034867819398642" lon="9.300371166318655">
        <ele>306.80000000000001</ele>
        <time>2012-10-18T08:53:27Z</time>
      </trkpt>
      <trkpt lat="46.034940993413329" lon="9.300394132733345">
        <ele>304.88</ele>
        <time>2012-10-18T08:53:39Z</time>
      </trkpt>
      <trkpt lat="46.035078205168247" lon="9.300482058897615">
        <ele>301.99000000000001</ele>
        <time>2012-10-18T08:53:56Z</time>
      </trkpt>
      <trkpt lat="46.035202341154218" lon="9.300598567351699">
        <ele>301.02999999999997</ele>
        <time>2012-10-18T08:54:12Z</time>
      </trkpt>
      <trkpt lat="46.03529429063201" lon="9.300651038065553">
        <ele>299.11000000000001</ele>
        <time>2012-10-18T08:54:27Z</time>
      </trkpt>
      <trkpt lat="46.035433262586594" lon="9.300709459930658">
        <ele>297.67000000000002</ele>
        <time>2012-10-18T08:54:41Z</time>
      </trkpt>
      <trkpt lat="46.035399567335844" lon="9.30076721124351">
        <ele>296.69999999999999</ele>
        <time>2012-10-18T08:55:00Z</time>
      </trkpt>
      <trkpt lat="46.035427143797278" lon="9.300742819905281">
        <ele>296.22000000000003</ele>
        <time>2012-10-18T08:55:26Z</time>
      </trkpt>
      <trkpt lat="46.035401662811637" lon="9.300778778269887">
        <ele>297.18000000000001</ele>
        <time>2012-10-18T08:55:51Z</time>
      </trkpt>
      <trkpt lat="46.035380959510803" lon="9.300768552348018">
        <ele>296.69999999999999</ele>
        <time>2012-10-18T08:56:12Z</time>
      </trkpt>
      <trkpt lat="46.035370733588934" lon="9.300762685015798">
        <ele>297.18000000000001</ele>
        <time>2012-10-18T08:56:26Z</time>
      </trkpt>
      <trkpt lat="46.035408368334174" lon="9.300773832947016">
        <ele>297.18000000000001</ele>
        <time>2012-10-18T08:56:38Z</time>
      </trkpt>
      <trkpt lat="46.035377271473408" lon="9.300802582874894">
        <ele>297.67000000000002</ele>
        <time>2012-10-18T08:56:54Z</time>
      </trkpt>
      <trkpt lat="46.035383390262723" lon="9.300766289234161">
        <ele>297.18000000000001</ele>
        <time>2012-10-18T08:57:07Z</time>
      </trkpt>
      <trkpt lat="46.035424042493105" lon="9.300847677513957">
        <ele>297.18000000000001</ele>
        <time>2012-10-18T08:57:28Z</time>
      </trkpt>
      <trkpt lat="46.035416498780251" lon="9.300837703049183">
        <ele>297.18000000000001</ele>
        <time>2012-10-18T08:57:56Z</time>
      </trkpt>
      <trkpt lat="46.035435944795609" lon="9.30080677382648">
        <ele>297.18000000000001</ele>
        <time>2012-10-18T08:58:22Z</time>
      </trkpt>
      <trkpt lat="46.035399399697781" lon="9.300815993919969">
        <ele>297.67000000000002</ele>
        <time>2012-10-18T08:58:47Z</time>
      </trkpt>
      <trkpt lat="46.03541306219995" lon="9.300916828215122">
        <ele>297.67000000000002</ele>
        <time>2012-10-18T08:59:22Z</time>
      </trkpt>
      <trkpt lat="46.035488750785589" lon="9.30071784183383">
        <ele>297.67000000000002</ele>
        <time>2012-10-18T08:59:55Z</time>
      </trkpt>
      <trkpt lat="46.035545663908124" lon="9.300779616460204">
        <ele>295.25999999999999</ele>
        <time>2012-10-18T09:00:09Z</time>
      </trkpt>
      <trkpt lat="46.035654461011291" lon="9.30090400390327">
        <ele>293.33999999999997</ele>
        <time>2012-10-18T09:00:22Z</time>
      </trkpt>
      <trkpt lat="46.035756804049015" lon="9.301070803776383">
        <ele>291.89999999999998</ele>
        <time>2012-10-18T09:00:39Z</time>
      </trkpt>
      <trkpt lat="46.035907175391912" lon="9.301180606707931">
        <ele>291.89999999999998</ele>
        <time>2012-10-18T09:00:56Z</time>
      </trkpt>
      <trkpt lat="46.035964507609606" lon="9.301218912005425">
        <ele>291.89999999999998</ele>
        <time>2012-10-18T09:01:03Z</time>
      </trkpt>
      <trkpt lat="46.036068527027965" lon="9.30120843462646">
        <ele>290.94</ele>
        <time>2012-10-18T09:01:17Z</time>
      </trkpt>
      <trkpt lat="46.036111023277044" lon="9.301206590607762">
        <ele>290.45999999999998</ele>
        <time>2012-10-18T09:01:21Z</time>
      </trkpt>
      <trkpt lat="46.036230465397239" lon="9.301215643063188">
        <ele>289.49000000000001</ele>
        <time>2012-10-18T09:01:39Z</time>
      </trkpt>
      <trkpt lat="46.036244295537472" lon="9.301240537315607">
        <ele>289.49000000000001</ele>
        <time>2012-10-18T09:01:58Z</time>
      </trkpt>
      <trkpt lat="46.036302298307419" lon="9.301284039393067">
        <ele>288.52999999999997</ele>
        <time>2012-10-18T09:02:11Z</time>
      </trkpt>
      <trkpt lat="46.036318726837635" lon="9.301307843998075">
        <ele>288.52999999999997</ele>
        <time>2012-10-18T09:02:16Z</time>
      </trkpt>
      <trkpt lat="46.036455435678363" lon="9.301441283896565">
        <ele>286.13</ele>
        <time>2012-10-18T09:02:34Z</time>
      </trkpt>
      <trkpt lat="46.036599520593882" lon="9.301562486216426">
        <ele>285.64999999999998</ele>
        <time>2012-10-18T09:02:50Z</time>
      </trkpt>
      <trkpt lat="46.036644447594881" lon="9.301595678552985">
        <ele>285.64999999999998</ele>
        <time>2012-10-18T09:03:01Z</time>
      </trkpt>
      <trkpt lat="46.036788616329432" lon="9.301632475107908">
        <ele>285.64999999999998</ele>
        <time>2012-10-18T09:03:16Z</time>
      </trkpt>
      <trkpt lat="46.036865897476673" lon="9.301712522283196">
        <ele>285.64999999999998</ele>
        <time>2012-10-18T09:03:27Z</time>
      </trkpt>
      <trkpt lat="46.036956086754799" lon="9.301860127598047">
        <ele>285.64999999999998</ele>
        <time>2012-10-18T09:03:41Z</time>
      </trkpt>
      <trkpt lat="46.036965390667319" lon="9.301871946081519">
        <ele>286.13</ele>
        <time>2012-10-18T09:03:42Z</time>
      </trkpt>
      <trkpt lat="46.037058345973492" lon="9.301998261362314">
        <ele>285.64999999999998</ele>
        <time>2012-10-18T09:03:57Z</time>
      </trkpt>
      <trkpt lat="46.037099668756127" lon="9.30204595439136">
        <ele>285.64999999999998</ele>
        <time>2012-10-18T09:04:12Z</time>
      </trkpt>
      <trkpt lat="46.037109643220901" lon="9.302069256082177">
        <ele>285.64999999999998</ele>
        <time>2012-10-18T09:04:20Z</time>
      </trkpt>
      <trkpt lat="46.037147780880332" lon="9.302202109247446">
        <ele>285.64999999999998</ele>
        <time>2012-10-18T09:04:39Z</time>
      </trkpt>
      <trkpt lat="46.03721952997148" lon="9.302325826138258">
        <ele>284.69</ele>
        <time>2012-10-18T09:04:54Z</time>
      </trkpt>
      <trkpt lat="46.037343917414546" lon="9.302426492795348">
        <ele>283.73000000000002</ele>
        <time>2012-10-18T09:05:09Z</time>
      </trkpt>
      <trkpt lat="46.037483979016542" lon="9.30252674035728">
        <ele>283.73000000000002</ele>
        <time>2012-10-18T09:05:26Z</time>
      </trkpt>
      <trkpt lat="46.037618424743414" lon="9.302651630714536">
        <ele>282.76999999999998</ele>
        <time>2012-10-18T09:05:42Z</time>
      </trkpt>
      <trkpt lat="46.037730826064944" lon="9.302875259891152">
        <ele>282.76999999999998</ele>
        <time>2012-10-18T09:05:59Z</time>
      </trkpt>
      <trkpt lat="46.037743985652924" lon="9.302918594330549">
        <ele>282.76999999999998</ele>
        <time>2012-10-18T09:06:02Z</time>
      </trkpt>
      <trkpt lat="46.037861499935389" lon="9.303100733086467">
        <ele>282.27999999999997</ele>
        <time>2012-10-18T09:06:18Z</time>
      </trkpt>
      <trkpt lat="46.037950264289975" lon="9.303221516311169">
        <ele>279.88</ele>
        <time>2012-10-18T09:06:31Z</time>
      </trkpt>
      <trkpt lat="46.038018828257918" lon="9.303286811336875">
        <ele>277.48000000000002</ele>
        <time>2012-10-18T09:06:40Z</time>
      </trkpt>
      <trkpt lat="46.038135588169098" lon="9.303300976753235">
        <ele>275.06999999999999</ele>
        <time>2012-10-18T09:06:55Z</time>
      </trkpt>
      <trkpt lat="46.038237009197474" lon="9.303240794688463">
        <ele>272.19</ele>
        <time>2012-10-18T09:07:08Z</time>
      </trkpt>
      <trkpt lat="46.038288222625852" lon="9.303231742233038">
        <ele>271.23000000000002</ele>
        <time>2012-10-18T09:07:13Z</time>
      </trkpt>
      <trkpt lat="46.038447730243206" lon="9.303265437483788">
        <ele>270.26999999999998</ele>
        <time>2012-10-18T09:07:28Z</time>
      </trkpt>
      <trkpt lat="46.038560718297958" lon="9.303300390020013">
        <ele>267.38</ele>
        <time>2012-10-18T09:07:41Z</time>
      </trkpt>
      <trkpt lat="46.038639843463898" lon="9.303335174918175">
        <ele>264.98000000000002</ele>
        <time>2012-10-18T09:07:54Z</time>
      </trkpt>
      <trkpt lat="46.038711592555046" lon="9.303351100534201">
        <ele>262.57999999999998</ele>
        <time>2012-10-18T09:08:02Z</time>
      </trkpt>
      <trkpt lat="46.038841595873237" lon="9.303400050848723">
        <ele>259.69</ele>
        <time>2012-10-18T09:08:16Z</time>
      </trkpt>
      <trkpt lat="46.038868920877576" lon="9.303408684208989">
        <ele>258.73000000000002</ele>
        <time>2012-10-18T09:08:19Z</time>
      </trkpt>
      <trkpt lat="46.038988782092929" lon="9.303522845730186">
        <ele>256.81</ele>
        <time>2012-10-18T09:08:34Z</time>
      </trkpt>
      <trkpt lat="46.039125071838498" lon="9.303606161847711">
        <ele>256.32999999999998</ele>
        <time>2012-10-18T09:08:48Z</time>
      </trkpt>
      <trkpt lat="46.039275359362364" lon="9.303662655875087">
        <ele>257.29000000000002</ele>
        <time>2012-10-18T09:09:03Z</time>
      </trkpt>
      <trkpt lat="46.039443835616112" lon="9.303698698058724">
        <ele>259.20999999999998</ele>
        <time>2012-10-18T09:09:20Z</time>
      </trkpt>
      <trkpt lat="46.039456324651837" lon="9.303710013628006">
        <ele>259.20999999999998</ele>
        <time>2012-10-18T09:09:22Z</time>
      </trkpt>
      <trkpt lat="46.039586663246155" lon="9.303862312808633">
        <ele>260.17000000000002</ele>
        <time>2012-10-18T09:09:37Z</time>
      </trkpt>
      <trkpt lat="46.039694789797068" lon="9.304005308076739">
        <ele>261.13999999999999</ele>
        <time>2012-10-18T09:09:52Z</time>
      </trkpt>
      <trkpt lat="46.039774753153324" lon="9.30410161614418">
        <ele>262.57999999999998</ele>
        <time>2012-10-18T09:10:04Z</time>
      </trkpt>
      <trkpt lat="46.039890171959996" lon="9.304162301123142">
        <ele>263.06</ele>
        <time>2012-10-18T09:10:22Z</time>
      </trkpt>
      <trkpt lat="46.039954461157322" lon="9.304194319993258">
        <ele>263.54000000000002</ele>
        <time>2012-10-18T09:10:38Z</time>
      </trkpt>
      <trkpt lat="46.040042471140623" lon="9.304238744080067">
        <ele>262.57999999999998</ele>
        <time>2012-10-18T09:10:50Z</time>
      </trkpt>
      <trkpt lat="46.040206672623754" lon="9.304270762950182">
        <ele>260.17000000000002</ele>
        <time>2012-10-18T09:11:05Z</time>
      </trkpt>
      <trkpt lat="46.04031739756465" lon="9.304284593090415">
        <ele>257.29000000000002</ele>
        <time>2012-10-18T09:11:18Z</time>
      </trkpt>
      <trkpt lat="46.040370371192694" lon="9.30429800413549">
        <ele>256.32999999999998</ele>
        <time>2012-10-18T09:11:32Z</time>
      </trkpt>
      <trkpt lat="46.040424350649118" lon="9.304280569776893">
        <ele>256.32999999999998</ele>
        <time>2012-10-18T09:11:46Z</time>
      </trkpt>
      <trkpt lat="46.040520323440433" lon="9.304318372160196">
        <ele>253.44</ele>
        <time>2012-10-18T09:11:59Z</time>
      </trkpt>
      <trkpt lat="46.040549324825406" lon="9.304358102381229">
        <ele>253.44</ele>
        <time>2012-10-18T09:12:04Z</time>
      </trkpt>
      <trkpt lat="46.040654014796019" lon="9.304490117356181">
        <ele>254.41</ele>
        <time>2012-10-18T09:12:19Z</time>
      </trkpt>
      <trkpt lat="46.040812097489834" lon="9.304588520899415">
        <ele>255.84999999999999</ele>
        <time>2012-10-18T09:12:36Z</time>
      </trkpt>
      <trkpt lat="46.040951237082481" lon="9.304697150364518">
        <ele>256.81</ele>
        <time>2012-10-18T09:12:50Z</time>
      </trkpt>
      <trkpt lat="46.04107235558331" lon="9.304797649383545">
        <ele>258.25</ele>
        <time>2012-10-18T09:13:04Z</time>
      </trkpt>
      <trkpt lat="46.041223900392652" lon="9.304939303547144">
        <ele>259.20999999999998</ele>
        <time>2012-10-18T09:13:20Z</time>
      </trkpt>
      <trkpt lat="46.041230773553252" lon="9.304967299103737">
        <ele>259.20999999999998</ele>
        <time>2012-10-18T09:13:22Z</time>
      </trkpt>
      <trkpt lat="46.041326578706503" lon="9.305043909698725">
        <ele>260.17000000000002</ele>
        <time>2012-10-18T09:13:36Z</time>
      </trkpt>
      <trkpt lat="46.041370751336217" lon="9.305102666839957">
        <ele>258.25</ele>
        <time>2012-10-18T09:13:50Z</time>
      </trkpt>
      <trkpt lat="46.041490528732538" lon="9.305121107026935">
        <ele>255.37</ele>
        <time>2012-10-18T09:14:05Z</time>
      </trkpt>
      <trkpt lat="46.041633104905486" lon="9.305194532498717">
        <ele>253.44</ele>
        <time>2012-10-18T09:14:19Z</time>
      </trkpt>
      <trkpt lat="46.041795546188951" lon="9.305205345153809">
        <ele>252.96000000000001</ele>
        <time>2012-10-18T09:14:34Z</time>
      </trkpt>
      <trkpt lat="46.041892692446709" lon="9.305217415094376">
        <ele>252.47999999999999</ele>
        <time>2012-10-18T09:14:46Z</time>
      </trkpt>
      <trkpt lat="46.042042309418321" lon="9.305224288254976">
        <ele>252</ele>
        <time>2012-10-18T09:15:02Z</time>
      </trkpt>
      <trkpt lat="46.042107352986932" lon="9.305218756198883">
        <ele>252</ele>
        <time>2012-10-18T09:15:10Z</time>
      </trkpt>
      <trkpt lat="46.042199051007628" lon="9.305226048454642">
        <ele>251.52000000000001</ele>
        <time>2012-10-18T09:15:19Z</time>
      </trkpt>
      <trkpt lat="46.042252276092768" lon="9.305268963798881">
        <ele>251.03999999999999</ele>
        <time>2012-10-18T09:15:25Z</time>
      </trkpt>
      <trkpt lat="46.042283875867724" lon="9.305352196097374">
        <ele>251.03999999999999</ele>
        <time>2012-10-18T09:15:39Z</time>
      </trkpt>
      <trkpt lat="46.042353278025985" lon="9.305412126705051">
        <ele>250.08000000000001</ele>
        <time>2012-10-18T09:15:52Z</time>
      </trkpt>
      <trkpt lat="46.042392924427986" lon="9.305434925481677">
        <ele>249.59999999999999</ele>
        <time>2012-10-18T09:16:04Z</time>
      </trkpt>
      <trkpt lat="46.042375741526484" lon="9.305472727864981">
        <ele>249.59999999999999</ele>
        <time>2012-10-18T09:16:20Z</time>
      </trkpt>
      <trkpt lat="46.042403569445014" lon="9.305432075634599">
        <ele>249.12</ele>
        <time>2012-10-18T09:16:32Z</time>
      </trkpt>
      <trkpt lat="46.042469786480069" lon="9.305388070642948">
        <ele>247.68000000000001</ele>
        <time>2012-10-18T09:16:48Z</time>
      </trkpt>
      <trkpt lat="46.04246492497623" lon="9.305359236896038">
        <ele>247.68000000000001</ele>
        <time>2012-10-18T09:17:02Z</time>
      </trkpt>
      <trkpt lat="46.042470121756196" lon="9.305334594100714">
        <ele>247.68000000000001</ele>
        <time>2012-10-18T09:17:14Z</time>
      </trkpt>
      <trkpt lat="46.04249618947506" lon="9.305281704291701">
        <ele>248.16</ele>
        <time>2012-10-18T09:17:29Z</time>
      </trkpt>
      <trkpt lat="46.042599286884069" lon="9.305238034576178">
        <ele>247.68000000000001</ele>
        <time>2012-10-18T09:17:44Z</time>
      </trkpt>
      <trkpt lat="46.042599035426974" lon="9.305236106738448">
        <ele>247.68000000000001</ele>
        <time>2012-10-18T09:17:46Z</time>
      </trkpt>
      <trkpt lat="46.042577493935823" lon="9.305165028199554">
        <ele>246.72</ele>
        <time>2012-10-18T09:17:53Z</time>
      </trkpt>
      <trkpt lat="46.042557880282402" lon="9.305142313241959">
        <ele>244.78999999999999</ele>
        <time>2012-10-18T09:17:58Z</time>
      </trkpt>
      <trkpt lat="46.042571794241667" lon="9.305174918845296">
        <ele>244.78999999999999</ele>
        <time>2012-10-18T09:18:14Z</time>
      </trkpt>
      <trkpt lat="46.042566010728478" lon="9.305201740935445">
        <ele>244.78999999999999</ele>
        <time>2012-10-18T09:18:27Z</time>
      </trkpt>
      <trkpt lat="46.042592329904437" lon="9.305244907736778">
        <ele>246.22999999999999</ele>
        <time>2012-10-18T09:18:41Z</time>
      </trkpt>
      <trkpt lat="46.042644716799259" lon="9.305226048454642">
        <ele>247.68000000000001</ele>
        <time>2012-10-18T09:18:57Z</time>
      </trkpt>
      <trkpt lat="46.042625354602933" lon="9.305258067324758">
        <ele>247.68000000000001</ele>
        <time>2012-10-18T09:19:16Z</time>
      </trkpt>
      <trkpt lat="46.042606076225638" lon="9.305271310731769">
        <ele>247.19999999999999</ele>
        <time>2012-10-18T09:19:21Z</time>
      </trkpt>
      <trkpt lat="46.042576152831316" lon="9.305274412035942">
        <ele>247.68000000000001</ele>
        <time>2012-10-18T09:19:36Z</time>
      </trkpt>
      <trkpt lat="46.042612195014954" lon="9.305249936878681">
        <ele>247.68000000000001</ele>
        <time>2012-10-18T09:19:49Z</time>
      </trkpt>
      <trkpt lat="46.042621666565537" lon="9.305286984890699">
        <ele>247.19999999999999</ele>
        <time>2012-10-18T09:20:15Z</time>
      </trkpt>
      <trkpt lat="46.042630216106772" lon="9.305260498076677">
        <ele>247.68000000000001</ele>
        <time>2012-10-18T09:20:42Z</time>
      </trkpt>
      <trkpt lat="46.042610937729478" lon="9.305250020697713">
        <ele>247.68000000000001</ele>
        <time>2012-10-18T09:20:59Z</time>
      </trkpt>
      <trkpt lat="46.042652428150177" lon="9.305301150307059">
        <ele>248.16</ele>
        <time>2012-10-18T09:21:18Z</time>
      </trkpt>
      <trkpt lat="46.042741611599922" lon="9.305311040952802">
        <ele>248.16</ele>
        <time>2012-10-18T09:21:43Z</time>
      </trkpt>
      <trkpt lat="46.042831214144826" lon="9.305358901619911">
        <ele>249.12</ele>
        <time>2012-10-18T09:22:05Z</time>
      </trkpt>
      <trkpt lat="46.042961971834302" lon="9.305507177487016">
        <ele>252</ele>
        <time>2012-10-18T09:22:19Z</time>
      </trkpt>
      <trkpt lat="46.042905477806926" lon="9.305745391175151">
        <ele>254.88999999999999</ele>
        <time>2012-10-18T09:22:35Z</time>
      </trkpt>
      <trkpt lat="46.042760303243995" lon="9.305838430300355">
        <ele>258.25</ele>
        <time>2012-10-18T09:22:50Z</time>
      </trkpt>
      <trkpt lat="46.042626276612282" lon="9.305973127484322">
        <ele>261.13999999999999</ele>
        <time>2012-10-18T09:23:07Z</time>
      </trkpt>
      <trkpt lat="46.042667180299759" lon="9.306136658415198">
        <ele>264.5</ele>
        <time>2012-10-18T09:23:26Z</time>
      </trkpt>
      <trkpt lat="46.042706407606602" lon="9.306293651461601">
        <ele>265.45999999999998</ele>
        <time>2012-10-18T09:23:49Z</time>
      </trkpt>
      <trkpt lat="46.042673969641328" lon="9.306466821581125">
        <ele>267.86000000000001</ele>
        <time>2012-10-18T09:24:04Z</time>
      </trkpt>
      <trkpt lat="46.042656786739826" lon="9.306578133255243">
        <ele>268.82999999999998</ele>
        <time>2012-10-18T09:24:14Z</time>
      </trkpt>
      <trkpt lat="46.042646141722798" lon="9.306671256199479">
        <ele>270.26999999999998</ele>
        <time>2012-10-18T09:24:28Z</time>
      </trkpt>
      <trkpt lat="46.042678914964199" lon="9.306814502924681">
        <ele>271.70999999999998</ele>
        <time>2012-10-18T09:24:39Z</time>
      </trkpt>
      <trkpt lat="46.042702216655016" lon="9.306949283927679">
        <ele>272.19</ele>
        <time>2012-10-18T09:24:52Z</time>
      </trkpt>
      <trkpt lat="46.042725099250674" lon="9.306992450729013">
        <ele>274.58999999999997</ele>
        <time>2012-10-18T09:24:58Z</time>
      </trkpt>
      <trkpt lat="46.042761225253344" lon="9.307165872305632">
        <ele>276.04000000000002</ele>
        <time>2012-10-18T09:25:16Z</time>
      </trkpt>
      <trkpt lat="46.04276055470109" lon="9.30726109072566">
        <ele>277.95999999999998</ele>
        <time>2012-10-18T09:25:26Z</time>
      </trkpt>
      <trkpt lat="46.042773127555847" lon="9.307300737127662">
        <ele>278.44</ele>
        <time>2012-10-18T09:25:31Z</time>
      </trkpt>
      <trkpt lat="46.042794333770871" lon="9.307421101257205">
        <ele>281.31999999999999</ele>
        <time>2012-10-18T09:25:45Z</time>
      </trkpt>
      <trkpt lat="46.042864238843322" lon="9.307605503126979">
        <ele>283.73000000000002</ele>
        <time>2012-10-18T09:26:01Z</time>
      </trkpt>
      <trkpt lat="46.042884271591902" lon="9.307774314656854">
        <ele>286.13</ele>
        <time>2012-10-18T09:26:16Z</time>
      </trkpt>
      <trkpt lat="46.042930791154504" lon="9.30796517059207">
        <ele>288.52999999999997</ele>
        <time>2012-10-18T09:26:32Z</time>
      </trkpt>
      <trkpt lat="46.042949398979545" lon="9.308143118396401">
        <ele>290.94</ele>
        <time>2012-10-18T09:26:47Z</time>
      </trkpt>
      <trkpt lat="46.042944621294737" lon="9.308170527219772">
        <ele>291.42000000000002</ele>
        <time>2012-10-18T09:26:49Z</time>
      </trkpt>
      <trkpt lat="46.042888797819614" lon="9.308397173881531">
        <ele>292.38</ele>
        <time>2012-10-18T09:27:05Z</time>
      </trkpt>
      <trkpt lat="46.042885696515441" lon="9.308418715372682">
        <ele>292.38</ele>
        <time>2012-10-18T09:27:07Z</time>
      </trkpt>
      <trkpt lat="46.042891899123788" lon="9.308666232973337">
        <ele>294.77999999999997</ele>
        <time>2012-10-18T09:27:26Z</time>
      </trkpt>
      <trkpt lat="46.042906315997243" lon="9.308849042281508">
        <ele>296.22000000000003</ele>
        <time>2012-10-18T09:27:40Z</time>
      </trkpt>
      <trkpt lat="46.042863065376878" lon="9.309015423059464">
        <ele>298.14999999999998</ele>
        <time>2012-10-18T09:27:55Z</time>
      </trkpt>
      <trkpt lat="46.042833141982555" lon="9.30915012024343">
        <ele>300.55000000000001</ele>
        <time>2012-10-18T09:28:10Z</time>
      </trkpt>
      <trkpt lat="46.042817132547498" lon="9.309291774407029">
        <ele>303.43000000000001</ele>
        <time>2012-10-18T09:28:24Z</time>
      </trkpt>
      <trkpt lat="46.042789556086063" lon="9.309406103566289">
        <ele>306.80000000000001</ele>
        <time>2012-10-18T09:28:37Z</time>
      </trkpt>
      <trkpt lat="46.042741695418954" lon="9.309512302279472">
        <ele>309.19999999999999</ele>
        <time>2012-10-18T09:28:53Z</time>
      </trkpt>
      <trkpt lat="46.04272585362196" lon="9.309628056362271">
        <ele>312.56999999999999</ele>
        <time>2012-10-18T09:29:09Z</time>
      </trkpt>
      <trkpt lat="46.04269115254283" lon="9.309707600623369">
        <ele>315.44999999999999</ele>
        <time>2012-10-18T09:29:23Z</time>
      </trkpt>
      <trkpt lat="46.042699702084064" lon="9.309872556477785">
        <ele>318.81</ele>
        <time>2012-10-18T09:29:40Z</time>
      </trkpt>
      <trkpt lat="46.042743539437652" lon="9.309954531490803">
        <ele>321.69999999999999</ele>
        <time>2012-10-18T09:29:55Z</time>
      </trkpt>
      <trkpt lat="46.04270875453949" lon="9.310043966397643">
        <ele>324.57999999999998</ele>
        <time>2012-10-18T09:30:10Z</time>
      </trkpt>
      <trkpt lat="46.042621247470379" lon="9.31009853258729">
        <ele>327.94999999999999</ele>
        <time>2012-10-18T09:30:24Z</time>
      </trkpt>
      <trkpt lat="46.042636502534151" lon="9.310235241428018">
        <ele>330.35000000000002</ele>
        <time>2012-10-18T09:30:36Z</time>
      </trkpt>
      <trkpt lat="46.042669946327806" lon="9.310300871729851">
        <ele>332.75</ele>
        <time>2012-10-18T09:30:51Z</time>
      </trkpt>
      <trkpt lat="46.042595095932484" lon="9.310302715748549">
        <ele>332.75</ele>
        <time>2012-10-18T09:31:05Z</time>
      </trkpt>
      <trkpt lat="46.042562322691083" lon="9.310297686606646">
        <ele>331.79000000000002</ele>
        <time>2012-10-18T09:31:29Z</time>
      </trkpt>
      <trkpt lat="46.042592665180564" lon="9.310284024104476">
        <ele>331.79000000000002</ele>
        <time>2012-10-18T09:32:00Z</time>
      </trkpt>
      <trkpt lat="46.04260515421629" lon="9.310308834537864">
        <ele>332.75</ele>
        <time>2012-10-18T09:32:22Z</time>
      </trkpt>
      <trkpt lat="46.042646896094084" lon="9.31031302548945">
        <ele>331.31</ele>
        <time>2012-10-18T09:32:38Z</time>
      </trkpt>
      <trkpt lat="46.042657541111112" lon="9.310347978025675">
        <ele>331.31</ele>
        <time>2012-10-18T09:33:04Z</time>
      </trkpt>
      <trkpt lat="46.042692242190242" lon="9.310301290825009">
        <ele>331.31</ele>
        <time>2012-10-18T09:33:28Z</time>
      </trkpt>
      <trkpt lat="46.042728954926133" lon="9.310250161215663">
        <ele>330.82999999999998</ele>
        <time>2012-10-18T09:33:31Z</time>
      </trkpt>
      <trkpt lat="46.042853258550167" lon="9.310071878135204">
        <ele>330.35000000000002</ele>
        <time>2012-10-18T09:33:42Z</time>
      </trkpt>
      <trkpt lat="46.042929198592901" lon="9.309952268376946">
        <ele>330.35000000000002</ele>
        <time>2012-10-18T09:33:53Z</time>
      </trkpt>
      <trkpt lat="46.043050987645984" lon="9.309895355254412">
        <ele>329.87</ele>
        <time>2012-10-18T09:34:07Z</time>
      </trkpt>
      <trkpt lat="46.043116953223944" lon="9.309898456558585">
        <ele>329.87</ele>
        <time>2012-10-18T09:34:14Z</time>
      </trkpt>
      <trkpt lat="46.043201275169849" lon="9.309906167909503">
        <ele>331.79000000000002</ele>
        <time>2012-10-18T09:34:27Z</time>
      </trkpt>
      <trkpt lat="46.043212423101068" lon="9.309921339154244">
        <ele>331.31</ele>
        <time>2012-10-18T09:34:43Z</time>
      </trkpt>
      <trkpt lat="46.043224828317761" lon="9.309925446286798">
        <ele>330.82999999999998</ele>
        <time>2012-10-18T09:35:02Z</time>
      </trkpt>
      <trkpt lat="46.043223403394222" lon="9.309896277263761">
        <ele>331.31</ele>
        <time>2012-10-18T09:35:21Z</time>
      </trkpt>
      <trkpt lat="46.043300852179527" lon="9.309906838461757">
        <ele>331.79000000000002</ele>
        <time>2012-10-18T09:35:39Z</time>
      </trkpt>
      <trkpt lat="46.043379977345467" lon="9.309845399111509">
        <ele>333.70999999999998</ele>
        <time>2012-10-18T09:35:54Z</time>
      </trkpt>
      <trkpt lat="46.043444853276014" lon="9.309797789901495">
        <ele>335.63999999999999</ele>
        <time>2012-10-18T09:36:06Z</time>
      </trkpt>
      <trkpt lat="46.043540239334106" lon="9.30978630669415">
        <ele>339</ele>
        <time>2012-10-18T09:36:20Z</time>
      </trkpt>
      <trkpt lat="46.043594134971499" lon="9.309713803231716">
        <ele>342.37</ele>
        <time>2012-10-18T09:36:32Z</time>
      </trkpt>
      <trkpt lat="46.043733358383179" lon="9.309703493490815">
        <ele>345.73000000000002</ele>
        <time>2012-10-18T09:36:48Z</time>
      </trkpt>
      <trkpt lat="46.0438565723598" lon="9.309597630053759">
        <ele>348.13</ele>
        <time>2012-10-18T09:37:07Z</time>
      </trkpt>
      <trkpt lat="46.044009877368808" lon="9.309546919539571">
        <ele>350.54000000000002</ele>
        <time>2012-10-18T09:37:27Z</time>
      </trkpt>
      <trkpt lat="46.044227555394173" lon="9.30953074246645">
        <ele>351.98000000000002</ele>
        <time>2012-10-18T09:37:48Z</time>
      </trkpt>
      <trkpt lat="46.044364012777805" lon="9.309675078839064">
        <ele>353.42000000000002</ele>
        <time>2012-10-18T09:38:07Z</time>
      </trkpt>
      <trkpt lat="46.044486053287983" lon="9.309696285054088">
        <ele>356.31</ele>
        <time>2012-10-18T09:38:26Z</time>
      </trkpt>
      <trkpt lat="46.044591162353754" lon="9.309725873172283">
        <ele>358.70999999999998</ele>
        <time>2012-10-18T09:38:42Z</time>
      </trkpt>
      <trkpt lat="46.044685961678624" lon="9.30974280461669">
        <ele>362.06999999999999</ele>
        <time>2012-10-18T09:38:58Z</time>
      </trkpt>
      <trkpt lat="46.044790986925364" lon="9.309767028316855">
        <ele>364.95999999999998</ele>
        <time>2012-10-18T09:39:15Z</time>
      </trkpt>
      <trkpt lat="46.04490028694272" lon="9.309801561757922">
        <ele>367.83999999999997</ele>
        <time>2012-10-18T09:39:32Z</time>
      </trkpt>
      <trkpt lat="46.044997936114669" lon="9.309868449345231">
        <ele>369.27999999999997</ele>
        <time>2012-10-18T09:39:45Z</time>
      </trkpt>
      <trkpt lat="46.045124921947718" lon="9.309962997213006">
        <ele>371.20999999999998</ele>
        <time>2012-10-18T09:40:02Z</time>
      </trkpt>
      <trkpt lat="46.045205472037196" lon="9.310080595314503">
        <ele>373.13</ele>
        <time>2012-10-18T09:40:16Z</time>
      </trkpt>
      <trkpt lat="46.045301528647542" lon="9.310228284448385">
        <ele>375.05000000000001</ele>
        <time>2012-10-18T09:40:32Z</time>
      </trkpt>
      <trkpt lat="46.045413762331009" lon="9.310351330786943">
        <ele>376.49000000000001</ele>
        <time>2012-10-18T09:40:48Z</time>
      </trkpt>
      <trkpt lat="46.045537311583757" lon="9.310421403497458">
        <ele>375.05000000000001</ele>
        <time>2012-10-18T09:41:02Z</time>
      </trkpt>
      <trkpt lat="46.045618280768394" lon="9.310416458174586">
        <ele>375.05000000000001</ele>
        <time>2012-10-18T09:41:13Z</time>
      </trkpt>
      <trkpt lat="46.045695478096604" lon="9.310441436246038">
        <ele>376.00999999999999</ele>
        <time>2012-10-18T09:41:25Z</time>
      </trkpt>
      <trkpt lat="46.045723641291261" lon="9.310458786785603">
        <ele>376.00999999999999</ele>
        <time>2012-10-18T09:41:29Z</time>
      </trkpt>
      <trkpt lat="46.045777536928654" lon="9.310418637469411">
        <ele>376.97000000000003</ele>
        <time>2012-10-18T09:41:36Z</time>
      </trkpt>
      <trkpt lat="46.045910306274891" lon="9.310241863131523">
        <ele>378.42000000000002</ele>
        <time>2012-10-18T09:41:54Z</time>
      </trkpt>
      <trkpt lat="46.045917179435492" lon="9.310239432379603">
        <ele>378.89999999999998</ele>
        <time>2012-10-18T09:41:55Z</time>
      </trkpt>
      <trkpt lat="46.046025305986404" lon="9.310372117906809">
        <ele>378.42000000000002</ele>
        <time>2012-10-18T09:42:10Z</time>
      </trkpt>
      <trkpt lat="46.045941151678562" lon="9.310448477044702">
        <ele>378.89999999999998</ele>
        <time>2012-10-18T09:42:30Z</time>
      </trkpt>
      <trkpt lat="46.045942073687911" lon="9.310454847291112">
        <ele>378.89999999999998</ele>
        <time>2012-10-18T09:42:49Z</time>
      </trkpt>
      <trkpt lat="46.046006698161364" lon="9.310463732108474">
        <ele>378.89999999999998</ele>
        <time>2012-10-18T09:43:48Z</time>
      </trkpt>
      <trkpt lat="46.046021366491914" lon="9.310305481776595">
        <ele>378.89999999999998</ele>
        <time>2012-10-18T09:43:58Z</time>
      </trkpt>
      <trkpt lat="46.046030083671212" lon="9.310297099873424">
        <ele>378.42000000000002</ele>
        <time>2012-10-18T09:44:02Z</time>
      </trkpt>
      <trkpt lat="46.045953724533319" lon="9.31024756282568">
        <ele>378.42000000000002</ele>
        <time>2012-10-18T09:44:11Z</time>
      </trkpt>
      <trkpt lat="46.045951042324305" lon="9.310219315811992">
        <ele>378.42000000000002</ele>
        <time>2012-10-18T09:44:13Z</time>
      </trkpt>
      <trkpt lat="46.045947438105941" lon="9.310189727693796">
        <ele>377.94</ele>
        <time>2012-10-18T09:44:25Z</time>
      </trkpt>
      <trkpt lat="46.045866888016462" lon="9.310090150684118">
        <ele>374.56999999999999</ele>
        <time>2012-10-18T09:44:38Z</time>
      </trkpt>
      <trkpt lat="46.045860853046179" lon="9.310083612799645">
        <ele>374.56999999999999</ele>
        <time>2012-10-18T09:44:39Z</time>
      </trkpt>
      <trkpt lat="46.045858925208449" lon="9.310037344694138">
        <ele>374.08999999999997</ele>
        <time>2012-10-18T09:44:58Z</time>
      </trkpt>
      <trkpt lat="46.045857332646847" lon="9.310002643615007">
        <ele>374.56999999999999</ele>
        <time>2012-10-18T09:45:13Z</time>
      </trkpt>
      <trkpt lat="46.045838808640838" lon="9.310051007196307">
        <ele>374.56999999999999</ele>
        <time>2012-10-18T09:45:31Z</time>
      </trkpt>
      <trkpt lat="46.045903349295259" lon="9.3101273663342">
        <ele>375.52999999999997</ele>
        <time>2012-10-18T09:45:45Z</time>
      </trkpt>
      <trkpt lat="46.045924555510283" lon="9.310219651088119">
        <ele>378.42000000000002</ele>
        <time>2012-10-18T09:46:01Z</time>
      </trkpt>
      <trkpt lat="46.045809723436832" lon="9.310086378827691">
        <ele>378.42000000000002</ele>
        <time>2012-10-18T09:46:20Z</time>
      </trkpt>
      <trkpt lat="46.04583503678441" lon="9.310086965560913">
        <ele>378.42000000000002</ele>
        <time>2012-10-18T09:46:36Z</time>
      </trkpt>
      <trkpt lat="46.045849369838834" lon="9.310119152069092">
        <ele>378.42000000000002</ele>
        <time>2012-10-18T09:46:38Z</time>
      </trkpt>
      <trkpt lat="46.045889686793089" lon="9.310249574482441">
        <ele>378.89999999999998</ele>
        <time>2012-10-18T09:46:48Z</time>
      </trkpt>
      <trkpt lat="46.045871749520302" lon="9.31028813123703">
        <ele>378.89999999999998</ele>
        <time>2012-10-18T09:47:00Z</time>
      </trkpt>
      <trkpt lat="46.045869570225477" lon="9.310298021882772">
        <ele>378.42000000000002</ele>
        <time>2012-10-18T09:47:15Z</time>
      </trkpt>
      <trkpt lat="46.045909970998764" lon="9.310303218662739">
        <ele>377.94</ele>
        <time>2012-10-18T09:47:27Z</time>
      </trkpt>
      <trkpt lat="46.045909384265542" lon="9.310342194512487">
        <ele>377.44999999999999</ele>
        <time>2012-10-18T09:47:31Z</time>
      </trkpt>
      <trkpt lat="46.045890022069216" lon="9.310350492596626">
        <ele>377.44999999999999</ele>
        <time>2012-10-18T09:47:49Z</time>
      </trkpt>
      <trkpt lat="46.045903097838163" lon="9.310352755710483">
        <ele>377.44999999999999</ele>
        <time>2012-10-18T09:48:17Z</time>
      </trkpt>
      <trkpt lat="46.045912904664874" lon="9.310327023267746">
        <ele>377.94</ele>
        <time>2012-10-18T09:48:39Z</time>
      </trkpt>
      <trkpt lat="46.045908713713288" lon="9.310298021882772">
        <ele>377.94</ele>
        <time>2012-10-18T09:49:09Z</time>
      </trkpt>
      <trkpt lat="46.045943917706609" lon="9.310273295268416">
        <ele>377.94</ele>
        <time>2012-10-18T09:49:39Z</time>
      </trkpt>
      <trkpt lat="46.045901756733656" lon="9.310254855081439">
        <ele>378.42000000000002</ele>
        <time>2012-10-18T09:50:09Z</time>
      </trkpt>
      <trkpt lat="46.045918688178062" lon="9.310252340510488">
        <ele>378.42000000000002</ele>
        <time>2012-10-18T09:50:28Z</time>
      </trkpt>
      <trkpt lat="46.045920867472887" lon="9.310239600017667">
        <ele>378.89999999999998</ele>
        <time>2012-10-18T09:50:57Z</time>
      </trkpt>
      <trkpt lat="46.0459322668612" lon="9.310271702706814">
        <ele>379.38</ele>
        <time>2012-10-18T09:51:27Z</time>
      </trkpt>
      <trkpt lat="46.045966967940331" lon="9.310272205621004">
        <ele>379.86000000000001</ele>
        <time>2012-10-18T09:52:02Z</time>
      </trkpt>
      <trkpt lat="46.045977361500263" lon="9.310249239206314">
        <ele>380.33999999999997</ele>
        <time>2012-10-18T09:52:37Z</time>
      </trkpt>
      <trkpt lat="46.045923046767712" lon="9.310272205621004">
        <ele>380.33999999999997</ele>
        <time>2012-10-18T09:53:09Z</time>
      </trkpt>
      <trkpt lat="46.045931512489915" lon="9.310247898101807">
        <ele>380.81999999999999</ele>
        <time>2012-10-18T09:53:39Z</time>
      </trkpt>
      <trkpt lat="46.045905696228147" lon="9.310202971100807">
        <ele>380.81999999999999</ele>
        <time>2012-10-18T09:54:05Z</time>
      </trkpt>
      <trkpt lat="46.045880885794759" lon="9.310159301385284">
        <ele>381.77999999999997</ele>
        <time>2012-10-18T09:54:42Z</time>
      </trkpt>
      <trkpt lat="46.046006781980395" lon="9.310188386589289">
        <ele>381.77999999999997</ele>
        <time>2012-10-18T09:55:06Z</time>
      </trkpt>
      <trkpt lat="46.045964621007442" lon="9.310187632218003">
        <ele>382.74000000000001</ele>
        <time>2012-10-18T09:55:29Z</time>
      </trkpt>
      <trkpt lat="46.045934781432152" lon="9.310177154839039">
        <ele>382.74000000000001</ele>
        <time>2012-10-18T09:55:59Z</time>
      </trkpt>
      <trkpt lat="46.045907707884908" lon="9.310200288891792">
        <ele>383.22000000000003</ele>
        <time>2012-10-18T09:56:26Z</time>
      </trkpt>
      <trkpt lat="46.04587996378541" lon="9.310198528692126">
        <ele>383.69999999999999</ele>
        <time>2012-10-18T09:56:58Z</time>
      </trkpt>
      <trkpt lat="46.045890441164374" lon="9.31020749732852">
        <ele>383.69999999999999</ele>
        <time>2012-10-18T09:57:19Z</time>
      </trkpt>
      <trkpt lat="46.045876443386078" lon="9.310183776542544">
        <ele>384.66000000000003</ele>
        <time>2012-10-18T09:57:48Z</time>
      </trkpt>
      <trkpt lat="46.045860350131989" lon="9.310153601691127">
        <ele>384.66000000000003</ele>
        <time>2012-10-18T09:58:17Z</time>
      </trkpt>
      <trkpt lat="46.045898236334324" lon="9.31018847040832">
        <ele>385.63</ele>
        <time>2012-10-18T09:58:38Z</time>
      </trkpt>
      <trkpt lat="46.045888932421803" lon="9.310173885896802">
        <ele>385.63</ele>
        <time>2012-10-18T09:59:13Z</time>
      </trkpt>
      <trkpt lat="46.04589412920177" lon="9.31018210016191">
        <ele>385.63</ele>
        <time>2012-10-18T09:59:42Z</time>
      </trkpt>
      <trkpt lat="46.04587803594768" lon="9.310208754613996">
        <ele>386.11000000000001</ele>
        <time>2012-10-18T10:00:16Z</time>
      </trkpt>
      <trkpt lat="46.045871414244175" lon="9.310212358832359">
        <ele>386.58999999999997</ele>
        <time>2012-10-18T10:00:50Z</time>
      </trkpt>
      <trkpt lat="46.045891949906945" lon="9.310243288055062">
        <ele>386.11000000000001</ele>
        <time>2012-10-18T10:01:23Z</time>
      </trkpt>
      <trkpt lat="46.045908462256193" lon="9.310242366045713">
        <ele>386.58999999999997</ele>
        <time>2012-10-18T10:01:49Z</time>
      </trkpt>
      <trkpt lat="46.045886753126979" lon="9.310254855081439">
        <ele>386.58999999999997</ele>
        <time>2012-10-18T10:02:22Z</time>
      </trkpt>
      <trkpt lat="46.045896643772721" lon="9.310253262519836">
        <ele>386.58999999999997</ele>
        <time>2012-10-18T10:02:58Z</time>
      </trkpt>
      <trkpt lat="46.0459063667804" lon="9.31025929749012">
        <ele>386.58999999999997</ele>
        <time>2012-10-18T10:03:35Z</time>
      </trkpt>
      <trkpt lat="46.04588289745152" lon="9.310193918645382">
        <ele>386.58999999999997</ele>
        <time>2012-10-18T10:04:05Z</time>
      </trkpt>
      <trkpt lat="46.045872839167714" lon="9.31018453091383">
        <ele>387.06999999999999</ele>
        <time>2012-10-18T10:04:41Z</time>
      </trkpt>
      <trkpt lat="46.045851968228817" lon="9.310172712430358">
        <ele>387.06999999999999</ele>
        <time>2012-10-18T10:05:13Z</time>
      </trkpt>
      <trkpt lat="46.045851381495595" lon="9.310132646933198">
        <ele>387.55000000000001</ele>
        <time>2012-10-18T10:05:50Z</time>
      </trkpt>
      <trkpt lat="46.045855656266212" lon="9.31011563166976">
        <ele>388.02999999999997</ele>
        <time>2012-10-18T10:06:19Z</time>
      </trkpt>
      <trkpt lat="46.045861020684242" lon="9.310152931138873">
        <ele>387.55000000000001</ele>
        <time>2012-10-18T10:06:57Z</time>
      </trkpt>
      <trkpt lat="46.045865546911955" lon="9.31021336466074">
        <ele>388.02999999999997</ele>
        <time>2012-10-18T10:07:33Z</time>
      </trkpt>
      <trkpt lat="46.045911898836493" lon="9.310232726857066">
        <ele>388.50999999999999</ele>
        <time>2012-10-18T10:07:55Z</time>
      </trkpt>
      <trkpt lat="46.045912737026811" lon="9.31020406074822">
        <ele>388.50999999999999</ele>
        <time>2012-10-18T10:08:26Z</time>
      </trkpt>
      <trkpt lat="46.045904858037829" lon="9.310196014121175">
        <ele>388.99000000000001</ele>
        <time>2012-10-18T10:08:49Z</time>
      </trkpt>
      <trkpt lat="46.04588340036571" lon="9.310202719643712">
        <ele>388.50999999999999</ele>
        <time>2012-10-18T10:09:04Z</time>
      </trkpt>
      <trkpt lat="46.04587116278708" lon="9.310176903381944">
        <ele>388.50999999999999</ele>
        <time>2012-10-18T10:09:33Z</time>
      </trkpt>
      <trkpt lat="46.045873761177063" lon="9.310173718258739">
        <ele>388.50999999999999</ele>
        <time>2012-10-18T10:10:09Z</time>
      </trkpt>
      <trkpt lat="46.045864289626479" lon="9.310172963887453">
        <ele>388.99000000000001</ele>
        <time>2012-10-18T10:10:41Z</time>
      </trkpt>
      <trkpt lat="46.045871498063207" lon="9.310182686895132">
        <ele>388.99000000000001</ele>
        <time>2012-10-18T10:11:15Z</time>
      </trkpt>
      <trkpt lat="46.045870324596763" lon="9.310183608904481">
        <ele>389.47000000000003</ele>
        <time>2012-10-18T10:11:53Z</time>
      </trkpt>
      <trkpt lat="46.045859847217798" lon="9.310196433216333">
        <ele>389.47000000000003</ele>
        <time>2012-10-18T10:12:33Z</time>
      </trkpt>
      <trkpt lat="46.045861942693591" lon="9.310204396024346">
        <ele>389.47000000000003</ele>
        <time>2012-10-18T10:13:11Z</time>
      </trkpt>
      <trkpt lat="46.04586579836905" lon="9.31022560223937">
        <ele>389.47000000000003</ele>
        <time>2012-10-18T10:13:47Z</time>
      </trkpt>
      <trkpt lat="46.045860936865211" lon="9.310170197859407">
        <ele>389.94999999999999</ele>
        <time>2012-10-18T10:14:27Z</time>
      </trkpt>
      <trkpt lat="46.045869067311287" lon="9.310174807906151">
        <ele>389.94999999999999</ele>
        <time>2012-10-18T10:14:58Z</time>
      </trkpt>
      <trkpt lat="46.045883819460869" lon="9.310247981920838">
        <ele>389.94999999999999</ele>
        <time>2012-10-18T10:15:25Z</time>
      </trkpt>
      <trkpt lat="46.045878287404776" lon="9.310256112366915">
        <ele>389.94999999999999</ele>
        <time>2012-10-18T10:16:04Z</time>
      </trkpt>
      <trkpt lat="46.045887004584074" lon="9.310224344953895">
        <ele>389.94999999999999</ele>
        <time>2012-10-18T10:16:36Z</time>
      </trkpt>
      <trkpt lat="46.045879125595093" lon="9.310227697715163">
        <ele>389.94999999999999</ele>
        <time>2012-10-18T10:17:08Z</time>
      </trkpt>
      <trkpt lat="46.045884154736996" lon="9.310224344953895">
        <ele>390.43000000000001</ele>
        <time>2012-10-18T10:17:40Z</time>
      </trkpt>
      <trkpt lat="46.045889016240835" lon="9.31025393307209">
        <ele>390.43000000000001</ele>
        <time>2012-10-18T10:18:09Z</time>
      </trkpt>
      <trkpt lat="46.045884070917964" lon="9.310261560603976">
        <ele>389.94999999999999</ele>
        <time>2012-10-18T10:18:46Z</time>
      </trkpt>
      <trkpt lat="46.045875353738666" lon="9.310176987200975">
        <ele>389.94999999999999</ele>
        <time>2012-10-18T10:19:17Z</time>
      </trkpt>
      <trkpt lat="46.045902511104941" lon="9.310151590034366">
        <ele>389.94999999999999</ele>
        <time>2012-10-18T10:19:44Z</time>
      </trkpt>
      <trkpt lat="46.045890022069216" lon="9.310198025777936">
        <ele>389.94999999999999</ele>
        <time>2012-10-18T10:20:17Z</time>
      </trkpt>
      <trkpt lat="46.045881472527981" lon="9.31016743183136">
        <ele>390.43000000000001</ele>
        <time>2012-10-18T10:20:52Z</time>
      </trkpt>
      <trkpt lat="46.045890441164374" lon="9.310162654146552">
        <ele>389.94999999999999</ele>
        <time>2012-10-18T10:21:26Z</time>
      </trkpt>
      <trkpt lat="46.045901505276561" lon="9.310213532298803">
        <ele>390.43000000000001</ele>
        <time>2012-10-18T10:22:03Z</time>
      </trkpt>
      <trkpt lat="46.045902259647846" lon="9.310225015506148">
        <ele>390.43000000000001</ele>
        <time>2012-10-18T10:22:32Z</time>
      </trkpt>
      <trkpt lat="46.045871833339334" lon="9.310198863968253">
        <ele>390.43000000000001</ele>
        <time>2012-10-18T10:23:15Z</time>
      </trkpt>
      <trkpt lat="46.045891446992755" lon="9.310205318033695">
        <ele>389.94999999999999</ele>
        <time>2012-10-18T10:23:48Z</time>
      </trkpt>
      <trkpt lat="46.045880634337664" lon="9.310150751844049">
        <ele>390.43000000000001</ele>
        <time>2012-10-18T10:24:18Z</time>
      </trkpt>
      <trkpt lat="46.04588583111763" lon="9.310132311657071">
        <ele>390.43000000000001</ele>
        <time>2012-10-18T10:24:48Z</time>
      </trkpt>
      <trkpt lat="46.045889938250184" lon="9.310185955837369">
        <ele>390.43000000000001</ele>
        <time>2012-10-18T10:25:19Z</time>
      </trkpt>
      <trkpt lat="46.045919945463538" lon="9.310168856754899">
        <ele>390.43000000000001</ele>
        <time>2012-10-18T10:25:46Z</time>
      </trkpt>
      <trkpt lat="46.045891949906945" lon="9.310167515650392">
        <ele>391.38999999999999</ele>
        <time>2012-10-18T10:26:04Z</time>
      </trkpt>
      <trkpt lat="46.045884238556027" lon="9.310199785977602">
        <ele>391.87</ele>
        <time>2012-10-18T10:26:25Z</time>
      </trkpt>
      <trkpt lat="46.045907959342003" lon="9.310205234214664">
        <ele>391.87</ele>
        <time>2012-10-18T10:26:41Z</time>
      </trkpt>
      <trkpt lat="46.045908713713288" lon="9.310244964435697">
        <ele>392.36000000000001</ele>
        <time>2012-10-18T10:27:11Z</time>
      </trkpt>
      <trkpt lat="46.045873593539" lon="9.310199115425348">
        <ele>391.38999999999999</ele>
        <time>2012-10-18T10:27:32Z</time>
      </trkpt>
      <trkpt lat="46.04585506953299" lon="9.31020456366241">
        <ele>391.38999999999999</ele>
        <time>2012-10-18T10:27:59Z</time>
      </trkpt>
      <trkpt lat="46.045856913551688" lon="9.310231721028686">
        <ele>391.38999999999999</ele>
        <time>2012-10-18T10:28:30Z</time>
      </trkpt>
      <trkpt lat="46.04587065987289" lon="9.310222081840038">
        <ele>390.91000000000003</ele>
        <time>2012-10-18T10:28:56Z</time>
      </trkpt>
      <trkpt lat="46.045895889401436" lon="9.310225518420339">
        <ele>391.87</ele>
        <time>2012-10-18T10:29:19Z</time>
      </trkpt>
      <trkpt lat="46.045893374830484" lon="9.31020456366241">
        <ele>391.87</ele>
        <time>2012-10-18T10:29:31Z</time>
      </trkpt>
      <trkpt lat="46.045885663479567" lon="9.310197019949555">
        <ele>392.36000000000001</ele>
        <time>2012-10-18T10:29:47Z</time>
      </trkpt>
      <trkpt lat="46.04588926769793" lon="9.31020699441433">
        <ele>392.36000000000001</ele>
        <time>2012-10-18T10:30:01Z</time>
      </trkpt>
      <trkpt lat="46.045902008190751" lon="9.310220489278436">
        <ele>392.36000000000001</ele>
        <time>2012-10-18T10:30:13Z</time>
      </trkpt>
      <trkpt lat="46.045902175828815" lon="9.310215879231691">
        <ele>391.87</ele>
        <time>2012-10-18T10:30:34Z</time>
      </trkpt>
      <trkpt lat="46.045923214405775" lon="9.310185872018337">
        <ele>391.87</ele>
        <time>2012-10-18T10:30:54Z</time>
      </trkpt>
      <trkpt lat="46.045983983203769" lon="9.310178915038705">
        <ele>392.36000000000001</ele>
        <time>2012-10-18T10:31:09Z</time>
      </trkpt>
      <trkpt lat="46.045977361500263" lon="9.310203893110156">
        <ele>391.87</ele>
        <time>2012-10-18T10:31:20Z</time>
      </trkpt>
      <trkpt lat="46.046046512201428" lon="9.31042056530714">
        <ele>392.36000000000001</ele>
        <time>2012-10-18T10:31:35Z</time>
      </trkpt>
      <trkpt lat="46.046062856912613" lon="9.310490470379591">
        <ele>392.36000000000001</ele>
        <time>2012-10-18T10:31:43Z</time>
      </trkpt>
      <trkpt lat="46.046051122248173" lon="9.310634722933173">
        <ele>391.87</ele>
        <time>2012-10-18T10:31:56Z</time>
      </trkpt>
      <trkpt lat="46.046047853305936" lon="9.310782747343183">
        <ele>391.87</ele>
        <time>2012-10-18T10:32:11Z</time>
      </trkpt>
      <trkpt lat="46.046046428382397" lon="9.310779981315136">
        <ele>392.36000000000001</ele>
        <time>2012-10-18T10:32:28Z</time>
      </trkpt>
      <trkpt lat="46.046050619333982" lon="9.310726588591933">
        <ele>391.87</ele>
        <time>2012-10-18T10:32:46Z</time>
      </trkpt>
      <trkpt lat="46.046082135289907" lon="9.310719212517142">
        <ele>391.38999999999999</ele>
        <time>2012-10-18T10:32:58Z</time>
      </trkpt>
      <trkpt lat="46.046067383140326" lon="9.310760367661715">
        <ele>390.91000000000003</ele>
        <time>2012-10-18T10:33:16Z</time>
      </trkpt>
      <trkpt lat="46.046016924083233" lon="9.310755338519812">
        <ele>391.38999999999999</ele>
        <time>2012-10-18T10:33:42Z</time>
      </trkpt>
      <trkpt lat="46.046059504151344" lon="9.31072692386806">
        <ele>391.38999999999999</ele>
        <time>2012-10-18T10:34:05Z</time>
      </trkpt>
      <trkpt lat="46.046004267409444" lon="9.310712339356542">
        <ele>391.38999999999999</ele>
        <time>2012-10-18T10:34:24Z</time>
      </trkpt>
      <trkpt lat="46.045998986810446" lon="9.310722230002284">
        <ele>390.91000000000003</ele>
        <time>2012-10-18T10:34:40Z</time>
      </trkpt>
      <trkpt lat="46.046019019559026" lon="9.310726085677743">
        <ele>391.38999999999999</ele>
        <time>2012-10-18T10:35:04Z</time>
      </trkpt>
      <trkpt lat="46.045978115871549" lon="9.310801522806287">
        <ele>390.43000000000001</ele>
        <time>2012-10-18T10:35:20Z</time>
      </trkpt>
      <trkpt lat="46.045952718704939" lon="9.310772102326155">
        <ele>389.94999999999999</ele>
        <time>2012-10-18T10:35:36Z</time>
      </trkpt>
      <trkpt lat="46.045915586873889" lon="9.3107645586133">
        <ele>390.43000000000001</ele>
        <time>2012-10-18T10:36:12Z</time>
      </trkpt>
      <trkpt lat="46.045806286856532" lon="9.310732539743185">
        <ele>389.94999999999999</ele>
        <time>2012-10-18T10:36:43Z</time>
      </trkpt>
      <trkpt lat="46.045896392315626" lon="9.310701610520482">
        <ele>390.43000000000001</ele>
        <time>2012-10-18T10:37:19Z</time>
      </trkpt>
      <trkpt lat="46.045863535255194" lon="9.3106384947896">
        <ele>390.91000000000003</ele>
        <time>2012-10-18T10:37:57Z</time>
      </trkpt>
      <trkpt lat="46.045888848602772" lon="9.310669843107462">
        <ele>390.91000000000003</ele>
        <time>2012-10-18T10:38:32Z</time>
      </trkpt>
      <trkpt lat="46.045866636559367" lon="9.310538833960891">
        <ele>391.38999999999999</ele>
        <time>2012-10-18T10:39:10Z</time>
      </trkpt>
      <trkpt lat="46.045818189159036" lon="9.310417715460062">
        <ele>391.38999999999999</ele>
        <time>2012-10-18T10:39:41Z</time>
      </trkpt>
      <trkpt lat="46.045771921053529" lon="9.310358790680766">
        <ele>391.87</ele>
        <time>2012-10-18T10:40:09Z</time>
      </trkpt>
      <trkpt lat="46.045757671818137" lon="9.310381338000298">
        <ele>392.36000000000001</ele>
        <time>2012-10-18T10:40:38Z</time>
      </trkpt>
      <trkpt lat="46.045852219685912" lon="9.31056666187942">
        <ele>392.83999999999997</ele>
        <time>2012-10-18T10:41:05Z</time>
      </trkpt>
      <trkpt lat="46.04591173119843" lon="9.310716949403286">
        <ele>392.83999999999997</ele>
        <time>2012-10-18T10:41:39Z</time>
      </trkpt>
      <trkpt lat="46.045940313488245" lon="9.310756344348192">
        <ele>392.83999999999997</ele>
        <time>2012-10-18T10:42:12Z</time>
      </trkpt>
      <trkpt lat="46.045940900221467" lon="9.310760702937841">
        <ele>392.36000000000001</ele>
        <time>2012-10-18T10:42:45Z</time>
      </trkpt>
      <trkpt lat="46.045933524146676" lon="9.310756595805287">
        <ele>392.36000000000001</ele>
        <time>2012-10-18T10:43:15Z</time>
      </trkpt>
      <trkpt lat="46.045947941020131" lon="9.310753243044019">
        <ele>392.36000000000001</ele>
        <time>2012-10-18T10:43:44Z</time>
      </trkpt>
      <trkpt lat="46.045950623229146" lon="9.310734467580915">
        <ele>392.36000000000001</ele>
        <time>2012-10-18T10:44:26Z</time>
      </trkpt>
      <trkpt lat="46.045917179435492" lon="9.310697419568896">
        <ele>391.87</ele>
        <time>2012-10-18T10:44:56Z</time>
      </trkpt>
      <trkpt lat="46.045924471691251" lon="9.310751482844353">
        <ele>391.38999999999999</ele>
        <time>2012-10-18T10:45:23Z</time>
      </trkpt>
      <trkpt lat="46.045915754511952" lon="9.310712423175573">
        <ele>391.87</ele>
        <time>2012-10-18T10:45:53Z</time>
      </trkpt>
      <trkpt lat="46.04590100236237" lon="9.310658108443022">
        <ele>391.87</ele>
        <time>2012-10-18T10:46:19Z</time>
      </trkpt>
      <trkpt lat="46.045898655429482" lon="9.310697503387928">
        <ele>392.36000000000001</ele>
        <time>2012-10-18T10:46:46Z</time>
      </trkpt>
      <trkpt lat="46.045874347910285" lon="9.310741340741515">
        <ele>391.87</ele>
        <time>2012-10-18T10:47:14Z</time>
      </trkpt>
      <trkpt lat="46.045942576602101" lon="9.310789033770561">
        <ele>391.87</ele>
        <time>2012-10-18T10:47:52Z</time>
      </trkpt>
      <trkpt lat="46.045973422005773" lon="9.310759864747524">
        <ele>391.87</ele>
        <time>2012-10-18T10:48:19Z</time>
      </trkpt>
      <trkpt lat="46.045962860807776" lon="9.3107576854527">
        <ele>391.38999999999999</ele>
        <time>2012-10-18T10:48:45Z</time>
      </trkpt>
      <trkpt lat="46.045928578823805" lon="9.310712506994605">
        <ele>391.38999999999999</ele>
        <time>2012-10-18T10:49:22Z</time>
      </trkpt>
      <trkpt lat="46.045903936028481" lon="9.310684762895107">
        <ele>391.38999999999999</ele>
        <time>2012-10-18T10:49:54Z</time>
      </trkpt>
      <trkpt lat="46.045950539410114" lon="9.310727007687092">
        <ele>391.38999999999999</ele>
        <time>2012-10-18T10:50:23Z</time>
      </trkpt>
      <trkpt lat="46.045977948233485" lon="9.310809904709458">
        <ele>391.87</ele>
        <time>2012-10-18T10:51:04Z</time>
      </trkpt>
      <trkpt lat="46.045947102829814" lon="9.310800600796938">
        <ele>391.38999999999999</ele>
        <time>2012-10-18T10:51:41Z</time>
      </trkpt>
      <trkpt lat="46.045929165557027" lon="9.310786267742515">
        <ele>391.38999999999999</ele>
        <time>2012-10-18T10:52:21Z</time>
      </trkpt>
      <trkpt lat="46.045935954898596" lon="9.310770761221647">
        <ele>391.38999999999999</ele>
        <time>2012-10-18T10:52:53Z</time>
      </trkpt>
      <trkpt lat="46.04595665819943" lon="9.310815772041678">
        <ele>391.38999999999999</ele>
        <time>2012-10-18T10:53:25Z</time>
      </trkpt>
      <trkpt lat="46.045925142243505" lon="9.310795068740845">
        <ele>391.38999999999999</ele>
        <time>2012-10-18T10:53:56Z</time>
      </trkpt>
      <trkpt lat="46.045922208577394" lon="9.310825327411294">
        <ele>391.38999999999999</ele>
        <time>2012-10-18T10:54:19Z</time>
      </trkpt>
      <trkpt lat="46.045919442549348" lon="9.310823315754533">
        <ele>390.91000000000003</ele>
        <time>2012-10-18T10:54:43Z</time>
      </trkpt>
      <trkpt lat="46.045941319316626" lon="9.310765899717808">
        <ele>391.38999999999999</ele>
        <time>2012-10-18T10:55:13Z</time>
      </trkpt>
      <trkpt lat="46.045937463641167" lon="9.310790961608291">
        <ele>390.91000000000003</ele>
        <time>2012-10-18T10:55:34Z</time>
      </trkpt>
      <trkpt lat="46.045895973220468" lon="9.31077771820128">
        <ele>390.91000000000003</ele>
        <time>2012-10-18T10:56:07Z</time>
      </trkpt>
      <trkpt lat="46.045893207192421" lon="9.310714434832335">
        <ele>390.91000000000003</ele>
        <time>2012-10-18T10:56:40Z</time>
      </trkpt>
      <trkpt lat="46.045883148908615" lon="9.310703622177243">
        <ele>390.91000000000003</ele>
        <time>2012-10-18T10:57:15Z</time>
      </trkpt>
      <trkpt lat="46.045877616852522" lon="9.310689624398947">
        <ele>390.91000000000003</ele>
        <time>2012-10-18T10:57:52Z</time>
      </trkpt>
      <trkpt lat="46.045850375667214" lon="9.310627765953541">
        <ele>391.38999999999999</ele>
        <time>2012-10-18T10:58:17Z</time>
      </trkpt>
      <trkpt lat="46.04585163295269" lon="9.31056372821331">
        <ele>391.38999999999999</ele>
        <time>2012-10-18T10:58:39Z</time>
      </trkpt>
      <trkpt lat="46.045862529426813" lon="9.310525003820658">
        <ele>391.38999999999999</ele>
        <time>2012-10-18T10:58:59Z</time>
      </trkpt>
      <trkpt lat="46.045864289626479" lon="9.310511341318488">
        <ele>391.87</ele>
        <time>2012-10-18T10:59:22Z</time>
      </trkpt>
      <trkpt lat="46.045852219685912" lon="9.310517208650708">
        <ele>391.38999999999999</ele>
        <time>2012-10-18T10:59:47Z</time>
      </trkpt>
      <trkpt lat="46.045861858874559" lon="9.310535984113812">
        <ele>392.36000000000001</ele>
        <time>2012-10-18T11:00:13Z</time>
      </trkpt>
      <trkpt lat="46.045899242162704" lon="9.310581162571907">
        <ele>391.87</ele>
        <time>2012-10-18T11:00:46Z</time>
      </trkpt>
      <trkpt lat="46.045881221070886" lon="9.310580408200622">
        <ele>391.87</ele>
        <time>2012-10-18T11:01:22Z</time>
      </trkpt>
      <trkpt lat="46.04584526270628" lon="9.31055492721498">
        <ele>391.87</ele>
        <time>2012-10-18T11:01:54Z</time>
      </trkpt>
      <trkpt lat="46.045865546911955" lon="9.310495583340526">
        <ele>392.36000000000001</ele>
        <time>2012-10-18T11:02:34Z</time>
      </trkpt>
      <trkpt lat="46.045842161402106" lon="9.310499187558889">
        <ele>392.36000000000001</ele>
        <time>2012-10-18T11:03:09Z</time>
      </trkpt>
      <trkpt lat="46.045849537476897" lon="9.310478987172246">
        <ele>392.83999999999997</ele>
        <time>2012-10-18T11:03:38Z</time>
      </trkpt>
      <trkpt lat="46.045877449214458" lon="9.31063748896122">
        <ele>392.83999999999997</ele>
        <time>2012-10-18T11:04:15Z</time>
      </trkpt>
      <trkpt lat="46.045866636559367" lon="9.310604464262724">
        <ele>392.36000000000001</ele>
        <time>2012-10-18T11:04:35Z</time>
      </trkpt>
      <trkpt lat="46.045888513326645" lon="9.310673614963889">
        <ele>392.83999999999997</ele>
        <time>2012-10-18T11:05:04Z</time>
      </trkpt>
      <trkpt lat="46.045916508883238" lon="9.310725834220648">
        <ele>392.36000000000001</ele>
        <time>2012-10-18T11:05:45Z</time>
      </trkpt>
      <trkpt lat="46.045929668471217" lon="9.31071761995554">
        <ele>392.83999999999997</ele>
        <time>2012-10-18T11:06:17Z</time>
      </trkpt>
      <trkpt lat="46.045913156121969" lon="9.310699515044689">
        <ele>392.36000000000001</ele>
        <time>2012-10-18T11:06:44Z</time>
      </trkpt>
      <trkpt lat="46.045914497226477" lon="9.310668669641018">
        <ele>392.83999999999997</ele>
        <time>2012-10-18T11:07:15Z</time>
      </trkpt>
      <trkpt lat="46.045889016240835" lon="9.310651319101453">
        <ele>392.83999999999997</ele>
        <time>2012-10-18T11:07:48Z</time>
      </trkpt>
      <trkpt lat="46.04589169844985" lon="9.310628855600953">
        <ele>392.83999999999997</ele>
        <time>2012-10-18T11:08:26Z</time>
      </trkpt>
      <trkpt lat="46.045889519155025" lon="9.310623994097114">
        <ele>392.83999999999997</ele>
        <time>2012-10-18T11:08:57Z</time>
      </trkpt>
      <trkpt lat="46.045864457264543" lon="9.310616701841354">
        <ele>392.36000000000001</ele>
        <time>2012-10-18T11:09:33Z</time>
      </trkpt>
      <trkpt lat="46.045863199979067" lon="9.310571355745196">
        <ele>392.83999999999997</ele>
        <time>2012-10-18T11:10:08Z</time>
      </trkpt>
      <trkpt lat="46.045851465314627" lon="9.310562387108803">
        <ele>392.83999999999997</ele>
        <time>2012-10-18T11:10:35Z</time>
      </trkpt>
      <trkpt lat="46.045838389545679" lon="9.310541516169906">
        <ele>392.83999999999997</ele>
        <time>2012-10-18T11:11:05Z</time>
      </trkpt>
      <trkpt lat="46.045832019299269" lon="9.310542270541191">
        <ele>392.83999999999997</ele>
        <time>2012-10-18T11:11:36Z</time>
      </trkpt>
      <trkpt lat="46.045824224129319" lon="9.310513688251376">
        <ele>393.31999999999999</ele>
        <time>2012-10-18T11:12:06Z</time>
      </trkpt>
      <trkpt lat="46.045858589932323" lon="9.310548389330506">
        <ele>393.31999999999999</ele>
        <time>2012-10-18T11:12:31Z</time>
      </trkpt>
      <trkpt lat="46.045856913551688" lon="9.310563309118152">
        <ele>393.31999999999999</ele>
        <time>2012-10-18T11:12:39Z</time>
      </trkpt>
      <trkpt lat="46.045880299061537" lon="9.310572948306799">
        <ele>394.75999999999999</ele>
        <time>2012-10-18T11:12:47Z</time>
      </trkpt>
      <trkpt lat="46.045888178050518" lon="9.310506228357554">
        <ele>394.27999999999997</ele>
        <time>2012-10-18T11:12:59Z</time>
      </trkpt>
      <trkpt lat="46.046011643484235" lon="9.31065559387207">
        <ele>394.27999999999997</ele>
        <time>2012-10-18T11:13:16Z</time>
      </trkpt>
      <trkpt lat="46.046014241874218" lon="9.310662215575576">
        <ele>394.27999999999997</ele>
        <time>2012-10-18T11:13:32Z</time>
      </trkpt>
      <trkpt lat="46.04611306451261" lon="9.310760200023651">
        <ele>394.27999999999997</ele>
        <time>2012-10-18T11:13:44Z</time>
      </trkpt>
      <trkpt lat="46.046201661229134" lon="9.310845527797937">
        <ele>393.31999999999999</ele>
        <time>2012-10-18T11:13:54Z</time>
      </trkpt>
      <trkpt lat="46.046301824972034" lon="9.310895316302776">
        <ele>392.36000000000001</ele>
        <time>2012-10-18T11:14:03Z</time>
      </trkpt>
      <trkpt lat="46.046382375061512" lon="9.310981230810285">
        <ele>392.36000000000001</ele>
        <time>2012-10-18T11:14:10Z</time>
      </trkpt>
      <trkpt lat="46.046473905444145" lon="9.311126908287406">
        <ele>393.31999999999999</ele>
        <time>2012-10-18T11:14:27Z</time>
      </trkpt>
      <trkpt lat="46.04653375223279" lon="9.311252133920789">
        <ele>393.31999999999999</ele>
        <time>2012-10-18T11:14:39Z</time>
      </trkpt>
      <trkpt lat="46.046649338677526" lon="9.311356153339148">
        <ele>391.87</ele>
        <time>2012-10-18T11:14:54Z</time>
      </trkpt>
      <trkpt lat="46.04684597812593" lon="9.311592690646648">
        <ele>392.36000000000001</ele>
        <time>2012-10-18T11:15:18Z</time>
      </trkpt>
      <trkpt lat="46.047022584825754" lon="9.311823695898056">
        <ele>394.27999999999997</ele>
        <time>2012-10-18T11:15:40Z</time>
      </trkpt>
      <trkpt lat="46.047042617574334" lon="9.311844734475017">
        <ele>394.27999999999997</ele>
        <time>2012-10-18T11:15:43Z</time>
      </trkpt>
      <trkpt lat="46.047137752175331" lon="9.312027124688029">
        <ele>395.24000000000001</ele>
        <time>2012-10-18T11:16:02Z</time>
      </trkpt>
      <trkpt lat="46.047191312536597" lon="9.3122289609164">
        <ele>397.16000000000003</ele>
        <time>2012-10-18T11:16:24Z</time>
      </trkpt>
      <trkpt lat="46.047171195968986" lon="9.312227955088019">
        <ele>396.68000000000001</ele>
        <time>2012-10-18T11:16:55Z</time>
      </trkpt>
      <trkpt lat="46.047202879562974" lon="9.312194930389524">
        <ele>396.19999999999999</ele>
        <time>2012-10-18T11:16:59Z</time>
      </trkpt>
      <trkpt lat="46.047212351113558" lon="9.312151260674">
        <ele>396.19999999999999</ele>
        <time>2012-10-18T11:17:13Z</time>
      </trkpt>
      <trkpt lat="46.047267001122236" lon="9.312258800491691">
        <ele>395.24000000000001</ele>
        <time>2012-10-18T11:17:24Z</time>
      </trkpt>
      <trkpt lat="46.047375211492181" lon="9.312557866796851">
        <ele>396.19999999999999</ele>
        <time>2012-10-18T11:17:43Z</time>
      </trkpt>
      <trkpt lat="46.047330116853118" lon="9.312663646414876">
        <ele>397.63999999999999</ele>
        <time>2012-10-18T11:17:58Z</time>
      </trkpt>
      <trkpt lat="46.047216793522239" lon="9.312856094911695">
        <ele>400.52999999999997</ele>
        <time>2012-10-18T11:18:17Z</time>
      </trkpt>
      <trkpt lat="46.047241855412722" lon="9.312985762953758">
        <ele>401.00999999999999</ele>
        <time>2012-10-18T11:18:38Z</time>
      </trkpt>
      <trkpt lat="46.047376804053783" lon="9.313042592257261">
        <ele>400.52999999999997</ele>
        <time>2012-10-18T11:18:55Z</time>
      </trkpt>
      <trkpt lat="46.047408822923899" lon="9.313055835664272">
        <ele>400.52999999999997</ele>
        <time>2012-10-18T11:18:59Z</time>
      </trkpt>
      <trkpt lat="46.047613592818379" lon="9.313128590583801">
        <ele>401.97000000000003</ele>
        <time>2012-10-18T11:19:20Z</time>
      </trkpt>
      <trkpt lat="46.047633290290833" lon="9.313141917809844">
        <ele>401.97000000000003</ele>
        <time>2012-10-18T11:19:23Z</time>
      </trkpt>
      <trkpt lat="46.047812746837735" lon="9.313320117071271">
        <ele>402.93000000000001</ele>
        <time>2012-10-18T11:19:42Z</time>
      </trkpt>
      <trkpt lat="46.04782129637897" lon="9.313329672440887">
        <ele>402.93000000000001</ele>
        <time>2012-10-18T11:19:43Z</time>
      </trkpt>
      <trkpt lat="46.0479336977005" lon="9.313403768464923">
        <ele>401.97000000000003</ele>
        <time>2012-10-18T11:19:58Z</time>
      </trkpt>
      <trkpt lat="46.047966470941901" lon="9.313584817573428">
        <ele>401.00999999999999</ele>
        <time>2012-10-18T11:20:12Z</time>
      </trkpt>
      <trkpt lat="46.04797619394958" lon="9.313695039600134">
        <ele>398.60000000000002</ele>
        <time>2012-10-18T11:20:26Z</time>
      </trkpt>
      <trkpt lat="46.047973847016692" lon="9.313738793134689">
        <ele>398.12</ele>
        <time>2012-10-18T11:20:30Z</time>
      </trkpt>
      <trkpt lat="46.04798398911953" lon="9.313846416771412">
        <ele>394.75999999999999</ele>
        <time>2012-10-18T11:20:40Z</time>
      </trkpt>
      <trkpt lat="46.04798105545342" lon="9.31385655887425">
        <ele>394.27999999999997</ele>
        <time>2012-10-18T11:20:41Z</time>
      </trkpt>
      <trkpt lat="46.048040399327874" lon="9.314008858054876">
        <ele>392.83999999999997</ele>
        <time>2012-10-18T11:20:59Z</time>
      </trkpt>
      <trkpt lat="46.048074429854751" lon="9.31406962685287">
        <ele>392.83999999999997</ele>
        <time>2012-10-18T11:21:04Z</time>
      </trkpt>
      <trkpt lat="46.048181299120188" lon="9.314076332375407">
        <ele>393.31999999999999</ele>
        <time>2012-10-18T11:21:11Z</time>
      </trkpt>
      <trkpt lat="46.048300238326192" lon="9.314024448394775">
        <ele>393.31999999999999</ele>
        <time>2012-10-18T11:21:19Z</time>
      </trkpt>
      <trkpt lat="46.048420937731862" lon="9.31413508951664">
        <ele>394.75999999999999</ele>
        <time>2012-10-18T11:21:34Z</time>
      </trkpt>
      <trkpt lat="46.048469971865416" lon="9.314192673191428">
        <ele>394.75999999999999</ele>
        <time>2012-10-18T11:21:47Z</time>
      </trkpt>
      <trkpt lat="46.048585223034024" lon="9.31433692574501">
        <ele>395.72000000000003</ele>
        <time>2012-10-18T11:22:03Z</time>
      </trkpt>
      <trkpt lat="46.048698797821999" lon="9.314481932669878">
        <ele>396.68000000000001</ele>
        <time>2012-10-18T11:22:18Z</time>
      </trkpt>
      <trkpt lat="46.048808768391609" lon="9.314649235457182">
        <ele>398.60000000000002</ele>
        <time>2012-10-18T11:22:32Z</time>
      </trkpt>
      <trkpt lat="46.048903651535511" lon="9.314733473584056">
        <ele>398.12</ele>
        <time>2012-10-18T11:22:43Z</time>
      </trkpt>
      <trkpt lat="46.049039270728827" lon="9.314785441383719">
        <ele>397.63999999999999</ele>
        <time>2012-10-18T11:22:59Z</time>
      </trkpt>
      <trkpt lat="46.049110936000943" lon="9.314713189378381">
        <ele>394.27999999999997</ele>
        <time>2012-10-18T11:23:12Z</time>
      </trkpt>
      <trkpt lat="46.049166424199939" lon="9.314636243507266">
        <ele>393.31999999999999</ele>
        <time>2012-10-18T11:23:26Z</time>
      </trkpt>
      <trkpt lat="46.04916893877089" lon="9.314680164679885">
        <ele>392.36000000000001</ele>
        <time>2012-10-18T11:23:55Z</time>
      </trkpt>
      <trkpt lat="46.049161395058036" lon="9.314707238227129">
        <ele>392.36000000000001</ele>
        <time>2012-10-18T11:24:14Z</time>
      </trkpt>
      <trkpt lat="46.049157874658704" lon="9.314769096672535">
        <ele>390.43000000000001</ele>
        <time>2012-10-18T11:24:27Z</time>
      </trkpt>
      <trkpt lat="46.049188133329153" lon="9.314756439998746">
        <ele>389.94999999999999</ele>
        <time>2012-10-18T11:24:30Z</time>
      </trkpt>
      <trkpt lat="46.049280418083072" lon="9.314803797751665">
        <ele>386.58999999999997</ele>
        <time>2012-10-18T11:24:41Z</time>
      </trkpt>
      <trkpt lat="46.0493169631809" lon="9.314807485789061">
        <ele>384.66000000000003</ele>
        <time>2012-10-18T11:24:48Z</time>
      </trkpt>
      <trkpt lat="46.049332553520799" lon="9.314798600971699">
        <ele>383.69999999999999</ele>
        <time>2012-10-18T11:24:50Z</time>
      </trkpt>
      <trkpt lat="46.049346383661032" lon="9.314792230725288">
        <ele>383.69999999999999</ele>
        <time>2012-10-18T11:24:51Z</time>
      </trkpt>
      <trkpt lat="46.049477476626635" lon="9.314841264858842">
        <ele>380.33999999999997</ele>
        <time>2012-10-18T11:25:04Z</time>
      </trkpt>
      <trkpt lat="46.049557020887733" lon="9.314845958724618">
        <ele>377.44999999999999</ele>
        <time>2012-10-18T11:25:15Z</time>
      </trkpt>
      <trkpt lat="46.049677468836308" lon="9.314903542399406">
        <ele>375.05000000000001</ele>
        <time>2012-10-18T11:25:28Z</time>
      </trkpt>
      <trkpt lat="46.049787690863013" lon="9.314918462187052">
        <ele>372.17000000000002</ele>
        <time>2012-10-18T11:25:40Z</time>
      </trkpt>
      <trkpt lat="46.049902774393559" lon="9.315038910135627">
        <ele>369.75999999999999</ele>
        <time>2012-10-18T11:25:54Z</time>
      </trkpt>
      <trkpt lat="46.049932781606913" lon="9.315086016431451">
        <ele>369.27999999999997</ele>
        <time>2012-10-18T11:25:58Z</time>
      </trkpt>
      <trkpt lat="46.050037555396557" lon="9.315078472718597">
        <ele>368.80000000000001</ele>
        <time>2012-10-18T11:26:10Z</time>
      </trkpt>
      <trkpt lat="46.050075776875019" lon="9.315015189349651">
        <ele>368.80000000000001</ele>
        <time>2012-10-18T11:26:15Z</time>
      </trkpt>
      <trkpt lat="46.050090445205569" lon="9.314990378916264">
        <ele>368.31999999999999</ele>
        <time>2012-10-18T11:26:17Z</time>
      </trkpt>
      <trkpt lat="46.050116345286369" lon="9.314996413886547">
        <ele>368.31999999999999</ele>
        <time>2012-10-18T11:26:19Z</time>
      </trkpt>
      <trkpt lat="46.050159009173512" lon="9.315065983682871">
        <ele>369.27999999999997</ele>
        <time>2012-10-18T11:26:25Z</time>
      </trkpt>
      <trkpt lat="46.050310721620917" lon="9.315250553190708">
        <ele>370.73000000000002</ele>
        <time>2012-10-18T11:26:41Z</time>
      </trkpt>
      <trkpt lat="46.050419434905052" lon="9.315396649762988">
        <ele>371.20999999999998</ele>
        <time>2012-10-18T11:26:56Z</time>
      </trkpt>
      <trkpt lat="46.050428487360477" lon="9.31540017016232">
        <ele>370.73000000000002</ele>
        <time>2012-10-18T11:26:57Z</time>
      </trkpt>
      <trkpt lat="46.05057567358017" lon="9.31546613574028">
        <ele>369.75999999999999</ele>
        <time>2012-10-18T11:27:10Z</time>
      </trkpt>
      <trkpt lat="46.050747418776155" lon="9.315549451857805">
        <ele>369.75999999999999</ele>
        <time>2012-10-18T11:27:25Z</time>
      </trkpt>
      <trkpt lat="46.050799638032913" lon="9.315481139346957">
        <ele>367.36000000000001</ele>
        <time>2012-10-18T11:27:38Z</time>
      </trkpt>
      <trkpt lat="46.05081120505929" lon="9.315412659198046">
        <ele>365.44</ele>
        <time>2012-10-18T11:27:45Z</time>
      </trkpt>
      <trkpt lat="46.050822688266635" lon="9.315292462706566">
        <ele>363.04000000000002</ele>
        <time>2012-10-18T11:27:54Z</time>
      </trkpt>
      <trkpt lat="46.050849845632911" lon="9.315269161015749">
        <ele>362.55000000000001</ele>
        <time>2012-10-18T11:27:57Z</time>
      </trkpt>
      <trkpt lat="46.050990493968129" lon="9.315323391929269">
        <ele>360.63</ele>
        <time>2012-10-18T11:28:08Z</time>
      </trkpt>
      <trkpt lat="46.051094848662615" lon="9.315362200140953">
        <ele>360.14999999999998</ele>
        <time>2012-10-18T11:28:18Z</time>
      </trkpt>
      <trkpt lat="46.05114933103323" lon="9.315310483798385">
        <ele>358.23000000000002</ele>
        <time>2012-10-18T11:28:31Z</time>
      </trkpt>
      <trkpt lat="46.051151091232896" lon="9.315250720828772">
        <ele>356.79000000000002</ele>
        <time>2012-10-18T11:28:35Z</time>
      </trkpt>
      <trkpt lat="46.05122460052371" lon="9.315342837944627">
        <ele>355.82999999999998</ele>
        <time>2012-10-18T11:28:42Z</time>
      </trkpt>
      <trkpt lat="46.051317388191819" lon="9.315504105761647">
        <ele>357.26999999999998</ele>
        <time>2012-10-18T11:28:56Z</time>
      </trkpt>
      <trkpt lat="46.051391568034887" lon="9.315622877329588">
        <ele>358.23000000000002</ele>
        <time>2012-10-18T11:29:10Z</time>
      </trkpt>
      <trkpt lat="46.051430376246572" lon="9.315718682482839">
        <ele>357.75</ele>
        <time>2012-10-18T11:29:23Z</time>
      </trkpt>
      <trkpt lat="46.051435489207506" lon="9.315766459330916">
        <ele>356.31</ele>
        <time>2012-10-18T11:29:27Z</time>
      </trkpt>
      <trkpt lat="46.051454516127706" lon="9.315886404365301">
        <ele>354.86000000000001</ele>
        <time>2012-10-18T11:29:42Z</time>
      </trkpt>
      <trkpt lat="46.051479913294315" lon="9.315881794318557">
        <ele>354.38</ele>
        <time>2012-10-18T11:30:06Z</time>
      </trkpt>
      <trkpt lat="46.051534228026867" lon="9.315916830673814">
        <ele>354.86000000000001</ele>
        <time>2012-10-18T11:30:20Z</time>
      </trkpt>
      <trkpt lat="46.051550824195147" lon="9.315913980826736">
        <ele>354.38</ele>
        <time>2012-10-18T11:30:22Z</time>
      </trkpt>
      <trkpt lat="46.051586698740721" lon="9.315876178443432">
        <ele>354.86000000000001</ele>
        <time>2012-10-18T11:30:27Z</time>
      </trkpt>
      <trkpt lat="46.051610754802823" lon="9.315815828740597">
        <ele>354.86000000000001</ele>
        <time>2012-10-18T11:30:32Z</time>
      </trkpt>
      <trkpt lat="46.051659286022186" lon="9.315782804042101">
        <ele>354.86000000000001</ele>
        <time>2012-10-18T11:30:36Z</time>
      </trkpt>
      <trkpt lat="46.051908899098635" lon="9.315776182338595">
        <ele>352.94</ele>
        <time>2012-10-18T11:30:57Z</time>
      </trkpt>
      <trkpt lat="46.051981234923005" lon="9.31572605855763">
        <ele>351.01999999999998</ele>
        <time>2012-10-18T11:31:05Z</time>
      </trkpt>
      <trkpt lat="46.052019288763404" lon="9.315695129334927">
        <ele>351.01999999999998</ele>
        <time>2012-10-18T11:31:09Z</time>
      </trkpt>
      <trkpt lat="46.052107969298959" lon="9.315612819045782">
        <ele>349.57999999999998</ele>
        <time>2012-10-18T11:31:19Z</time>
      </trkpt>
      <trkpt lat="46.052141999825835" lon="9.315571999177337">
        <ele>348.13</ele>
        <time>2012-10-18T11:31:23Z</time>
      </trkpt>
      <trkpt lat="46.052290610969067" lon="9.315589182078838">
        <ele>346.20999999999998</ele>
        <time>2012-10-18T11:31:38Z</time>
      </trkpt>
      <trkpt lat="46.052343333140016" lon="9.315574765205383">
        <ele>346.20999999999998</ele>
        <time>2012-10-18T11:31:53Z</time>
      </trkpt>
      <trkpt lat="46.052357917651534" lon="9.315581219270825">
        <ele>346.20999999999998</ele>
        <time>2012-10-18T11:32:08Z</time>
      </trkpt>
      <trkpt lat="46.052353475242853" lon="9.315566383302212">
        <ele>346.69</ele>
        <time>2012-10-18T11:32:23Z</time>
      </trkpt>
      <trkpt lat="46.052359342575073" lon="9.315545093268156">
        <ele>346.20999999999998</ele>
        <time>2012-10-18T11:32:39Z</time>
      </trkpt>
      <trkpt lat="46.052359091117978" lon="9.31554920040071">
        <ele>345.25</ele>
        <time>2012-10-18T11:32:59Z</time>
      </trkpt>
      <trkpt lat="46.052370741963387" lon="9.315579878166318">
        <ele>345.73000000000002</ele>
        <time>2012-10-18T11:33:23Z</time>
      </trkpt>
      <trkpt lat="46.052365880459547" lon="9.31555992923677">
        <ele>345.25</ele>
        <time>2012-10-18T11:33:47Z</time>
      </trkpt>
      <trkpt lat="46.052356325089931" lon="9.315522378310561">
        <ele>345.25</ele>
        <time>2012-10-18T11:34:04Z</time>
      </trkpt>
      <trkpt lat="46.052363365888596" lon="9.315505363047123">
        <ele>345.25</ele>
        <time>2012-10-18T11:34:06Z</time>
      </trkpt>
      <trkpt lat="46.052423799410462" lon="9.315423555672169">
        <ele>341.41000000000003</ele>
        <time>2012-10-18T11:34:17Z</time>
      </trkpt>
      <trkpt lat="46.052487585693598" lon="9.315331606194377">
        <ele>338.04000000000002</ele>
        <time>2012-10-18T11:34:29Z</time>
      </trkpt>
      <trkpt lat="46.05253653600812" lon="9.31528433226049">
        <ele>335.63999999999999</ele>
        <time>2012-10-18T11:34:43Z</time>
      </trkpt>
      <trkpt lat="46.052619852125645" lon="9.315206632018089">
        <ele>332.26999999999998</ele>
        <time>2012-10-18T11:34:56Z</time>
      </trkpt>
      <trkpt lat="46.052674083039165" lon="9.315110826864839">
        <ele>330.82999999999998</ele>
        <time>2012-10-18T11:35:09Z</time>
      </trkpt>
      <trkpt lat="46.052715657278895" lon="9.315036227926612">
        <ele>327.94999999999999</ele>
        <time>2012-10-18T11:35:21Z</time>
      </trkpt>
      <trkpt lat="46.052736863493919" lon="9.314954085275531">
        <ele>326.01999999999998</ele>
        <time>2012-10-18T11:35:34Z</time>
      </trkpt>
      <trkpt lat="46.052719345316291" lon="9.314927598461509">
        <ele>326.01999999999998</ele>
        <time>2012-10-18T11:35:55Z</time>
      </trkpt>
      <trkpt lat="46.052717668935657" lon="9.31492323987186">
        <ele>326.5</ele>
        <time>2012-10-18T11:35:58Z</time>
      </trkpt>
      <trkpt lat="46.052734265103936" lon="9.314852496609092">
        <ele>323.13999999999999</ele>
        <time>2012-10-18T11:36:06Z</time>
      </trkpt>
      <trkpt lat="46.052775420248508" lon="9.314776724204421">
        <ele>321.22000000000003</ele>
        <time>2012-10-18T11:36:12Z</time>
      </trkpt>
      <trkpt lat="46.052809869870543" lon="9.31479524821043">
        <ele>319.30000000000001</ele>
        <time>2012-10-18T11:36:15Z</time>
      </trkpt>
      <trkpt lat="46.052871812134981" lon="9.314882252365351">
        <ele>318.81</ele>
        <time>2012-10-18T11:36:21Z</time>
      </trkpt>
      <trkpt lat="46.053064931184053" lon="9.315048297867179">
        <ele>319.30000000000001</ele>
        <time>2012-10-18T11:36:40Z</time>
      </trkpt>
      <trkpt lat="46.053129052743316" lon="9.315096074715257">
        <ele>319.30000000000001</ele>
        <time>2012-10-18T11:36:48Z</time>
      </trkpt>
      <trkpt lat="46.053199544548988" lon="9.315095152705908">
        <ele>319.77999999999997</ele>
        <time>2012-10-18T11:36:54Z</time>
      </trkpt>
      <trkpt lat="46.053252015262842" lon="9.315074533224106">
        <ele>319.77999999999997</ele>
        <time>2012-10-18T11:36:59Z</time>
      </trkpt>
      <trkpt lat="46.053387885913253" lon="9.315106635913253">
        <ele>319.77999999999997</ele>
        <time>2012-10-18T11:37:13Z</time>
      </trkpt>
      <trkpt lat="46.053551249206066" lon="9.315108815208077">
        <ele>320.25999999999999</ele>
        <time>2012-10-18T11:37:28Z</time>
      </trkpt>
      <trkpt lat="46.053697178140283" lon="9.315081657841802">
        <ele>320.74000000000001</ele>
        <time>2012-10-18T11:37:42Z</time>
      </trkpt>
      <trkpt lat="46.053905133157969" lon="9.315114850178361">
        <ele>320.74000000000001</ele>
        <time>2012-10-18T11:38:01Z</time>
      </trkpt>
      <trkpt lat="46.054045194759965" lon="9.31519003584981">
        <ele>321.22000000000003</ele>
        <time>2012-10-18T11:38:16Z</time>
      </trkpt>
      <trkpt lat="46.054209731519222" lon="9.315211828798056">
        <ele>322.18000000000001</ele>
        <time>2012-10-18T11:38:34Z</time>
      </trkpt>
      <trkpt lat="46.054354067891836" lon="9.315263377502561">
        <ele>324.10000000000002</ele>
        <time>2012-10-18T11:38:48Z</time>
      </trkpt>
      <trkpt lat="46.054505277425051" lon="9.315312830731273">
        <ele>325.06</ele>
        <time>2012-10-18T11:39:04Z</time>
      </trkpt>
      <trkpt lat="46.054686075076461" lon="9.315371755510569">
        <ele>325.06</ele>
        <time>2012-10-18T11:39:22Z</time>
      </trkpt>
      <trkpt lat="46.054708538576961" lon="9.315380556508899">
        <ele>325.06</ele>
        <time>2012-10-18T11:39:24Z</time>
      </trkpt>
      <trkpt lat="46.054887743666768" lon="9.315507793799043">
        <ele>326.01999999999998</ele>
        <time>2012-10-18T11:39:41Z</time>
      </trkpt>
      <trkpt lat="46.055018501356244" lon="9.315467728301883">
        <ele>327.94999999999999</ele>
        <time>2012-10-18T11:39:55Z</time>
      </trkpt>
      <trkpt lat="46.055153869092464" lon="9.315483905375004">
        <ele>329.87</ele>
        <time>2012-10-18T11:40:09Z</time>
      </trkpt>
      <trkpt lat="46.055281106382608" lon="9.315475439652801">
        <ele>331.31</ele>
        <time>2012-10-18T11:40:22Z</time>
      </trkpt>
      <trkpt lat="46.055384119972587" lon="9.315484575927258">
        <ele>334.19999999999999</ele>
        <time>2012-10-18T11:40:33Z</time>
      </trkpt>
      <trkpt lat="46.055508591234684" lon="9.315503938123584">
        <ele>333.70999999999998</ele>
        <time>2012-10-18T11:40:49Z</time>
      </trkpt>
      <trkpt lat="46.055536502972245" lon="9.315512487664819">
        <ele>336.12</ele>
        <time>2012-10-18T11:40:53Z</time>
      </trkpt>
      <trkpt lat="46.055654436349869" lon="9.315564874559641">
        <ele>338.51999999999998</ele>
        <time>2012-10-18T11:41:07Z</time>
      </trkpt>
      <trkpt lat="46.055833222344518" lon="9.315642323344946">
        <ele>341.41000000000003</ele>
        <time>2012-10-18T11:41:26Z</time>
      </trkpt>
      <trkpt lat="46.055923579260707" lon="9.315570238977671">
        <ele>343.32999999999998</ele>
        <time>2012-10-18T11:41:42Z</time>
      </trkpt>
      <trkpt lat="46.055957274511456" lon="9.315570741891861">
        <ele>342.37</ele>
        <time>2012-10-18T11:41:56Z</time>
      </trkpt>
      <trkpt lat="46.055984096601605" lon="9.315597396343947">
        <ele>341.88999999999999</ele>
        <time>2012-10-18T11:42:17Z</time>
      </trkpt>
      <trkpt lat="46.055978564545512" lon="9.315623715519905">
        <ele>341.88999999999999</ele>
        <time>2012-10-18T11:42:33Z</time>
      </trkpt>
      <trkpt lat="46.056114938110113" lon="9.315600581467152">
        <ele>343.81</ele>
        <time>2012-10-18T11:42:52Z</time>
      </trkpt>
      <trkpt lat="46.056141424924135" lon="9.315598569810391">
        <ele>345.73000000000002</ele>
        <time>2012-10-18T11:42:55Z</time>
      </trkpt>
      <trkpt lat="46.0562364757061" lon="9.315572082996368">
        <ele>347.64999999999998</ele>
        <time>2012-10-18T11:43:07Z</time>
      </trkpt>
      <trkpt lat="46.056377375498414" lon="9.315549787133932">
        <ele>350.54000000000002</ele>
        <time>2012-10-18T11:43:24Z</time>
      </trkpt>
      <trkpt lat="46.056523639708757" lon="9.315695213153958">
        <ele>352.45999999999998</ele>
        <time>2012-10-18T11:43:40Z</time>
      </trkpt>
      <trkpt lat="46.056637214496732" lon="9.315830413252115">
        <ele>354.38</ele>
        <time>2012-10-18T11:43:57Z</time>
      </trkpt>
      <trkpt lat="46.056690020486712" lon="9.31582722812891">
        <ele>355.33999999999997</ele>
        <time>2012-10-18T11:44:05Z</time>
      </trkpt>
      <trkpt lat="46.056765289977193" lon="9.31579302996397">
        <ele>356.31</ele>
        <time>2012-10-18T11:44:12Z</time>
      </trkpt>
      <trkpt lat="46.056923372671008" lon="9.315670402720571">
        <ele>354.86000000000001</ele>
        <time>2012-10-18T11:44:29Z</time>
      </trkpt>
      <trkpt lat="46.057038204744458" lon="9.315719185397029">
        <ele>352.45999999999998</ele>
        <time>2012-10-18T11:44:43Z</time>
      </trkpt>
      <trkpt lat="46.057112971320748" lon="9.315862348303199">
        <ele>350.54000000000002</ele>
        <time>2012-10-18T11:44:56Z</time>
      </trkpt>
      <trkpt lat="46.057218164205551" lon="9.315826557576656">
        <ele>350.54000000000002</ele>
        <time>2012-10-18T11:45:10Z</time>
      </trkpt>
      <trkpt lat="46.057270970195532" lon="9.31578766554594">
        <ele>351.01999999999998</ele>
        <time>2012-10-18T11:45:23Z</time>
      </trkpt>
      <trkpt lat="46.057274071499705" lon="9.315766040235758">
        <ele>350.06</ele>
        <time>2012-10-18T11:45:36Z</time>
      </trkpt>
      <trkpt lat="46.057266276329756" lon="9.315760005265474">
        <ele>350.06</ele>
        <time>2012-10-18T11:45:55Z</time>
      </trkpt>
      <trkpt lat="46.057264264672995" lon="9.315746761858463">
        <ele>350.06</ele>
        <time>2012-10-18T11:46:12Z</time>
      </trkpt>
      <trkpt lat="46.05725135654211" lon="9.315764280036092">
        <ele>350.54000000000002</ele>
        <time>2012-10-18T11:46:23Z</time>
      </trkpt>
      <trkpt lat="46.057265605777502" lon="9.315719017758966">
        <ele>350.54000000000002</ele>
        <time>2012-10-18T11:46:31Z</time>
      </trkpt>
      <trkpt lat="46.057329727336764" lon="9.315652381628752">
        <ele>349.57999999999998</ele>
        <time>2012-10-18T11:46:45Z</time>
      </trkpt>
      <trkpt lat="46.057353615760803" lon="9.315666630864143">
        <ele>350.06</ele>
        <time>2012-10-18T11:47:01Z</time>
      </trkpt>
      <trkpt lat="46.057492503896356" lon="9.315643915906549">
        <ele>350.54000000000002</ele>
        <time>2012-10-18T11:47:17Z</time>
      </trkpt>
      <trkpt lat="46.057718899101019" lon="9.315549954771996">
        <ele>351.01999999999998</ele>
        <time>2012-10-18T11:47:39Z</time>
      </trkpt>
      <trkpt lat="46.05793297290802" lon="9.315411653369665">
        <ele>351.01999999999998</ele>
        <time>2012-10-18T11:48:03Z</time>
      </trkpt>
      <trkpt lat="46.057984102517366" lon="9.315403020009399">
        <ele>351.5</ele>
        <time>2012-10-18T11:48:09Z</time>
      </trkpt>
      <trkpt lat="46.058101281523705" lon="9.315393883734942">
        <ele>351.98000000000002</ele>
        <time>2012-10-18T11:48:21Z</time>
      </trkpt>
      <trkpt lat="46.058230865746737" lon="9.315235298126936">
        <ele>352.94</ele>
        <time>2012-10-18T11:48:37Z</time>
      </trkpt>
      <trkpt lat="46.058325916528702" lon="9.315114514902234">
        <ele>355.82999999999998</ele>
        <time>2012-10-18T11:48:52Z</time>
      </trkpt>
      <trkpt lat="46.058413088321686" lon="9.315060535445809">
        <ele>358.23000000000002</ele>
        <time>2012-10-18T11:49:05Z</time>
      </trkpt>
      <trkpt lat="46.058517107740045" lon="9.315043604001403">
        <ele>361.11000000000001</ele>
        <time>2012-10-18T11:49:20Z</time>
      </trkpt>
      <trkpt lat="46.058612996712327" lon="9.315041927620769">
        <ele>363.51999999999998</ele>
        <time>2012-10-18T11:49:32Z</time>
      </trkpt>
      <trkpt lat="46.058696983382106" lon="9.315051985904574">
        <ele>365.92000000000002</ele>
        <time>2012-10-18T11:49:47Z</time>
      </trkpt>
      <trkpt lat="46.058780131861567" lon="9.315012758597732">
        <ele>368.31999999999999</ele>
        <time>2012-10-18T11:49:59Z</time>
      </trkpt>
      <trkpt lat="46.058853138238192" lon="9.315021727234125">
        <ele>369.27999999999997</ele>
        <time>2012-10-18T11:50:15Z</time>
      </trkpt>
      <trkpt lat="46.058998396620154" lon="9.315074533224106">
        <ele>371.69</ele>
        <time>2012-10-18T11:50:32Z</time>
      </trkpt>
      <trkpt lat="46.059092441573739" lon="9.315101942047477">
        <ele>373.13</ele>
        <time>2012-10-18T11:50:46Z</time>
      </trkpt>
      <trkpt lat="46.059269132092595" lon="9.315162962302566">
        <ele>374.56999999999999</ele>
        <time>2012-10-18T11:51:04Z</time>
      </trkpt>
      <trkpt lat="46.059341300278902" lon="9.315301598981023">
        <ele>375.05000000000001</ele>
        <time>2012-10-18T11:51:16Z</time>
      </trkpt>
      <trkpt lat="46.059394693002105" lon="9.315541908144951">
        <ele>374.56999999999999</ele>
        <time>2012-10-18T11:51:32Z</time>
      </trkpt>
      <trkpt lat="46.059500807896256" lon="9.315798226743937">
        <ele>373.61000000000001</ele>
        <time>2012-10-18T11:51:50Z</time>
      </trkpt>
      <trkpt lat="46.059581441804767" lon="9.31597919203341">
        <ele>371.20999999999998</ele>
        <time>2012-10-18T11:52:05Z</time>
      </trkpt>
      <trkpt lat="46.059663584455848" lon="9.316157223656774">
        <ele>369.75999999999999</ele>
        <time>2012-10-18T11:52:20Z</time>
      </trkpt>
      <trkpt lat="46.059704069048166" lon="9.31627918034792">
        <ele>368.31999999999999</ele>
        <time>2012-10-18T11:52:30Z</time>
      </trkpt>
      <trkpt lat="46.059737764298916" lon="9.316326370462775">
        <ele>368.31999999999999</ele>
        <time>2012-10-18T11:52:38Z</time>
      </trkpt>
      <trkpt lat="46.059808004647493" lon="9.316233247518539">
        <ele>369.75999999999999</ele>
        <time>2012-10-18T11:52:54Z</time>
      </trkpt>
      <trkpt lat="46.059865755960345" lon="9.316034931689501">
        <ele>373.13</ele>
        <time>2012-10-18T11:53:12Z</time>
      </trkpt>
      <trkpt lat="46.059944964945316" lon="9.315850026905537">
        <ele>375.05000000000001</ele>
        <time>2012-10-18T11:53:28Z</time>
      </trkpt>
      <trkpt lat="46.060005314648151" lon="9.315715581178665">
        <ele>375.05000000000001</ele>
        <time>2012-10-18T11:53:40Z</time>
      </trkpt>
      <trkpt lat="46.060050828382373" lon="9.315504608675838">
        <ele>374.56999999999999</ele>
        <time>2012-10-18T11:53:54Z</time>
      </trkpt>
      <trkpt lat="46.060148226097226" lon="9.315378963947296">
        <ele>375.05000000000001</ele>
        <time>2012-10-18T11:54:06Z</time>
      </trkpt>
      <trkpt lat="46.060257023200393" lon="9.315271843224764">
        <ele>374.56999999999999</ele>
        <time>2012-10-18T11:54:18Z</time>
      </trkpt>
      <trkpt lat="46.060332795605063" lon="9.315236052498221">
        <ele>374.56999999999999</ele>
        <time>2012-10-18T11:54:25Z</time>
      </trkpt>
      <trkpt lat="46.060471013188362" lon="9.315126584842801">
        <ele>376.00999999999999</ele>
        <time>2012-10-18T11:54:39Z</time>
      </trkpt>
      <trkpt lat="46.060480065643787" lon="9.315119292587042">
        <ele>376.00999999999999</ele>
        <time>2012-10-18T11:54:40Z</time>
      </trkpt>
      <trkpt lat="46.060549216344953" lon="9.315032623708248">
        <ele>376.49000000000001</ele>
        <time>2012-10-18T11:54:49Z</time>
      </trkpt>
      <trkpt lat="46.060565309599042" lon="9.315008483827114">
        <ele>376.97000000000003</ele>
        <time>2012-10-18T11:54:51Z</time>
      </trkpt>
      <trkpt lat="46.06066538952291" lon="9.314883761107922">
        <ele>379.86000000000001</ele>
        <time>2012-10-18T11:55:06Z</time>
      </trkpt>
      <trkpt lat="46.060709729790688" lon="9.314755434170365">
        <ele>381.30000000000001</ele>
        <time>2012-10-18T11:55:19Z</time>
      </trkpt>
      <trkpt lat="46.060756165534258" lon="9.314671363681555">
        <ele>382.74000000000001</ele>
        <time>2012-10-18T11:55:32Z</time>
      </trkpt>
      <trkpt lat="46.060863453894854" lon="9.314588801935315">
        <ele>384.18000000000001</ele>
        <time>2012-10-18T11:55:47Z</time>
      </trkpt>
      <trkpt lat="46.060876445844769" lon="9.314578743651509">
        <ele>384.18000000000001</ele>
        <time>2012-10-18T11:55:49Z</time>
      </trkpt>
      <trkpt lat="46.060995133593678" lon="9.314494840800762">
        <ele>382.74000000000001</ele>
        <time>2012-10-18T11:56:03Z</time>
      </trkpt>
      <trkpt lat="46.061123125255108" lon="9.314444717019796">
        <ele>382.25999999999999</ele>
        <time>2012-10-18T11:56:16Z</time>
      </trkpt>
      <trkpt lat="46.061154808849096" lon="9.314394760876894">
        <ele>381.77999999999997</ele>
        <time>2012-10-18T11:56:20Z</time>
      </trkpt>
      <trkpt lat="46.061262683942914" lon="9.314219411462545">
        <ele>380.81999999999999</ele>
        <time>2012-10-18T11:56:36Z</time>
      </trkpt>
      <trkpt lat="46.061411798000336" lon="9.314088989049196">
        <ele>379.38</ele>
        <time>2012-10-18T11:56:53Z</time>
      </trkpt>
      <trkpt lat="46.061561331152916" lon="9.314113548025489">
        <ele>378.42000000000002</ele>
        <time>2012-10-18T11:57:08Z</time>
      </trkpt>
      <trkpt lat="46.061697956174612" lon="9.314076164737344">
        <ele>375.52999999999997</ele>
        <time>2012-10-18T11:57:22Z</time>
      </trkpt>
      <trkpt lat="46.061800131574273" lon="9.314069207757711">
        <ele>375.05000000000001</ele>
        <time>2012-10-18T11:57:34Z</time>
      </trkpt>
      <trkpt lat="46.061956286430359" lon="9.313909281045198">
        <ele>375.05000000000001</ele>
        <time>2012-10-18T11:57:50Z</time>
      </trkpt>
      <trkpt lat="46.062089893966913" lon="9.313842728734016">
        <ele>376.00999999999999</ele>
        <time>2012-10-18T11:58:04Z</time>
      </trkpt>
      <trkpt lat="46.062211347743869" lon="9.313781624659896">
        <ele>373.13</ele>
        <time>2012-10-18T11:58:18Z</time>
      </trkpt>
      <trkpt lat="46.062290389090776" lon="9.313696045428515">
        <ele>369.75999999999999</ele>
        <time>2012-10-18T11:58:32Z</time>
      </trkpt>
      <trkpt lat="46.062336908653378" lon="9.313628571107984">
        <ele>366.88</ele>
        <time>2012-10-18T11:58:43Z</time>
      </trkpt>
      <trkpt lat="46.062362473458052" lon="9.313573921099305">
        <ele>364</ele>
        <time>2012-10-18T11:58:56Z</time>
      </trkpt>
      <trkpt lat="46.062423996627331" lon="9.313532514497638">
        <ele>362.06999999999999</ele>
        <time>2012-10-18T11:59:08Z</time>
      </trkpt>
      <trkpt lat="46.062451489269733" lon="9.313474511727691">
        <ele>361.58999999999997</ele>
        <time>2012-10-18T11:59:22Z</time>
      </trkpt>
      <trkpt lat="46.062503373250365" lon="9.313431596383452">
        <ele>361.11000000000001</ele>
        <time>2012-10-18T11:59:29Z</time>
      </trkpt>
      <trkpt lat="46.06261108070612" lon="9.31334207765758">
        <ele>358.70999999999998</ele>
        <time>2012-10-18T11:59:42Z</time>
      </trkpt>
      <trkpt lat="46.062735384330153" lon="9.313288265839219">
        <ele>357.75</ele>
        <time>2012-10-18T11:59:55Z</time>
      </trkpt>
      <trkpt lat="46.06286957859993" lon="9.313255827873945">
        <ele>356.31</ele>
        <time>2012-10-18T12:00:08Z</time>
      </trkpt>
      <trkpt lat="46.062918109819293" lon="9.313265467062593">
        <ele>355.33999999999997</ele>
        <time>2012-10-18T12:00:13Z</time>
      </trkpt>
      <trkpt lat="46.062955996021628" lon="9.313261024653912">
        <ele>355.82999999999998</ele>
        <time>2012-10-18T12:00:17Z</time>
      </trkpt>
      <trkpt lat="46.063086166977882" lon="9.313248367980123">
        <ele>353.89999999999998</ele>
        <time>2012-10-18T12:00:31Z</time>
      </trkpt>
      <trkpt lat="46.063220696523786" lon="9.313165387138724">
        <ele>351.01999999999998</ele>
        <time>2012-10-18T12:00:49Z</time>
      </trkpt>
      <trkpt lat="46.063297055661678" lon="9.313090704381466">
        <ele>347.64999999999998</ele>
        <time>2012-10-18T12:01:02Z</time>
      </trkpt>
      <trkpt lat="46.063366876915097" lon="9.313036557286978">
        <ele>344.76999999999998</ele>
        <time>2012-10-18T12:01:13Z</time>
      </trkpt>
      <trkpt lat="46.063492773100734" lon="9.312993139028549">
        <ele>341.41000000000003</ele>
        <time>2012-10-18T12:01:27Z</time>
      </trkpt>
      <trkpt lat="46.063616238534451" lon="9.312979560345411">
        <ele>340.44</ele>
        <time>2012-10-18T12:01:39Z</time>
      </trkpt>
      <trkpt lat="46.063764849677682" lon="9.313032114878297">
        <ele>340.44</ele>
        <time>2012-10-18T12:01:53Z</time>
      </trkpt>
      <trkpt lat="46.063894098624587" lon="9.312957180663943">
        <ele>339.95999999999998</ele>
        <time>2012-10-18T12:02:08Z</time>
      </trkpt>
      <trkpt lat="46.06394992209971" lon="9.312878726050258">
        <ele>337.07999999999998</ele>
        <time>2012-10-18T12:02:20Z</time>
      </trkpt>
      <trkpt lat="46.064004823565483" lon="9.312823824584484">
        <ele>333.70999999999998</ele>
        <time>2012-10-18T12:02:32Z</time>
      </trkpt>
      <trkpt lat="46.064031980931759" lon="9.312818041071296">
        <ele>332.75</ele>
        <time>2012-10-18T12:02:36Z</time>
      </trkpt>
      <trkpt lat="46.064143124967813" lon="9.312766240909696">
        <ele>330.82999999999998</ele>
        <time>2012-10-18T12:02:49Z</time>
      </trkpt>
      <trkpt lat="46.064152512699366" lon="9.312768587842584">
        <ele>330.82999999999998</ele>
        <time>2012-10-18T12:02:50Z</time>
      </trkpt>
      <trkpt lat="46.064173551276326" lon="9.312774622812867">
        <ele>330.82999999999998</ele>
        <time>2012-10-18T12:02:52Z</time>
      </trkpt>
      <trkpt lat="46.064294502139091" lon="9.312772862613201">
        <ele>330.35000000000002</ele>
        <time>2012-10-18T12:03:06Z</time>
      </trkpt>
      <trkpt lat="46.064262567088008" lon="9.312747297808528">
        <ele>327.94999999999999</ele>
        <time>2012-10-18T12:03:18Z</time>
      </trkpt>
      <trkpt lat="46.064314870163798" lon="9.312641434371471">
        <ele>325.06</ele>
        <time>2012-10-18T12:03:31Z</time>
      </trkpt>
      <trkpt lat="46.064420565962791" lon="9.312571696937084">
        <ele>321.69999999999999</ele>
        <time>2012-10-18T12:03:47Z</time>
      </trkpt>
      <trkpt lat="46.064506312832236" lon="9.312486117705703">
        <ele>318.81</ele>
        <time>2012-10-18T12:04:00Z</time>
      </trkpt>
      <trkpt lat="46.064575631171465" lon="9.312413614243269">
        <ele>317.37</ele>
        <time>2012-10-18T12:04:11Z</time>
      </trkpt>
      <trkpt lat="46.064635142683983" lon="9.312316635623574">
        <ele>314.00999999999999</ele>
        <time>2012-10-18T12:04:24Z</time>
      </trkpt>
      <trkpt lat="46.064691804349422" lon="9.312243545427918">
        <ele>311.12</ele>
        <time>2012-10-18T12:04:36Z</time>
      </trkpt>
      <trkpt lat="46.064774785190821" lon="9.312171628698707">
        <ele>308.24000000000001</ele>
        <time>2012-10-18T12:04:48Z</time>
      </trkpt>
      <trkpt lat="46.064850389957428" lon="9.312070459127426">
        <ele>304.88</ele>
        <time>2012-10-18T12:05:02Z</time>
      </trkpt>
      <trkpt lat="46.064857766032219" lon="9.312062747776508">
        <ele>304.88</ele>
        <time>2012-10-18T12:05:03Z</time>
      </trkpt>
      <trkpt lat="46.064931191504002" lon="9.311989992856979">
        <ele>302.47000000000003</ele>
        <time>2012-10-18T12:05:16Z</time>
      </trkpt>
      <trkpt lat="46.065000928938389" lon="9.311945149675012">
        <ele>299.11000000000001</ele>
        <time>2012-10-18T12:05:27Z</time>
      </trkpt>
      <trkpt lat="46.065066978335381" lon="9.311869293451309">
        <ele>296.69999999999999</ele>
        <time>2012-10-18T12:05:38Z</time>
      </trkpt>
      <trkpt lat="46.065204106271267" lon="9.311815984547138">
        <ele>294.77999999999997</ele>
        <time>2012-10-18T12:05:55Z</time>
      </trkpt>
      <trkpt lat="46.065275436267257" lon="9.311756892129779">
        <ele>294.77999999999997</ele>
        <time>2012-10-18T12:06:02Z</time>
      </trkpt>
      <trkpt lat="46.065317764878273" lon="9.311671061441302">
        <ele>294.30000000000001</ele>
        <time>2012-10-18T12:06:08Z</time>
      </trkpt>
      <trkpt lat="46.065420778468251" lon="9.311586571857333">
        <ele>292.86000000000001</ele>
        <time>2012-10-18T12:06:21Z</time>
      </trkpt>
      <trkpt lat="46.065573245286942" lon="9.311525635421276">
        <ele>293.33999999999997</ele>
        <time>2012-10-18T12:06:36Z</time>
      </trkpt>
      <trkpt lat="46.065657567232847" lon="9.311404349282384">
        <ele>290.94</ele>
        <time>2012-10-18T12:06:54Z</time>
      </trkpt>
      <trkpt lat="46.06572026386857" lon="9.311335785314441">
        <ele>289.00999999999999</ele>
        <time>2012-10-18T12:07:09Z</time>
      </trkpt>
      <trkpt lat="46.06572856195271" lon="9.311311645433307">
        <ele>289.00999999999999</ele>
        <time>2012-10-18T12:07:28Z</time>
      </trkpt>
      <trkpt lat="46.065736776217818" lon="9.311334611847997">
        <ele>289.00999999999999</ele>
        <time>2012-10-18T12:07:52Z</time>
      </trkpt>
      <trkpt lat="46.065754713490605" lon="9.311317931860685">
        <ele>289.00999999999999</ele>
        <time>2012-10-18T12:08:14Z</time>
      </trkpt>
      <trkpt lat="46.065798886120319" lon="9.311268646270037">
        <ele>288.05000000000001</ele>
        <time>2012-10-18T12:08:32Z</time>
      </trkpt>
      <trkpt lat="46.065849680453539" lon="9.311255319043994">
        <ele>288.05000000000001</ele>
        <time>2012-10-18T12:08:54Z</time>
      </trkpt>
      <trkpt lat="46.06598949059844" lon="9.311134284362197">
        <ele>285.64999999999998</ele>
        <time>2012-10-18T12:09:10Z</time>
      </trkpt>
      <trkpt lat="46.066119242459536" lon="9.311036802828312">
        <ele>285.17000000000002</ele>
        <time>2012-10-18T12:09:25Z</time>
      </trkpt>
      <trkpt lat="46.066159978508949" lon="9.311020961031318">
        <ele>285.64999999999998</ele>
        <time>2012-10-18T12:09:30Z</time>
      </trkpt>
      <trkpt lat="46.066259136423469" lon="9.310907134786248">
        <ele>284.69</ele>
        <time>2012-10-18T12:09:42Z</time>
      </trkpt>
      <trkpt lat="46.066315546631813" lon="9.310799343511462">
        <ele>281.31999999999999</ele>
        <time>2012-10-18T12:09:54Z</time>
      </trkpt>
      <trkpt lat="46.066423505544662" lon="9.310702867805958">
        <ele>279.39999999999998</ele>
        <time>2012-10-18T12:10:07Z</time>
      </trkpt>
      <trkpt lat="46.066573290154338" lon="9.31062969379127">
        <ele>277.48000000000002</ele>
        <time>2012-10-18T12:10:23Z</time>
      </trkpt>
      <trkpt lat="46.066668257117271" lon="9.310558447614312">
        <ele>274.58999999999997</ele>
        <time>2012-10-18T12:10:36Z</time>
      </trkpt>
      <trkpt lat="46.066770432516932" lon="9.310488626360893">
        <ele>271.23000000000002</ele>
        <time>2012-10-18T12:10:50Z</time>
      </trkpt>
      <trkpt lat="46.066716955974698" lon="9.310386031866074">
        <ele>268.35000000000002</ele>
        <time>2012-10-18T12:11:04Z</time>
      </trkpt>
      <trkpt lat="46.066694492474198" lon="9.310358455404639">
        <ele>266.89999999999998</ele>
        <time>2012-10-18T12:11:08Z</time>
      </trkpt>
      <trkpt lat="46.066734809428453" lon="9.310276564210653">
        <ele>264.5</ele>
        <time>2012-10-18T12:11:16Z</time>
      </trkpt>
      <trkpt lat="46.066819299012423" lon="9.310210598632693">
        <ele>261.13999999999999</ele>
        <time>2012-10-18T12:11:30Z</time>
      </trkpt>
      <trkpt lat="46.066995821893215" lon="9.310139771550894">
        <ele>258.25</ele>
        <time>2012-10-18T12:11:48Z</time>
      </trkpt>
      <trkpt lat="46.067161113023758" lon="9.310078248381615">
        <ele>254.88999999999999</ele>
        <time>2012-10-18T12:12:04Z</time>
      </trkpt>
      <trkpt lat="46.067240238189697" lon="9.310111943632364">
        <ele>252</ele>
        <time>2012-10-18T12:12:15Z</time>
      </trkpt>
      <trkpt lat="46.067262701690197" lon="9.310134826228023">
        <ele>251.03999999999999</ele>
        <time>2012-10-18T12:12:18Z</time>
      </trkpt>
      <trkpt lat="46.067375438287854" lon="9.310239348560572">
        <ele>247.19999999999999</ele>
        <time>2012-10-18T12:12:35Z</time>
      </trkpt>
      <trkpt lat="46.067427825182676" lon="9.310255525633693">
        <ele>245.75</ele>
        <time>2012-10-18T12:12:50Z</time>
      </trkpt>
      <trkpt lat="46.067506531253457" lon="9.310292238369584">
        <ele>244.31</ele>
        <time>2012-10-18T12:13:03Z</time>
      </trkpt>
      <trkpt lat="46.067589679732919" lon="9.310383182018995">
        <ele>242.87</ele>
        <time>2012-10-18T12:13:16Z</time>
      </trkpt>
      <trkpt lat="46.067664194852114" lon="9.310420146211982">
        <ele>241.91</ele>
        <time>2012-10-18T12:13:33Z</time>
      </trkpt>
      <trkpt lat="46.067729657515883" lon="9.310525758191943">
        <ele>242.87</ele>
        <time>2012-10-18T12:13:49Z</time>
      </trkpt>
      <trkpt lat="46.067849434912205" lon="9.310475047677755">
        <ele>243.83000000000001</ele>
        <time>2012-10-18T12:14:06Z</time>
      </trkpt>
      <trkpt lat="46.067981701344252" lon="9.310384942218661">
        <ele>247.68000000000001</ele>
        <time>2012-10-18T12:14:22Z</time>
      </trkpt>
      <trkpt lat="46.068087313324213" lon="9.31024563498795">
        <ele>250.56</ele>
        <time>2012-10-18T12:14:41Z</time>
      </trkpt>
      <trkpt lat="46.068099802359939" lon="9.310246640816331">
        <ele>250.56</ele>
        <time>2012-10-18T12:15:10Z</time>
      </trkpt>
      <trkpt lat="46.068231984972954" lon="9.310288801789284">
        <ele>250.56</ele>
        <time>2012-10-18T12:15:25Z</time>
      </trkpt>
      <trkpt lat="46.068332735449076" lon="9.310271451249719">
        <ele>251.52000000000001</ele>
        <time>2012-10-18T12:15:40Z</time>
      </trkpt>
      <trkpt lat="46.068337932229042" lon="9.310269271954894">
        <ele>252</ele>
        <time>2012-10-18T12:16:01Z</time>
      </trkpt>
      <trkpt lat="46.068467600271106" lon="9.310192158445716">
        <ele>252.96000000000001</ele>
        <time>2012-10-18T12:16:16Z</time>
      </trkpt>
      <trkpt lat="46.068603387102485" lon="9.310282096266747">
        <ele>250.56</ele>
        <time>2012-10-18T12:16:30Z</time>
      </trkpt>
      <trkpt lat="46.068617384880781" lon="9.310356779024005">
        <ele>248.63999999999999</ele>
        <time>2012-10-18T12:16:35Z</time>
      </trkpt>
      <trkpt lat="46.068621492013335" lon="9.310484686866403">
        <ele>245.75</ele>
        <time>2012-10-18T12:16:47Z</time>
      </trkpt>
      <trkpt lat="46.068710424005985" lon="9.310512850061059">
        <ele>242.87</ele>
        <time>2012-10-18T12:17:00Z</time>
      </trkpt>
      <trkpt lat="46.06881377287209" lon="9.310453841462731">
        <ele>239.50999999999999</ele>
        <time>2012-10-18T12:17:13Z</time>
      </trkpt>
      <trkpt lat="46.068752920255065" lon="9.310355689376593">
        <ele>237.09999999999999</ele>
        <time>2012-10-18T12:17:25Z</time>
      </trkpt>
      <trkpt lat="46.068739593029022" lon="9.310244712978602">
        <ele>233.74000000000001</ele>
        <time>2012-10-18T12:17:41Z</time>
      </trkpt>
      <trkpt lat="46.068807318806648" lon="9.31018453091383">
        <ele>231.33000000000001</ele>
        <time>2012-10-18T12:17:52Z</time>
      </trkpt>
      <trkpt lat="46.068820562213659" lon="9.310158463194966">
        <ele>230.37</ele>
        <time>2012-10-18T12:17:56Z</time>
      </trkpt>
      <trkpt lat="46.06877320446074" lon="9.310038015246391">
        <ele>227.00999999999999</ele>
        <time>2012-10-18T12:18:09Z</time>
      </trkpt>
      <trkpt lat="46.068763397634029" lon="9.309982610866427">
        <ele>225.09</ele>
        <time>2012-10-18T12:18:22Z</time>
      </trkpt>
      <trkpt lat="46.068769013509154" lon="9.309979761019349">
        <ele>224.61000000000001</ele>
        <time>2012-10-18T12:18:23Z</time>
      </trkpt>
      <trkpt lat="46.068881498649716" lon="9.309938354417682">
        <ele>221.72</ele>
        <time>2012-10-18T12:18:36Z</time>
      </trkpt>
      <trkpt lat="46.068987194448709" lon="9.309923350811005">
        <ele>220.75999999999999</ele>
        <time>2012-10-18T12:18:50Z</time>
      </trkpt>
      <trkpt lat="46.068973364308476" lon="9.309896444901824">
        <ele>220.28</ele>
        <time>2012-10-18T12:19:11Z</time>
      </trkpt>
      <trkpt lat="46.068969676271081" lon="9.309942461550236">
        <ele>220.28</ele>
        <time>2012-10-18T12:19:40Z</time>
      </trkpt>
      <trkpt lat="46.068971185013652" lon="9.309948161244392">
        <ele>220.28</ele>
        <time>2012-10-18T12:20:02Z</time>
      </trkpt>
      <trkpt lat="46.068973867222667" lon="9.309926200658083">
        <ele>220.75999999999999</ele>
        <time>2012-10-18T12:20:21Z</time>
      </trkpt>
      <trkpt lat="46.068976633250713" lon="9.309926284477115">
        <ele>220.75999999999999</ele>
        <time>2012-10-18T12:20:41Z</time>
      </trkpt>
      <trkpt lat="46.068990463390946" lon="9.309769459068775">
        <ele>217.88</ele>
        <time>2012-10-18T12:20:56Z</time>
      </trkpt>
      <trkpt lat="46.069048130884767" lon="9.30981413461268">
        <ele>217.88</ele>
        <time>2012-10-18T12:21:09Z</time>
      </trkpt>
      <trkpt lat="46.069179140031338" lon="9.309783205389977">
        <ele>217.40000000000001</ele>
        <time>2012-10-18T12:21:25Z</time>
      </trkpt>
      <trkpt lat="46.069178637117147" lon="9.309788569808006">
        <ele>217.40000000000001</ele>
        <time>2012-10-18T12:21:44Z</time>
      </trkpt>
      <trkpt lat="46.069187102839351" lon="9.309766441583633">
        <ele>217.40000000000001</ele>
        <time>2012-10-18T12:22:03Z</time>
      </trkpt>
      <trkpt lat="46.069175451993942" lon="9.309770381078124">
        <ele>217.40000000000001</ele>
        <time>2012-10-18T12:22:23Z</time>
      </trkpt>
      <trkpt lat="46.069218786433339" lon="9.309757137671113">
        <ele>217.40000000000001</ele>
        <time>2012-10-18T12:22:37Z</time>
      </trkpt>
      <trkpt lat="46.069228174164891" lon="9.309721346944571">
        <ele>217.88</ele>
        <time>2012-10-18T12:22:52Z</time>
      </trkpt>
      <trkpt lat="46.06921099126339" lon="9.309676336124539">
        <ele>216.91</ele>
        <time>2012-10-18T12:23:04Z</time>
      </trkpt>
      <trkpt lat="46.069197412580252" lon="9.309675078839064">
        <ele>216.91</ele>
        <time>2012-10-18T12:23:21Z</time>
      </trkpt>
      <trkpt lat="46.06918659992516" lon="9.309666361659765">
        <ele>216.91</ele>
        <time>2012-10-18T12:23:27Z</time>
      </trkpt>
      <trkpt lat="46.069234544411302" lon="9.309686981141567">
        <ele>217.40000000000001</ele>
        <time>2012-10-18T12:23:37Z</time>
      </trkpt>
      <trkpt lat="46.069235131144524" lon="9.309684215113521">
        <ele>217.40000000000001</ele>
        <time>2012-10-18T12:23:39Z</time>
      </trkpt>
      <trkpt lat="46.069258768111467" lon="9.309634007513523">
        <ele>217.40000000000001</ele>
        <time>2012-10-18T12:23:43Z</time>
      </trkpt>
      <trkpt lat="46.069402936846018" lon="9.309573238715529">
        <ele>217.40000000000001</ele>
        <time>2012-10-18T12:23:58Z</time>
      </trkpt>
      <trkpt lat="46.069590104743838" lon="9.309483384713531">
        <ele>217.40000000000001</ele>
        <time>2012-10-18T12:24:17Z</time>
      </trkpt>
      <trkpt lat="46.069811806082726" lon="9.309354722499847">
        <ele>217.40000000000001</ele>
        <time>2012-10-18T12:24:36Z</time>
      </trkpt>
      <trkpt lat="46.069882046431303" lon="9.309317339211702">
        <ele>217.88</ele>
        <time>2012-10-18T12:24:42Z</time>
      </trkpt>
      <trkpt lat="46.06996008194983" lon="9.309253636747599">
        <ele>217.88</ele>
        <time>2012-10-18T12:24:49Z</time>
      </trkpt>
      <trkpt lat="46.070109950378537" lon="9.309151796624064">
        <ele>217.40000000000001</ele>
        <time>2012-10-18T12:25:03Z</time>
      </trkpt>
      <trkpt lat="46.070170467719436" lon="9.309097146615386">
        <ele>218.84</ele>
        <time>2012-10-18T12:25:10Z</time>
      </trkpt>
      <trkpt lat="46.070225369185209" lon="9.30906068533659">
        <ele>218.36000000000001</ele>
        <time>2012-10-18T12:25:15Z</time>
      </trkpt>
      <trkpt lat="46.070295358076692" lon="9.309016428887844">
        <ele>218.84</ele>
        <time>2012-10-18T12:25:21Z</time>
      </trkpt>
      <trkpt lat="46.070465762168169" lon="9.308921126648784">
        <ele>218.36000000000001</ele>
        <time>2012-10-18T12:25:37Z</time>
      </trkpt>
      <trkpt lat="46.070662485435605" lon="9.308842085301876">
        <ele>219.31999999999999</ele>
        <time>2012-10-18T12:25:53Z</time>
      </trkpt>
      <trkpt lat="46.070882761850953" lon="9.308741502463818">
        <ele>218.84</ele>
        <time>2012-10-18T12:26:12Z</time>
      </trkpt>
      <trkpt lat="46.071067415177822" lon="9.308672351762652">
        <ele>219.80000000000001</ele>
        <time>2012-10-18T12:26:29Z</time>
      </trkpt>
      <trkpt lat="46.071131955832243" lon="9.308661455288529">
        <ele>219.80000000000001</ele>
        <time>2012-10-18T12:26:35Z</time>
      </trkpt>
      <trkpt lat="46.071268077939749" lon="9.308589538559318">
        <ele>220.28</ele>
        <time>2012-10-18T12:26:47Z</time>
      </trkpt>
      <trkpt lat="46.071492293849587" lon="9.308508653193712">
        <ele>220.75999999999999</ele>
        <time>2012-10-18T12:27:07Z</time>
      </trkpt>
      <trkpt lat="46.071652388200164" lon="9.308406645432115">
        <ele>220.75999999999999</ele>
        <time>2012-10-18T12:27:24Z</time>
      </trkpt>
      <trkpt lat="46.071853302419186" lon="9.308487446978688">
        <ele>221.24000000000001</ele>
        <time>2012-10-18T12:27:43Z</time>
      </trkpt>
      <trkpt lat="46.071924716234207" lon="9.308497756719589">
        <ele>220.75999999999999</ele>
        <time>2012-10-18T12:27:55Z</time>
      </trkpt>
      <trkpt lat="46.071977270767093" lon="9.308335231617093">
        <ele>221.72</ele>
        <time>2012-10-18T12:28:08Z</time>
      </trkpt>
      <trkpt lat="46.072022952139378" lon="9.30821537040174">
        <ele>221.24000000000001</ele>
        <time>2012-10-18T12:28:18Z</time>
      </trkpt>
      <trkpt lat="46.072080200538039" lon="9.3081811722368">
        <ele>221.24000000000001</ele>
        <time>2012-10-18T12:28:25Z</time>
      </trkpt>
      <trkpt lat="46.072199391201138" lon="9.308192739263177">
        <ele>221.72</ele>
        <time>2012-10-18T12:28:38Z</time>
      </trkpt>
      <trkpt lat="46.072294358164072" lon="9.308137753978372">
        <ele>221.72</ele>
        <time>2012-10-18T12:28:52Z</time>
      </trkpt>
      <trkpt lat="46.07227667234838" lon="9.308110428974032">
        <ele>221.72</ele>
        <time>2012-10-18T12:29:01Z</time>
      </trkpt>
      <trkpt lat="46.072333501651883" lon="9.308118727058172">
        <ele>221.72</ele>
        <time>2012-10-18T12:29:05Z</time>
      </trkpt>
      <trkpt lat="46.072434419766068" lon="9.3081034719944">
        <ele>222.19999999999999</ele>
        <time>2012-10-18T12:29:14Z</time>
      </trkpt>
      <trkpt lat="46.072489321231842" lon="9.308086456730962">
        <ele>221.72</ele>
        <time>2012-10-18T12:29:18Z</time>
      </trkpt>
      <trkpt lat="46.072720997035503" lon="9.308000961318612">
        <ele>222.68000000000001</ele>
        <time>2012-10-18T12:29:37Z</time>
      </trkpt>
      <trkpt lat="46.072734659537673" lon="9.308003643527627">
        <ele>222.68000000000001</ele>
        <time>2012-10-18T12:29:38Z</time>
      </trkpt>
      <trkpt lat="46.072994330897927" lon="9.30791781283915">
        <ele>222.68000000000001</ele>
        <time>2012-10-18T12:29:59Z</time>
      </trkpt>
      <trkpt lat="46.073116203770041" lon="9.307871041819453">
        <ele>223.63999999999999</ele>
        <time>2012-10-18T12:30:12Z</time>
      </trkpt>
      <trkpt lat="46.073254337534308" lon="9.307806333526969">
        <ele>223.63999999999999</ele>
        <time>2012-10-18T12:30:25Z</time>
      </trkpt>
      <trkpt lat="46.073410408571362" lon="9.307755623012781">
        <ele>223.63999999999999</ele>
        <time>2012-10-18T12:30:40Z</time>
      </trkpt>
      <trkpt lat="46.07356958091259" lon="9.307683790102601">
        <ele>224.61000000000001</ele>
        <time>2012-10-18T12:30:54Z</time>
      </trkpt>
      <trkpt lat="46.073743840679526" lon="9.307654704898596">
        <ele>225.09</ele>
        <time>2012-10-18T12:31:11Z</time>
      </trkpt>
      <trkpt lat="46.073928326368332" lon="9.307686220854521">
        <ele>225.09</ele>
        <time>2012-10-18T12:31:28Z</time>
      </trkpt>
      <trkpt lat="46.073939306661487" lon="9.307693094015122">
        <ele>225.09</ele>
        <time>2012-10-18T12:31:29Z</time>
      </trkpt>
      <trkpt lat="46.074136113747954" lon="9.30774137377739">
        <ele>225.09</ele>
        <time>2012-10-18T12:31:47Z</time>
      </trkpt>
      <trkpt lat="46.074325209483504" lon="9.307792000472546">
        <ele>226.05000000000001</ele>
        <time>2012-10-18T12:32:04Z</time>
      </trkpt>
      <trkpt lat="46.074525034055114" lon="9.307845728471875">
        <ele>226.53</ele>
        <time>2012-10-18T12:32:21Z</time>
      </trkpt>
      <trkpt lat="46.074726115912199" lon="9.307879507541657">
        <ele>227.00999999999999</ele>
        <time>2012-10-18T12:32:38Z</time>
      </trkpt>
      <trkpt lat="46.074890401214361" lon="9.307909179478884">
        <ele>227.49000000000001</ele>
        <time>2012-10-18T12:32:53Z</time>
      </trkpt>
      <trkpt lat="46.075086202472448" lon="9.307958967983723">
        <ele>227.49000000000001</ele>
        <time>2012-10-18T12:33:12Z</time>
      </trkpt>
      <trkpt lat="46.075245542451739" lon="9.307943712919951">
        <ele>227.97</ele>
        <time>2012-10-18T12:33:29Z</time>
      </trkpt>
      <trkpt lat="46.075331205502152" lon="9.307841286063194">
        <ele>227.49000000000001</ele>
        <time>2012-10-18T12:33:43Z</time>
      </trkpt>
      <trkpt lat="46.075395913794637" lon="9.30780591443181">
        <ele>227.97</ele>
        <time>2012-10-18T12:33:57Z</time>
      </trkpt>
      <trkpt lat="46.075454838573933" lon="9.307741038501263">
        <ele>228.44999999999999</ele>
        <time>2012-10-18T12:34:10Z</time>
      </trkpt>
      <trkpt lat="46.075462130829692" lon="9.307734835892916">
        <ele>227.49000000000001</ele>
        <time>2012-10-18T12:34:11Z</time>
      </trkpt>
      <trkpt lat="46.075490294024348" lon="9.307705331593752">
        <ele>227.97</ele>
        <time>2012-10-18T12:34:15Z</time>
      </trkpt>
      <trkpt lat="46.075625075027347" lon="9.307606592774391">
        <ele>227.97</ele>
        <time>2012-10-18T12:34:31Z</time>
      </trkpt>
      <trkpt lat="46.075759353116155" lon="9.307539369910955">
        <ele>227.97</ele>
        <time>2012-10-18T12:34:46Z</time>
      </trkpt>
      <trkpt lat="46.075796065852046" lon="9.307546494528651">
        <ele>228.44999999999999</ele>
        <time>2012-10-18T12:34:51Z</time>
      </trkpt>
      <trkpt lat="46.076060347259045" lon="9.307509446516633">
        <ele>229.41</ele>
        <time>2012-10-18T12:35:13Z</time>
      </trkpt>
      <trkpt lat="46.076180208474398" lon="9.307442894205451">
        <ele>229.88999999999999</ele>
        <time>2012-10-18T12:35:30Z</time>
      </trkpt>
      <trkpt lat="46.076223878189921" lon="9.307402996346355">
        <ele>230.37</ele>
        <time>2012-10-18T12:35:40Z</time>
      </trkpt>
      <trkpt lat="46.076409285888076" lon="9.30743258446455">
        <ele>230.84999999999999</ele>
        <time>2012-10-18T12:35:59Z</time>
      </trkpt>
      <trkpt lat="46.076426049694419" lon="9.307405427098274">
        <ele>230.37</ele>
        <time>2012-10-18T12:36:14Z</time>
      </trkpt>
      <trkpt lat="46.076370980590582" lon="9.307227311655879">
        <ele>230.37</ele>
        <time>2012-10-18T12:36:29Z</time>
      </trkpt>
      <trkpt lat="46.076389336958528" lon="9.307128824293613">
        <ele>229.88999999999999</ele>
        <time>2012-10-18T12:36:33Z</time>
      </trkpt>
      <trkpt lat="46.076383301988244" lon="9.307006197050214">
        <ele>228.93000000000001</ele>
        <time>2012-10-18T12:36:40Z</time>
      </trkpt>
      <trkpt lat="46.076420266181231" lon="9.306698916479945">
        <ele>227.97</ele>
        <time>2012-10-18T12:36:56Z</time>
      </trkpt>
      <trkpt lat="46.076433090493083" lon="9.306477047502995">
        <ele>227.49000000000001</ele>
        <time>2012-10-18T12:37:10Z</time>
      </trkpt>
      <trkpt lat="46.076461840420961" lon="9.306278899312019">
        <ele>227.00999999999999</ele>
        <time>2012-10-18T12:37:23Z</time>
      </trkpt>
      <trkpt lat="46.076494110748172" lon="9.306017132475972">
        <ele>226.05000000000001</ele>
        <time>2012-10-18T12:37:41Z</time>
      </trkpt>
      <trkpt lat="46.076509114354849" lon="9.305754527449608">
        <ele>225.09</ele>
        <time>2012-10-18T12:37:59Z</time>
      </trkpt>
      <trkpt lat="46.076580192893744" lon="9.305519079789519">
        <ele>224.61000000000001</ele>
        <time>2012-10-18T12:38:13Z</time>
      </trkpt>
      <trkpt lat="46.076599219813943" lon="9.305497957393527">
        <ele>224.61000000000001</ele>
        <time>2012-10-18T12:38:15Z</time>
      </trkpt>
      <trkpt lat="46.076828213408589" lon="9.305593762546778">
        <ele>224.12</ele>
        <time>2012-10-18T12:38:34Z</time>
      </trkpt>
      <trkpt lat="46.076983949169517" lon="9.305673893541098">
        <ele>224.12</ele>
        <time>2012-10-18T12:38:50Z</time>
      </trkpt>
      <trkpt lat="46.077131973579526" lon="9.305818900465965">
        <ele>224.12</ele>
        <time>2012-10-18T12:39:04Z</time>
      </trkpt>
      <trkpt lat="46.077152509242296" lon="9.305862570181489">
        <ele>224.12</ele>
        <time>2012-10-18T12:39:16Z</time>
      </trkpt>
      <trkpt lat="46.077290726825595" lon="9.305966924875975">
        <ele>224.12</ele>
        <time>2012-10-18T12:39:29Z</time>
      </trkpt>
      <trkpt lat="46.077384352684021" lon="9.306050073355436">
        <ele>224.12</ele>
        <time>2012-10-18T12:39:42Z</time>
      </trkpt>
      <trkpt lat="46.077524330466986" lon="9.306238163262606">
        <ele>224.12</ele>
        <time>2012-10-18T12:39:59Z</time>
      </trkpt>
      <trkpt lat="46.077529024332762" lon="9.306250233203173">
        <ele>224.12</ele>
        <time>2012-10-18T12:40:00Z</time>
      </trkpt>
      <trkpt lat="46.077589793130755" lon="9.306297088041902">
        <ele>224.61000000000001</ele>
        <time>2012-10-18T12:40:09Z</time>
      </trkpt>
      <trkpt lat="46.077592559158802" lon="9.306310582906008">
        <ele>223.63999999999999</ele>
        <time>2012-10-18T12:40:17Z</time>
      </trkpt>
      <trkpt lat="46.077547464519739" lon="9.306286526843905">
        <ele>224.12</ele>
        <time>2012-10-18T12:40:21Z</time>
      </trkpt>
      <trkpt lat="46.077473871409893" lon="9.306202623993158">
        <ele>224.61000000000001</ele>
        <time>2012-10-18T12:40:34Z</time>
      </trkpt>
      <trkpt lat="46.07752064242959" lon="9.306254843249917">
        <ele>224.12</ele>
        <time>2012-10-18T12:40:49Z</time>
      </trkpt>
      <trkpt lat="46.077554505318403" lon="9.306286526843905">
        <ele>224.12</ele>
        <time>2012-10-18T12:40:54Z</time>
      </trkpt>
      <trkpt lat="46.077628433704376" lon="9.306307649239898">
        <ele>224.12</ele>
        <time>2012-10-18T12:41:06Z</time>
      </trkpt>
      <trkpt lat="46.07765156775713" lon="9.306322485208511">
        <ele>223.16</ele>
        <time>2012-10-18T12:41:19Z</time>
      </trkpt>
      <trkpt lat="46.077652908861637" lon="9.306347128003836">
        <ele>222.68000000000001</ele>
        <time>2012-10-18T12:41:35Z</time>
      </trkpt>
      <trkpt lat="46.077653244137764" lon="9.306331956759095">
        <ele>222.68000000000001</ele>
        <time>2012-10-18T12:42:07Z</time>
      </trkpt>
      <trkpt lat="46.077666403725743" lon="9.306306475773454">
        <ele>222.68000000000001</ele>
        <time>2012-10-18T12:42:30Z</time>
      </trkpt>
      <trkpt lat="46.077691549435258" lon="9.306304715573788">
        <ele>222.19999999999999</ele>
        <time>2012-10-18T12:43:00Z</time>
      </trkpt>
      <trkpt lat="46.077692471444607" lon="9.306301698088646">
        <ele>222.68000000000001</ele>
        <time>2012-10-18T12:43:07Z</time>
      </trkpt>
      <trkpt lat="46.077707055956125" lon="9.306324077770114">
        <ele>223.16</ele>
        <time>2012-10-18T12:43:14Z</time>
      </trkpt>
      <trkpt lat="46.077735973522067" lon="9.306351905688644">
        <ele>223.63999999999999</ele>
        <time>2012-10-18T12:43:24Z</time>
      </trkpt>
      <trkpt lat="46.077764388173819" lon="9.306310415267944">
        <ele>223.63999999999999</ele>
        <time>2012-10-18T12:43:27Z</time>
      </trkpt>
      <trkpt lat="46.077793389558792" lon="9.306184016168118">
        <ele>223.63999999999999</ele>
        <time>2012-10-18T12:43:40Z</time>
      </trkpt>
      <trkpt lat="46.077741254121065" lon="9.306142274290323">
        <ele>223.63999999999999</ele>
        <time>2012-10-18T12:43:48Z</time>
      </trkpt>
      <trkpt lat="46.077721389010549" lon="9.306109501048923">
        <ele>223.63999999999999</ele>
        <time>2012-10-18T12:44:02Z</time>
      </trkpt>
      <trkpt lat="46.077512931078672" lon="9.305921997874975">
        <ele>223.63999999999999</ele>
        <time>2012-10-18T12:44:23Z</time>
      </trkpt>
      <trkpt lat="46.077608065679669" lon="9.305965164676309">
        <ele>223.16</ele>
        <time>2012-10-18T12:44:37Z</time>
      </trkpt>
      <trkpt lat="46.077617537230253" lon="9.305967427790165">
        <ele>223.16</ele>
        <time>2012-10-18T12:44:38Z</time>
      </trkpt>
      <trkpt lat="46.077663553878665" lon="9.305997351184487">
        <ele>223.16</ele>
        <time>2012-10-18T12:44:55Z</time>
      </trkpt>
    </trkseg>
  </trk>

</gpx>